[[{"header":{"parameterUnit":"m.s-1","parameterCategory":1,"la1":31.0,"la2":29.5877,"lo1":-88.7671,"lo2":-86.6584,"dy":0.0162,"dx":0.0185,"nx":115,"ny":88,"refTime":"2024-05-31T12:00:00:Z","depth":0,"parameterNumber":2,"parameterNumberName":"U-component_of_WINDS"},"data":[0.0,0.0,0.0,0.0,0.0,0.0,0.0,0.0,0.0,0.0,0.0,0.0,0.0,0.0,0.0,0.0,0.0,0.0,0.0,0.0,0.0,0.0,0.0,0.0,0.0,0.0,0.0,0.0,0.0,0.0,0.0,0.0,0.0,0.0,0.0,0.0,0.0,0.0,0.0,0.0,0.0,0.0,0.0,0.0,0.0,0.0,0.0,0.0,0.0,0.0,0.0,0.0,0.0,0.0,0.0,0.0,0.0,0.0,0.0,0.0,0.0,0.0,0.0,0.0,0.0,0.0,0.0,0.0,0.0,0.0,0.0,0.0,0.0,0.0,0.0,0.0,0.0,0.0,0.0,0.0,0.0,0.0,0.0,0.0,0.0,0.0,0.0,0.0,0.0,0.0,0.0,0.0,0.0,0.0,0.0,0.0,0.0,0.0,0.0,0.0,0.0,0.0,0.0,0.0,0.0,0.0,0.0,0.0,0.0,0.0,0.0,0.0,0.0,0.0,0.0,0.0,0.0,0.0,0.0,0.0,0.0,0.0,0.0,0.0,0.0,0.0,0.0,0.0,0.0,0.0,0.0,0.0,0.0,0.0,0.0,0.0,0.0,0.0,0.0,0.0,0.0,0.0,0.0,0.0,0.0,0.0,0.0,0.0,0.0,0.0,0.0,0.0,0.0,0.0,0.0,0.0,0.0,0.0,0.0,0.0,0.0,0.0,0.0,0.0,0.0,0.0,0.0,0.0,0.0,0.0,0.0,0.0,0.0,0.0,0.0,0.0,0.0,0.0,0.0,0.0,0.0,0.0,0.0,0.0,0.0,0.0,0.0,0.0,0.0,0.0,0.0,0.0,0.0,0.0,0.0,0.0,0.0,0.0,0.0,0.0,0.0,0.0,0.0,0.0,0.0,0.0,0.0,0.0,0.0,0.0,0.0,0.0,0.0,0.0,0.0,0.0,0.0,0.0,0.0,0.0,0.0,0.0,0.0,0.0,0.0,0.0,0.0,0.0,0.0,0.0,0.0,0.0,0.0,0.0,0.0,0.0,0.0,0.0,0.0,0.0,0.0,0.0,0.0,0.0,0.0,0.0,0.0,0.0,0.0,0.0,0.0,0.0,0.0,0.0,0.0,0.0,0.0,0.0,0.0,0.0,0.0,0.0,0.0,0.0,0.0,0.0,0.0,0.0,0.0,0.0,0.0,0.0,0.0,0.0,0.0,0.0,0.0,0.0,0.0,0.0,0.0,0.0,0.0,0.0,0.0,0.0,0.0,0.0,0.0,0.0,0.0,0.0,0.0,0.0,0.0,0.0,0.0,0.0,0.0,0.0,0.0,0.0,0.0,0.0,0.0,0.0,0.0,0.0,0.0,0.0,0.0,0.0,0.0,0.0,0.0,0.0,0.0,0.0,0.0,0.0,0.0,0.0,0.0,0.0,0.0,0.0,0.0,0.0,0.0,0.0,0.0,0.0,0.0,0.0,0.0,0.0,0.0,0.0,0.0,0.0,0.0,0.0,0.0,0.0,0.0,0.0,0.0,0.0,0.0,0.0,0.0,0.0,0.0,0.0,0.0,0.0,0.0,0.0,0.0,0.0,0.0,0.0,0.0,0.0,0.0,0.0,0.0,0.0,0.0,0.0,0.0,0.0,0.0,0.0,0.0,0.0,0.0,0.0,0.0,0.0,0.0,0.0,0.0,0.0,0.0,0.0,0.0,0.0,0.0,0.0,0.0,0.0,0.0,0.0,0.0,0.0,0.0,0.0,0.0,0.0,0.0,0.0,0.0,0.0,0.0,0.0,0.0,0.0,0.0,0.0,0.0,0.0,0.0,0.0,0.0,0.0,0.0,0.0,0.0,0.0,0.0,0.0,0.0,0.0,0.0,0.0,0.0,0.0,0.0,0.0,0.0,0.0,0.0,0.0,0.0,0.0,0.0,0.0,0.0,0.0,0.0,0.0,0.0,0.0,0.0,0.0,0.0,0.0,0.0,0.0,0.0,0.0,0.0,0.0,0.0,0.0,0.0,0.0,0.0,0.0,0.0,0.0,0.0,0.0,0.0,0.0,0.0,0.0,0.0,0.0,0.0,0.0,0.0,0.0,0.0,0.0,0.0,0.0,0.0,0.0,0.0,0.0,0.0,0.0,0.0,0.0,0.0,0.0,0.0,0.0,0.0,0.0,0.0,0.0,0.0,0.0,0.0,0.0,0.0,0.0,0.0,0.0,0.0,0.0,0.0,0.0,0.0,0.0,0.0,0.0,0.0,0.0,0.0,0.0,0.0,0.0,0.0,0.0,0.0,0.0,0.0,0.0,0.0,0.0,0.0,0.0,0.0,0.0,0.0,0.0,0.0,0.0,0.0,0.0,0.0,0.0,0.0,0.0,0.0,0.0,0.0,0.0,0.0,0.0,0.0,0.0,0.0,0.0,0.0,0.0,0.0,0.0,0.0,0.0,0.0,0.0,0.0,0.0,0.0,0.0,0.0,0.0,0.0,0.0,0.0,0.0,0.0,0.0,0.0,0.0,0.0,0.0,0.0,0.0,0.0,0.0,0.0,0.0,0.0,0.0,0.0,0.0,0.0,0.0,0.0,0.0,0.0,0.0,0.0,0.0,0.0,0.0,0.0,0.0,0.0,0.0,0.0,0.0,0.0,0.0,0.0,0.0,0.0,0.0,0.0,0.0,0.0,0.0,0.0,0.0,0.0,0.0,0.0,0.0,0.0,0.0,0.0,0.0,0.0,0.0,0.0,0.0,0.0,0.0,0.0,0.0,0.0,0.0,0.0,0.0,0.0,0.0,0.0,0.0,0.0,0.0,0.0,0.0,0.0,0.0,0.0,0.0,0.0,0.0,0.0,0.0,0.0,0.0,0.0,0.0,0.0,0.0,0.0,0.0,0.0,0.0,0.0,0.0,0.0,0.0,0.0,0.0,0.0,0.0,0.0,0.0,0.0,0.0,0.0,0.0,0.0,0.0,0.0,0.0,0.0,0.0,0.0,0.0,0.0,0.0,0.0,0.0,0.0,0.0,0.0,0.0,0.0,0.0,0.0,0.0,0.0,0.0,0.0,0.0,0.0,0.0,0.0,0.0,0.0,0.0,0.0,0.0,0.0,0.0,0.0,0.0,0.0,0.0,0.0,0.0,0.0,0.0,0.0,0.0,0.0,0.0,0.0,0.0,0.0,0.0,0.0,0.0,0.0,0.0,0.0,0.0,0.0,0.0,0.0,0.0,0.0,0.0,0.0,0.0,0.0,0.0,0.0,0.0,0.0,0.0,0.0,0.0,0.0,0.0,0.0,0.0,0.0,0.0,0.0,0.0,0.0,0.0,0.0,0.0,0.0,0.0,0.0,0.0,0.0,0.0,0.0,0.0,0.0,0.0,0.0,0.0,0.0,0.0,0.0,0.0,0.0,0.0,0.0,0.0,0.0,0.0,0.0,0.0,0.0,0.0,0.0,0.0,0.0,0.0,0.0,0.0,0.0,0.0,0.0,0.0,0.0,0.0,0.0,0.0,0.0,0.0,0.0,0.0,0.0,0.0,0.0,0.0,0.0,0.0,0.0,0.0,0.0,0.0,0.0,0.0,0.0,0.0,0.0,0.0,0.0,0.0,0.0,0.0,0.0,0.0,0.0,0.0,0.0,0.0,0.0,0.0,0.0,0.0,0.0,0.0,0.0,0.0,0.0,0.0,0.0,0.0,0.0,0.0,0.0,0.0,0.0,0.0,0.0,0.0,0.0,0.0,0.0,0.0,0.0,0.0,0.0,0.0,0.0,0.0,0.0,0.0,0.0,0.0,0.0,0.0,0.0,0.0,0.0,0.0,0.0,0.0,0.0,0.0,0.0,0.0,0.0,0.0,0.0,0.0,0.0,0.0,0.0,0.0,0.0,0.0,0.0,0.0,0.0,0.0,0.0,0.0,0.0,0.0,0.0,0.0,0.0,0.0,0.0,0.0,0.0,0.0,0.0,0.0,0.0,0.0,0.0,0.0,0.0,0.0,0.0,0.0,0.0,0.0,0.0,0.0,0.0,0.0,0.0,0.0,0.0,0.0,0.0,0.0,0.0,0.0,0.0,0.0,0.0,0.0,0.0,0.0,0.0,0.0,0.0,0.0,0.0,0.0,0.0,0.0,0.0,0.0,0.0,0.0,0.0,0.0,0.0,0.0,0.0,0.0,0.0,0.0,0.0,0.0,0.0,0.0,0.0,0.0,0.0,0.0,0.0,0.0,0.0,0.0,0.0,0.0,0.0,0.0,0.0,0.0,0.0,0.0,-2.8135,0.0,0.0,0.0,0.0,0.0,0.0,0.0,0.0,0.0,0.0,0.0,0.0,0.0,0.0,0.0,0.0,0.0,0.0,0.0,0.0,0.0,0.0,0.0,0.0,0.0,0.0,0.0,0.0,0.0,0.0,0.0,0.0,0.0,0.0,0.0,0.0,0.0,0.0,0.0,0.0,0.0,0.0,0.0,0.0,0.0,0.0,0.0,0.0,0.0,0.0,0.0,0.0,0.0,0.0,0.0,0.0,0.0,0.0,0.0,0.0,0.0,0.0,0.0,0.0,0.0,0.0,0.0,0.0,0.0,0.0,0.0,0.0,0.0,0.0,0.0,0.0,0.0,0.0,0.0,0.0,0.0,0.0,0.0,0.0,0.0,0.0,0.0,0.0,0.0,0.0,0.0,0.0,0.0,0.0,0.0,0.0,0.0,0.0,0.0,0.0,0.0,0.0,0.0,0.0,0.0,0.0,0.0,0.0,0.0,0.0,-3.0881,-3.0252,-2.9902,-2.965,-2.9469,0.0,0.0,0.0,0.0,0.0,0.0,0.0,0.0,0.0,0.0,0.0,0.0,0.0,0.0,0.0,0.0,0.0,0.0,0.0,0.0,0.0,0.0,0.0,0.0,0.0,0.0,0.0,0.0,0.0,0.0,0.0,0.0,0.0,0.0,0.0,0.0,0.0,0.0,0.0,0.0,0.0,0.0,0.0,0.0,0.0,0.0,0.0,0.0,0.0,0.0,0.0,0.0,0.0,0.0,0.0,0.0,0.0,0.0,0.0,0.0,0.0,0.0,0.0,0.0,0.0,0.0,0.0,0.0,0.0,0.0,0.0,0.0,0.0,0.0,0.0,0.0,0.0,0.0,0.0,0.0,0.0,0.0,0.0,0.0,0.0,0.0,0.0,0.0,0.0,0.0,0.0,0.0,0.0,0.0,0.0,0.0,0.0,0.0,0.0,0.0,0.0,0.0,0.0,0.0,0.0,0.0,0.0,0.0,0.0,0.0,0.0,0.0,-3.0555,-3.0341,-3.0303,0.0,0.0,0.0,0.0,0.0,0.0,0.0,0.0,0.0,0.0,0.0,0.0,0.0,0.0,0.0,0.0,0.0,0.0,0.0,0.0,0.0,0.0,0.0,0.0,0.0,0.0,0.0,0.0,0.0,0.0,0.0,0.0,0.0,0.0,0.0,0.0,0.0,0.0,0.0,0.0,0.0,0.0,0.0,0.0,0.0,0.0,0.0,0.0,0.0,0.0,0.0,0.0,0.0,0.0,0.0,0.0,0.0,0.0,0.0,0.0,0.0,0.0,0.0,0.0,0.0,0.0,0.0,0.0,0.0,0.0,0.0,0.0,0.0,0.0,0.0,0.0,0.0,0.0,0.0,0.0,0.0,0.0,0.0,0.0,0.0,0.0,0.0,0.0,0.0,0.0,0.0,0.0,0.0,0.0,0.0,0.0,0.0,0.0,0.0,0.0,0.0,0.0,0.0,0.0,0.0,0.0,0.0,0.0,0.0,0.0,-3.1235,-3.1011,-3.0921,0.0,-2.9634,0.0,0.0,0.0,0.0,0.0,0.0,0.0,0.0,0.0,0.0,0.0,0.0,0.0,0.0,0.0,0.0,0.0,0.0,0.0,0.0,0.0,0.0,0.0,0.0,0.0,0.0,0.0,0.0,0.0,0.0,0.0,0.0,0.0,0.0,0.0,0.0,0.0,0.0,0.0,0.0,0.0,0.0,0.0,0.0,0.0,0.0,0.0,0.0,0.0,0.0,0.0,0.0,0.0,0.0,0.0,0.0,0.0,0.0,0.0,0.0,0.0,0.0,0.0,0.0,0.0,0.0,0.0,0.0,0.0,0.0,0.0,0.0,0.0,0.0,0.0,0.0,0.0,0.0,0.0,0.0,0.0,0.0,0.0,0.0,0.0,0.0,0.0,0.0,0.0,0.0,0.0,0.0,0.0,0.0,0.0,0.0,0.0,0.0,0.0,0.0,0.0,0.0,0.0,0.0,0.0,0.0,0.0,0.0,0.0,0.0,-3.1686,-3.1496,-3.1156,-3.0525,0.0,0.0,0.0,0.0,0.0,0.0,0.0,0.0,0.0,0.0,0.0,0.0,0.0,0.0,0.0,0.0,0.0,0.0,0.0,0.0,0.0,0.0,0.0,0.0,0.0,0.0,0.0,0.0,0.0,0.0,0.0,0.0,0.0,0.0,0.0,0.0,0.0,0.0,0.0,0.0,0.0,0.0,0.0,0.0,0.0,0.0,0.0,0.0,0.0,0.0,0.0,0.0,0.0,0.0,0.0,0.0,0.0,0.0,0.0,0.0,0.0,0.0,0.0,0.0,0.0,0.0,0.0,0.0,0.0,0.0,0.0,0.0,0.0,0.0,0.0,0.0,0.0,0.0,0.0,0.0,0.0,0.0,0.0,0.0,0.0,0.0,0.0,0.0,0.0,0.0,0.0,0.0,0.0,0.0,0.0,0.0,0.0,0.0,0.0,0.0,0.0,0.0,0.0,0.0,0.0,0.0,0.0,0.0,0.0,0.0,-3.2553,-3.2263,-3.1913,-3.1482,-3.0759,-2.9779,0.0,0.0,0.0,0.0,0.0,0.0,0.0,0.0,0.0,0.0,0.0,0.0,0.0,0.0,0.0,0.0,0.0,0.0,0.0,0.0,0.0,0.0,0.0,0.0,0.0,0.0,0.0,0.0,0.0,0.0,0.0,0.0,0.0,0.0,0.0,0.0,0.0,0.0,0.0,0.0,0.0,0.0,0.0,0.0,0.0,0.0,0.0,0.0,0.0,0.0,0.0,0.0,0.0,0.0,0.0,0.0,0.0,0.0,0.0,0.0,0.0,0.0,0.0,0.0,0.0,0.0,0.0,0.0,0.0,0.0,0.0,0.0,0.0,0.0,0.0,0.0,0.0,0.0,0.0,0.0,0.0,0.0,0.0,0.0,0.0,0.0,0.0,0.0,0.0,0.0,0.0,0.0,0.0,0.0,0.0,0.0,0.0,0.0,0.0,0.0,0.0,0.0,0.0,0.0,0.0,0.0,0.0,0.0,0.0,-3.3249,-3.2983,-3.2222,-3.1913,-3.1292,0.0,0.0,0.0,0.0,0.0,0.0,0.0,0.0,0.0,0.0,0.0,0.0,0.0,0.0,0.0,0.0,0.0,0.0,0.0,0.0,0.0,0.0,0.0,0.0,0.0,0.0,0.0,0.0,0.0,0.0,0.0,0.0,0.0,0.0,0.0,0.0,0.0,0.0,0.0,0.0,0.0,0.0,0.0,0.0,0.0,0.0,0.0,0.0,0.0,0.0,0.0,0.0,0.0,0.0,0.0,0.0,0.0,0.0,0.0,0.0,0.0,0.0,0.0,0.0,0.0,0.0,0.0,0.0,0.0,0.0,0.0,0.0,0.0,0.0,0.0,0.0,0.0,0.0,0.0,0.0,0.0,0.0,0.0,0.0,0.0,0.0,0.0,0.0,0.0,0.0,0.0,0.0,0.0,0.0,0.0,0.0,0.0,0.0,0.0,0.0,0.0,0.0,0.0,0.0,0.0,0.0,0.0,0.0,0.0,-3.4163,-3.402,-3.3542,-3.2763,-3.2277,-3.1719,0.0,0.0,0.0,0.0,0.0,0.0,0.0,0.0,0.0,0.0,0.0,0.0,0.0,0.0,0.0,0.0,0.0,0.0,0.0,0.0,0.0,0.0,0.0,0.0,0.0,0.0,0.0,0.0,0.0,0.0,0.0,0.0,0.0,0.0,0.0,0.0,0.0,0.0,0.0,0.0,0.0,0.0,0.0,0.0,0.0,0.0,0.0,0.0,0.0,0.0,0.0,0.0,0.0,0.0,0.0,0.0,0.0,0.0,0.0,0.0,0.0,0.0,0.0,0.0,0.0,0.0,0.0,0.0,0.0,0.0,0.0,0.0,0.0,0.0,0.0,0.0,0.0,0.0,0.0,0.0,0.0,0.0,0.0,0.0,0.0,0.0,0.0,0.0,0.0,0.0,0.0,0.0,0.0,0.0,0.0,0.0,0.0,0.0,0.0,0.0,0.0,0.0,0.0,0.0,0.0,0.0,0.0,0.0,0.0,-3.5743,0.0,-3.458,0.0,-3.3132,-3.2332,0.0,0.0,0.0,0.0,0.0,0.0,0.0,0.0,0.0,0.0,0.0,0.0,0.0,0.0,0.0,0.0,0.0,0.0,0.0,0.0,0.0,0.0,0.0,0.0,0.0,0.0,0.0,0.0,0.0,0.0,0.0,0.0,0.0,0.0,0.0,0.0,0.0,0.0,0.0,0.0,0.0,0.0,0.0,0.0,0.0,0.0,0.0,0.0,0.0,0.0,0.0,0.0,0.0,0.0,0.0,0.0,0.0,0.0,0.0,0.0,0.0,0.0,0.0,0.0,0.0,0.0,0.0,0.0,0.0,0.0,0.0,0.0,0.0,0.0,0.0,0.0,0.0,0.0,0.0,0.0,0.0,0.0,0.0,0.0,0.0,0.0,0.0,0.0,0.0,0.0,0.0,0.0,0.0,0.0,0.0,0.0,0.0,0.0,0.0,0.0,0.0,0.0,0.0,0.0,0.0,0.0,0.0,0.0,-3.668,-3.7783,-3.6862,-3.6183,-3.5777,-3.458,-3.3198,0.0,0.0,0.0,0.0,0.0,0.0,0.0,0.0,0.0,0.0,0.0,0.0,0.0,0.0,0.0,0.0,0.0,0.0,0.0,0.0,0.0,0.0,0.0,0.0,0.0,0.0,0.0,0.0,0.0,0.0,0.0,0.0,0.0,0.0,0.0,0.0,0.0,0.0,0.0,0.0,0.0,0.0,0.0,0.0,0.0,0.0,0.0,0.0,0.0,0.0,0.0,0.0,0.0,0.0,0.0,0.0,0.0,0.0,0.0,0.0,0.0,0.0,0.0,0.0,0.0,0.0,0.0,0.0,0.0,0.0,0.0,0.0,0.0,0.0,0.0,0.0,0.0,0.0,0.0,0.0,0.0,0.0,0.0,0.0,0.0,0.0,0.0,0.0,0.0,0.0,0.0,0.0,0.0,0.0,0.0,0.0,0.0,0.0,0.0,0.0,0.0,0.0,0.0,0.0,0.0,0.0,0.0,0.0,0.0,-3.8394,-3.8186,-3.7909,-3.7442,-3.6116,-3.4888,0.0,0.0,0.0,0.0,0.0,0.0,0.0,0.0,0.0,0.0,0.0,0.0,0.0,0.0,0.0,0.0,0.0,0.0,0.0,0.0,0.0,0.0,0.0,0.0,0.0,0.0,0.0,0.0,0.0,0.0,0.0,0.0,0.0,0.0,0.0,0.0,0.0,0.0,0.0,0.0,0.0,0.0,0.0,0.0,0.0,0.0,0.0,0.0,0.0,0.0,0.0,0.0,0.0,0.0,0.0,0.0,0.0,0.0,0.0,0.0,0.0,0.0,0.0,0.0,0.0,0.0,0.0,0.0,0.0,0.0,0.0,0.0,0.0,0.0,0.0,0.0,0.0,0.0,0.0,0.0,0.0,0.0,0.0,0.0,0.0,0.0,0.0,0.0,0.0,0.0,0.0,0.0,0.0,0.0,0.0,0.0,0.0,0.0,0.0,0.0,0.0,0.0,0.0,0.0,0.0,0.0,0.0,0.0,0.0,-4.1295,-4.0884,-4.0603,-4.0309,-3.8644,-3.6976,-3.5435,0.0,0.0,0.0,0.0,0.0,0.0,0.0,0.0,0.0,0.0,0.0,0.0,0.0,0.0,0.0,0.0,0.0,0.0,0.0,0.0,0.0,0.0,0.0,0.0,0.0,0.0,0.0,0.0,0.0,0.0,0.0,0.0,0.0,0.0,0.0,0.0,0.0,0.0,0.0,0.0,0.0,0.0,0.0,0.0,0.0,0.0,0.0,0.0,0.0,0.0,0.0,0.0,0.0,0.0,0.0,0.0,0.0,0.0,0.0,0.0,0.0,0.0,0.0,0.0,0.0,0.0,0.0,0.0,0.0,0.0,0.0,0.0,0.0,0.0,0.0,0.0,0.0,0.0,0.0,0.0,0.0,0.0,0.0,0.0,0.0,0.0,0.0,0.0,0.0,0.0,0.0,0.0,0.0,0.0,0.0,0.0,0.0,0.0,0.0,0.0,0.0,0.0,0.0,0.0,0.0,0.0,0.0,0.0,-4.5986,-4.4863,-4.4182,-4.3892,-4.1781,-3.938,0.0,0.0,0.0,0.0,0.0,0.0,0.0,0.0,0.0,0.0,0.0,0.0,0.0,0.0,0.0,0.0,0.0,0.0,0.0,0.0,0.0,0.0,0.0,0.0,0.0,0.0,0.0,0.0,0.0,0.0,0.0,0.0,0.0,0.0,0.0,0.0,0.0,0.0,0.0,0.0,0.0,0.0,0.0,0.0,0.0,0.0,0.0,0.0,0.0,0.0,0.0,0.0,0.0,0.0,0.0,0.0,0.0,0.0,0.0,0.0,0.0,0.0,0.0,0.0,0.0,0.0,0.0,0.0,0.0,0.0,0.0,0.0,0.0,0.0,0.0,0.0,0.0,0.0,0.0,0.0,0.0,0.0,0.0,0.0,0.0,0.0,0.0,0.0,0.0,0.0,0.0,0.0,0.0,0.0,0.0,0.0,0.0,0.0,0.0,0.0,0.0,0.0,0.0,0.0,0.0,0.0,0.0,0.0,0.0,-4.9551,-4.9957,-4.8789,-4.6035,-4.3516,-4.1468,0.0,0.0,0.0,0.0,0.0,0.0,0.0,0.0,0.0,0.0,0.0,0.0,0.0,0.0,0.0,0.0,0.0,0.0,0.0,0.0,0.0,0.0,0.0,0.0,0.0,0.0,0.0,0.0,0.0,0.0,0.0,0.0,0.0,0.0,0.0,0.0,0.0,0.0,0.0,0.0,0.0,0.0,0.0,0.0,0.0,0.0,0.0,0.0,0.0,0.0,0.0,0.0,0.0,0.0,0.0,0.0,0.0,0.0,0.0,0.0,0.0,0.0,0.0,0.0,0.0,0.0,0.0,0.0,0.0,0.0,0.0,0.0,0.0,0.0,0.0,0.0,0.0,0.0,0.0,0.0,0.0,0.0,0.0,0.0,0.0,0.0,0.0,0.0,0.0,0.0,0.0,0.0,0.0,0.0,0.0,0.0,0.0,0.0,0.0,0.0,0.0,0.0,0.0,0.0,0.0,0.0,0.0,0.0,-4.9839,-5.0984,-5.2368,-5.1685,-4.8835,-4.6124,-4.3761,0.0,0.0,0.0,0.0,0.0,0.0,0.0,0.0,0.0,0.0,0.0,0.0,0.0,0.0,0.0,0.0,0.0,0.0,0.0,0.0,0.0,0.0,0.0,0.0,0.0,0.0,0.0,0.0,0.0,0.0,0.0,0.0,0.0,0.0,0.0,0.0,0.0,0.0,0.0,0.0,0.0,0.0,0.0,0.0,0.0,0.0,0.0,0.0,0.0,0.0,0.0,0.0,0.0,0.0,0.0,0.0,0.0,0.0,0.0,0.0,0.0,0.0,0.0,0.0,0.0,0.0,0.0,0.0,0.0,0.0,0.0,0.0,0.0,0.0,0.0,0.0,0.0,0.0,0.0,0.0,0.0,0.0,0.0,0.0,0.0,0.0,0.0,0.0,0.0,0.0,0.0,0.0,0.0,0.0,0.0,0.0,0.0,0.0,0.0,0.0,0.0,0.0,0.0,0.0,0.0,0.0,0.0,0.0,-5.1656,-5.1439,-5.319,-5.3352,-5.1725,-4.8876,-4.5998,0.0,0.0,0.0,0.0,0.0,0.0,0.0,0.0,0.0,0.0,0.0,0.0,0.0,0.0,0.0,0.0,0.0,0.0,0.0,0.0,0.0,0.0,0.0,0.0,0.0,0.0,0.0,0.0,0.0,0.0,0.0,0.0,0.0,0.0,0.0,0.0,0.0,0.0,0.0,0.0,0.0,0.0,0.0,0.0,0.0,0.0,0.0,0.0,0.0,0.0,0.0,0.0,0.0,0.0,0.0,0.0,0.0,0.0,0.0,0.0,0.0,0.0,0.0,0.0,0.0,0.0,0.0,0.0,0.0,0.0,0.0,0.0,0.0,0.0,0.0,0.0,0.0,0.0,0.0,0.0,0.0,0.0,0.0,0.0,0.0,0.0,0.0,0.0,0.0,0.0,0.0,0.0,0.0,0.0,0.0,0.0,0.0,0.0,0.0,0.0,0.0,0.0,0.0,0.0,0.0,0.0,0.0,0.0,-5.3406,-5.4251,-5.4643,-5.4068,-5.2433,-4.9234,-4.6791,0.0,0.0,0.0,0.0,0.0,0.0,0.0,0.0,0.0,0.0,0.0,0.0,0.0,0.0,0.0,0.0,0.0,0.0,0.0,0.0,0.0,0.0,0.0,0.0,0.0,0.0,0.0,0.0,0.0,0.0,0.0,0.0,0.0,0.0,0.0,0.0,0.0,0.0,0.0,0.0,0.0,0.0,0.0,0.0,0.0,0.0,0.0,0.0,-3.8666,0.0,0.0,0.0,0.0,0.0,0.0,0.0,0.0,0.0,0.0,0.0,0.0,0.0,0.0,0.0,0.0,0.0,0.0,0.0,0.0,0.0,0.0,0.0,0.0,0.0,0.0,0.0,0.0,0.0,0.0,0.0,0.0,0.0,0.0,0.0,0.0,0.0,0.0,0.0,0.0,0.0,0.0,0.0,0.0,0.0,0.0,0.0,0.0,0.0,0.0,0.0,0.0,0.0,0.0,0.0,0.0,0.0,0.0,0.0,-5.4089,-5.4869,-5.5152,-5.4326,-5.2472,-5.0309,-4.816,0.0,0.0,0.0,0.0,0.0,0.0,0.0,0.0,0.0,0.0,0.0,0.0,0.0,0.0,0.0,0.0,0.0,0.0,0.0,0.0,0.0,0.0,0.0,0.0,0.0,0.0,0.0,0.0,0.0,0.0,0.0,0.0,0.0,0.0,0.0,0.0,0.0,0.0,0.0,0.0,0.0,0.0,0.0,0.0,0.0,0.0,0.0,0.0,0.0,0.0,0.0,0.0,0.0,0.0,0.0,0.0,0.0,0.0,0.0,0.0,0.0,0.0,0.0,0.0,0.0,0.0,0.0,0.0,0.0,0.0,0.0,0.0,0.0,0.0,0.0,0.0,0.0,0.0,0.0,0.0,0.0,0.0,0.0,0.0,0.0,0.0,0.0,0.0,0.0,0.0,0.0,0.0,0.0,0.0,0.0,0.0,0.0,0.0,0.0,0.0,0.0,0.0,0.0,0.0,0.0,0.0,0.0,-5.2749,-5.4451,-5.5039,-5.5363,-5.4483,-5.2318,-5.1405,-4.9468,-4.6346,0.0,0.0,0.0,0.0,0.0,0.0,0.0,0.0,0.0,0.0,0.0,0.0,0.0,0.0,0.0,0.0,0.0,0.0,0.0,0.0,0.0,0.0,0.0,0.0,0.0,0.0,0.0,0.0,0.0,0.0,0.0,0.0,0.0,0.0,0.0,0.0,0.0,0.0,-3.9068,-4.0968,0.0,0.0,0.0,0.0,0.0,0.0,0.0,0.0,-4.1112,0.0,0.0,0.0,0.0,0.0,0.0,0.0,0.0,0.0,0.0,0.0,0.0,0.0,0.0,0.0,0.0,0.0,0.0,0.0,0.0,0.0,0.0,0.0,0.0,0.0,0.0,0.0,0.0,0.0,0.0,0.0,0.0,0.0,0.0,0.0,0.0,0.0,0.0,0.0,0.0,0.0,0.0,0.0,0.0,0.0,0.0,0.0,0.0,0.0,0.0,0.0,0.0,0.0,0.0,0.0,0.0,-5.2024,-5.3976,-5.5442,-5.6555,-5.617,-5.4752,-5.2467,-5.1474,-4.963,-4.6737,0.0,0.0,0.0,0.0,0.0,0.0,0.0,0.0,0.0,0.0,0.0,0.0,0.0,0.0,0.0,0.0,0.0,0.0,0.0,0.0,0.0,0.0,0.0,0.0,0.0,0.0,0.0,0.0,0.0,0.0,0.0,0.0,0.0,0.0,0.0,0.0,0.0,0.0,0.0,-4.3008,-4.4132,0.0,0.0,0.0,0.0,0.0,0.0,0.0,0.0,-4.1563,0.0,0.0,0.0,0.0,0.0,0.0,0.0,0.0,0.0,0.0,0.0,0.0,0.0,0.0,0.0,0.0,0.0,0.0,0.0,0.0,0.0,0.0,0.0,0.0,0.0,0.0,0.0,0.0,0.0,0.0,0.0,0.0,0.0,0.0,0.0,0.0,0.0,0.0,0.0,0.0,0.0,0.0,0.0,0.0,0.0,0.0,0.0,0.0,0.0,0.0,0.0,0.0,0.0,0.0,0.0,-5.1409,-5.3347,-5.4905,-5.614,-5.5914,-5.4824,-5.2998,-5.2021,-5.0072,0.0,0.0,0.0,0.0,0.0,0.0,0.0,0.0,0.0,0.0,0.0,0.0,0.0,0.0,0.0,0.0,0.0,0.0,0.0,0.0,0.0,0.0,0.0,0.0,0.0,0.0,0.0,0.0,0.0,0.0,0.0,0.0,0.0,0.0,0.0,0.0,0.0,0.0,0.0,0.0,-4.407,-4.4982,-4.6314,0.0,0.0,0.0,0.0,0.0,0.0,-4.3282,-4.2603,0.0,0.0,0.0,0.0,0.0,0.0,0.0,0.0,0.0,0.0,0.0,0.0,0.0,0.0,0.0,0.0,0.0,0.0,0.0,0.0,0.0,0.0,0.0,0.0,0.0,0.0,0.0,0.0,0.0,0.0,0.0,0.0,0.0,0.0,0.0,0.0,0.0,0.0,0.0,0.0,0.0,0.0,0.0,0.0,0.0,0.0,0.0,0.0,0.0,0.0,0.0,0.0,0.0,0.0,0.0,-5.0717,-5.2543,-5.4085,-5.535,-5.5441,-5.474,-5.3288,-5.2238,-5.0256,0.0,0.0,0.0,0.0,0.0,0.0,0.0,0.0,0.0,0.0,0.0,0.0,0.0,0.0,0.0,0.0,0.0,0.0,0.0,0.0,0.0,0.0,0.0,0.0,0.0,0.0,0.0,0.0,0.0,0.0,0.0,0.0,0.0,0.0,0.0,0.0,0.0,0.0,0.0,0.0,0.0,-4.5325,-4.6699,-4.6253,0.0,0.0,0.0,0.0,-4.444,-4.4046,0.0,0.0,0.0,0.0,0.0,0.0,0.0,0.0,0.0,0.0,0.0,0.0,0.0,0.0,0.0,0.0,0.0,0.0,0.0,0.0,0.0,0.0,0.0,0.0,0.0,0.0,0.0,0.0,0.0,0.0,0.0,0.0,0.0,0.0,0.0,0.0,0.0,0.0,0.0,0.0,0.0,0.0,0.0,0.0,0.0,0.0,0.0,0.0,0.0,0.0,0.0,0.0,0.0,0.0,0.0,0.0,-5.1257,-5.2615,-5.3841,-5.505,-5.514,-5.4387,-5.2726,-5.1288,-4.9444,0.0,0.0,0.0,0.0,0.0,0.0,0.0,0.0,0.0,0.0,0.0,0.0,0.0,0.0,0.0,0.0,0.0,0.0,0.0,0.0,0.0,0.0,0.0,0.0,0.0,0.0,0.0,0.0,0.0,0.0,0.0,0.0,0.0,0.0,0.0,0.0,0.0,0.0,0.0,0.0,0.0,-4.5022,-4.6916,-4.6865,-4.6497,0.0,0.0,-4.5816,-4.5148,-4.4985,0.0,0.0,0.0,0.0,0.0,0.0,0.0,0.0,0.0,0.0,0.0,0.0,0.0,0.0,0.0,0.0,0.0,0.0,0.0,0.0,0.0,0.0,0.0,0.0,0.0,0.0,0.0,0.0,0.0,0.0,0.0,0.0,0.0,0.0,0.0,0.0,0.0,0.0,0.0,0.0,0.0,0.0,0.0,0.0,0.0,0.0,0.0,0.0,0.0,0.0,0.0,0.0,0.0,0.0,0.0,-4.657,-5.0285,-5.1353,-5.245,-5.3675,-5.3733,-5.346,-5.2914,-5.1152,-4.923,0.0,0.0,0.0,0.0,0.0,0.0,0.0,0.0,0.0,0.0,0.0,0.0,0.0,0.0,0.0,0.0,0.0,0.0,0.0,0.0,0.0,0.0,0.0,0.0,0.0,0.0,0.0,0.0,0.0,0.0,0.0,0.0,0.0,0.0,0.0,0.0,0.0,0.0,0.0,0.0,0.0,0.0,-4.5705,-4.5933,0.0,0.0,0.0,-4.5722,-4.5376,0.0,0.0,0.0,0.0,0.0,0.0,0.0,0.0,0.0,0.0,0.0,0.0,0.0,0.0,0.0,0.0,0.0,0.0,0.0,0.0,0.0,0.0,0.0,0.0,0.0,0.0,0.0,0.0,0.0,0.0,0.0,0.0,0.0,0.0,0.0,0.0,0.0,0.0,0.0,0.0,0.0,0.0,0.0,0.0,0.0,0.0,0.0,0.0,0.0,0.0,0.0,0.0,0.0,0.0,0.0,0.0,0.0,-4.9401,-5.0327,-5.1423,-5.2623,-5.268,-5.2787,-5.2947,-5.1173,0.0,0.0,0.0,0.0,0.0,0.0,0.0,0.0,0.0,0.0,0.0,0.0,0.0,0.0,0.0,0.0,0.0,0.0,0.0,0.0,0.0,0.0,0.0,0.0,0.0,0.0,0.0,-3.0364,0.0,0.0,0.0,0.0,0.0,0.0,0.0,0.0,0.0,0.0,0.0,0.0,0.0,0.0,-4.3241,-4.446,-4.4973,-4.5112,0.0,0.0,-4.512,-4.4878,-4.496,-4.4591,0.0,0.0,0.0,0.0,0.0,0.0,0.0,0.0,0.0,0.0,0.0,0.0,0.0,0.0,0.0,0.0,0.0,0.0,0.0,0.0,0.0,0.0,0.0,0.0,0.0,0.0,0.0,0.0,0.0,0.0,0.0,0.0,0.0,0.0,0.0,0.0,0.0,0.0,0.0,0.0,0.0,0.0,0.0,0.0,0.0,0.0,0.0,0.0,0.0,0.0,0.0,0.0,0.0,0.0,0.0,-4.9052,-5.0223,-5.1423,-5.2623,-5.268,-5.268,-5.2705,-5.1463,-4.9867,0.0,0.0,0.0,0.0,0.0,0.0,0.0,0.0,0.0,0.0,0.0,0.0,0.0,0.0,0.0,0.0,0.0,0.0,0.0,0.0,0.0,0.0,0.0,0.0,0.0,0.0,0.0,0.0,0.0,0.0,0.0,0.0,0.0,0.0,0.0,0.0,0.0,0.0,0.0,0.0,0.0,-4.2276,-4.3579,-4.4487,-4.4861,0.0,0.0,-4.4071,-4.3201,-4.3324,-4.3204,-4.2073,0.0,0.0,0.0,0.0,0.0,0.0,0.0,0.0,0.0,0.0,0.0,0.0,0.0,0.0,0.0,0.0,0.0,0.0,0.0,0.0,0.0,0.0,0.0,0.0,0.0,0.0,0.0,0.0,0.0,0.0,0.0,0.0,0.0,0.0,0.0,0.0,0.0,0.0,0.0,0.0,0.0,0.0,0.0,0.0,0.0,0.0,0.0,0.0,0.0,0.0,0.0,0.0,0.0,-4.6087,-4.8571,-5.0113,-5.1265,-5.2139,-5.2167,-5.225,-5.2411,-5.1089,-4.9441,0.0,0.0,0.0,0.0,0.0,0.0,0.0,0.0,0.0,0.0,0.0,0.0,0.0,0.0,0.0,0.0,0.0,0.0,0.0,0.0,0.0,0.0,0.0,0.0,0.0,0.0,0.0,0.0,-3.2459,-3.2857,-3.3053,0.0,0.0,0.0,0.0,0.0,0.0,0.0,0.0,0.0,0.0,-4.1845,-4.2852,-4.3234,0.0,0.0,-4.3763,-4.3899,-4.323,-4.3531,-4.3453,-4.2373,-4.1529,0.0,0.0,0.0,0.0,0.0,0.0,0.0,0.0,0.0,0.0,0.0,0.0,0.0,0.0,0.0,0.0,0.0,0.0,0.0,0.0,0.0,0.0,0.0,0.0,0.0,0.0,0.0,0.0,0.0,0.0,0.0,0.0,0.0,0.0,0.0,0.0,0.0,0.0,0.0,0.0,0.0,0.0,0.0,0.0,0.0,0.0,0.0,0.0,0.0,0.0,0.0,0.0,-4.5388,-4.7479,-4.8873,-4.9886,-5.0684,-5.1155,-5.1488,-5.1654,-5.0906,-4.9611,0.0,0.0,0.0,0.0,0.0,0.0,0.0,0.0,0.0,0.0,0.0,0.0,0.0,0.0,0.0,0.0,0.0,0.0,0.0,0.0,0.0,0.0,0.0,0.0,0.0,0.0,0.0,0.0,-3.2547,-3.2846,-3.3074,0.0,0.0,0.0,0.0,0.0,0.0,0.0,0.0,0.0,0.0,-4.1458,-4.1992,-4.2325,-4.2414,-4.2193,-4.2583,-4.2761,-4.2354,-4.2466,-4.2378,-4.1729,0.0,0.0,0.0,0.0,0.0,0.0,0.0,0.0,0.0,0.0,0.0,0.0,0.0,0.0,0.0,0.0,0.0,0.0,0.0,0.0,0.0,0.0,0.0,0.0,0.0,0.0,0.0,0.0,0.0,0.0,-3.9235,0.0,0.0,0.0,0.0,0.0,0.0,0.0,0.0,0.0,0.0,0.0,0.0,0.0,0.0,0.0,0.0,0.0,0.0,0.0,0.0,0.0,0.0,-4.3602,-4.5551,-4.6308,-4.714,-4.8242,-4.9663,-5.0394,-5.0451,-5.1281,-5.0453,-4.7748,0.0,0.0,0.0,0.0,0.0,0.0,0.0,0.0,0.0,0.0,0.0,0.0,0.0,0.0,0.0,0.0,0.0,0.0,0.0,0.0,0.0,0.0,0.0,0.0,0.0,0.0,-3.2002,-3.2768,-3.3179,0.0,0.0,0.0,0.0,0.0,0.0,0.0,0.0,0.0,0.0,-4.0171,-4.102,-4.1139,-4.1866,-4.2127,-4.1438,-4.0893,-4.038,-4.0113,-3.9661,-3.9388,0.0,0.0,0.0,0.0,0.0,0.0,0.0,0.0,0.0,0.0,0.0,0.0,0.0,0.0,0.0,0.0,0.0,0.0,0.0,0.0,0.0,0.0,0.0,0.0,0.0,0.0,0.0,-3.9867,-3.9542,0.0,0.0,0.0,0.0,0.0,0.0,0.0,0.0,0.0,0.0,0.0,-3.8524,-3.8458,0.0,0.0,0.0,0.0,0.0,0.0,0.0,0.0,0.0,0.0,0.0,0.0,-4.3809,-4.5234,-4.642,-4.7367,-4.8068,-4.8653,-4.8848,-4.8848,-4.8964,-4.7707,-4.4973,0.0,0.0,0.0,0.0,0.0,0.0,0.0,0.0,0.0,0.0,0.0,0.0,0.0,0.0,0.0,0.0,0.0,0.0,0.0,0.0,0.0,0.0,0.0,0.0,0.0,-3.1724,0.0,0.0,0.0,0.0,0.0,0.0,0.0,0.0,0.0,0.0,0.0,-3.7268,-3.76,-3.9248,-4.0618,-4.1134,-4.1486,-4.1572,0.0,0.0,0.0,0.0,0.0,0.0,0.0,0.0,0.0,0.0,0.0,0.0,0.0,0.0,-3.7902,-3.657,-3.6355,-3.6355,-3.6355,0.0,0.0,0.0,0.0,0.0,0.0,0.0,0.0,0.0,0.0,0.0,0.0,0.0,0.0,-3.9607,0.0,-3.9169,0.0,0.0,0.0,0.0,0.0,0.0,0.0,0.0,-3.9221,-3.9256,-3.9117,-3.9311,-3.917,0.0,-3.8665,-3.8573,0.0,0.0,0.0,0.0,0.0,0.0,0.0,0.0,-4.3036,-4.3952,-4.5037,-4.5919,-4.6475,-4.6976,-4.7257,-4.7257,-4.6874,-4.554,-4.3128,-4.0478,-3.8348,0.0,0.0,0.0,0.0,0.0,0.0,0.0,0.0,0.0,0.0,0.0,0.0,0.0,0.0,0.0,0.0,0.0,0.0,0.0,0.0,0.0,0.0,0.0,-3.119,0.0,0.0,0.0,0.0,0.0,0.0,0.0,0.0,0.0,-3.4557,-3.5976,-3.7018,-3.7237,-3.8904,-4.0285,-4.0626,0.0,0.0,0.0,0.0,0.0,0.0,0.0,-3.9917,-3.9992,-4.0225,-4.0256,-3.9825,-3.9353,-3.903,-3.8875,0.0,0.0,-3.715,-3.6896,-3.6854,-3.656,-3.6456,-3.658,-3.6891,-3.7548,-3.8282,0.0,0.0,0.0,0.0,0.0,0.0,0.0,0.0,-4.024,-3.9805,0.0,-3.8545,0.0,0.0,0.0,0.0,0.0,-3.8637,0.0,0.0,-3.9762,-3.9813,-3.9423,-4.0318,-4.0295,-3.9423,-3.9813,-4.0103,-4.0034,-3.8966,0.0,0.0,0.0,0.0,0.0,0.0,-4.1281,-4.1858,-4.2353,-4.2785,-4.3365,-4.4842,-4.5608,-4.5646,-4.5097,-4.4074,-4.2448,-4.0704,-3.9163,-3.7885,-3.651,0.0,0.0,0.0,0.0,0.0,0.0,0.0,0.0,0.0,0.0,0.0,0.0,0.0,0.0,0.0,0.0,0.0,0.0,0.0,0.0,-2.998,0.0,0.0,0.0,0.0,0.0,0.0,0.0,0.0,0.0,0.0,-3.4615,-3.5401,-3.636,-3.7468,0.0,0.0,0.0,0.0,-3.9982,-3.9208,-3.8367,-3.7897,-3.7949,-3.8184,-3.8487,-3.8815,0.0,0.0,-3.944,-3.9163,-3.8815,-3.8467,-3.8467,-3.834,-3.8103,-3.7963,-3.7752,-3.7011,-3.6885,-3.6972,-3.7209,-3.7656,-3.8082,-4.3319,0.0,0.0,0.0,0.0,-4.103,-4.0886,-4.0975,-4.0531,-4.0006,-3.9406,-3.9533,0.0,0.0,0.0,0.0,0.0,0.0,-3.8873,-3.9242,-3.9931,-4.0136,-3.9882,-4.0258,-4.0395,-4.0387,-4.0158,-4.031,-4.0571,-4.0458,-4.0125,-3.9482,0.0,0.0,0.0,0.0,-4.1041,-4.1821,-4.223,-4.2723,-4.3302,-4.3781,-4.3954,-4.3977,-4.3269,-4.2796,-4.2468,-4.0898,-3.9538,-3.8602,-3.7462,0.0,0.0,0.0,0.0,0.0,0.0,0.0,0.0,0.0,0.0,0.0,0.0,0.0,0.0,0.0,0.0,0.0,0.0,0.0,-2.9696,-3.0185,-3.0626,0.0,0.0,0.0,0.0,0.0,0.0,0.0,0.0,0.0,-3.3634,-3.4827,-3.574,0.0,0.0,-3.7936,-3.8774,-3.8767,-3.8555,-3.8336,-3.7811,0.0,-3.7544,-3.7547,-3.7639,-3.7788,-3.7803,-3.7566,-3.7131,-3.7731,-3.8184,-3.8039,-3.8779,-3.9182,-3.8815,-3.8478,-3.8234,-3.7976,-3.7955,-3.7955,-3.8072,-3.8662,-3.9294,-4.5053,-4.445,-4.2528,-4.2035,-4.2355,-4.1571,-4.1407,-4.1564,-4.107,-4.0586,-4.013,-4.0036,-3.9604,-3.8907,-3.872,0.0,0.0,0.0,-3.9154,-3.9451,-4.0211,-4.0591,-4.0525,-4.092,-4.1119,-4.1099,-4.08,-4.08,-4.1122,-4.0954,-4.0755,-4.0518,0.0,0.0,-4.025,-4.0713,-4.1167,-4.1676,-4.2164,-4.2583,-4.2886,-4.2886,-4.2886,-4.2886,-4.2332,-4.1953,-4.1932,-4.0838,-3.9893,-3.9032,-3.8,-3.6728,0.0,0.0,0.0,0.0,0.0,0.0,0.0,0.0,0.0,0.0,0.0,-3.0064,-3.0218,0.0,0.0,0.0,-2.9699,-2.9651,-2.9506,-3.0052,0.0,0.0,0.0,0.0,0.0,0.0,0.0,-3.2236,-3.2521,-3.2733,-3.2733,-3.367,-3.4515,-3.5043,-3.5742,-3.6587,-3.7511,0.0,-3.7236,-3.7089,-3.668,-3.6394,-3.6382,-3.6547,-3.6622,-3.6831,-3.6831,-3.6534,-3.6034,-3.6645,-3.7091,-3.696,-3.7712,-3.8457,-3.8203,-3.8327,-3.8385,-3.8227,-3.8147,-3.8147,-3.8147,-3.8615,-3.9081,-4.6601,-4.6429,-4.3488,-4.2668,-4.3136,-4.2138,-4.1935,-4.2363,-4.1804,-4.1445,-4.1289,-4.03,-3.9682,-3.9331,-3.8895,0.0,-3.8688,-3.9331,-3.9643,-3.9628,-4.0626,-4.1057,-4.1057,-4.1787,-4.1914,-4.1496,-4.1496,-4.1519,-4.1542,-4.0773,-4.061,-4.1125,-4.123,-4.1076,-4.0785,-4.1244,-4.1519,-4.1565,-4.2046,-4.2212,-4.2212,-4.2257,-4.2257,-4.2212,-4.1934,-4.1538,-4.1108,-4.0725,-4.0128,-3.9187,-3.8414,-3.7626,-3.6675,0.0,0.0,0.0,0.0,0.0,0.0,0.0,0.0,0.0,0.0,0.0,0.0,0.0,0.0,0.0,-2.9975,0.0,-2.9336,-2.9712,0.0,0.0,0.0,-3.0847,-3.0524,-3.1062,-3.149,-3.1564,0.0,0.0,-3.2083,-3.238,-3.3069,-3.4115,-3.4967,-3.553,-3.5978,-3.5978,-3.5829,-3.551,-3.5094,-3.4803,-3.488,-3.5187,-3.5427,-3.5656,-3.6119,-3.5984,-3.5339,-3.5539,-3.5571,-3.5131,-3.5903,-3.6682,-3.6627,-3.7547,-3.832,-3.7771,-3.7845,-3.7916,-3.7955,-3.7955,-3.8116,-4.7119,-4.6836,-4.5681,-4.5046,-4.4737,-4.3568,-4.3168,-4.3198,-4.2435,-4.19,-4.1499,-4.1268,-4.0655,-3.9859,-3.9528,-3.9277,-3.917,-3.9708,-3.9825,-3.9651,-4.0355,-4.0478,-4.0163,-4.0446,-4.0602,-4.072,-4.0783,-4.1009,-4.1369,-4.1129,-4.1129,-4.1242,-4.1002,-4.0639,-4.0068,-4.0495,-4.0986,-4.1392,-4.1505,-4.1572,-4.1572,-4.1868,-4.1891,-4.1572,-4.1508,-4.1377,-4.1264,-4.1136,-4.0539,-3.9415,-3.9175,-3.8187,-3.6383,-3.5255,0.0,0.0,0.0,0.0,0.0,0.0,0.0,0.0,0.0,-3.051,-3.074,0.0,-3.0983,0.0,-3.0001,-2.9631,-2.9309,-2.9874,0.0,0.0,-3.0662,-3.1042,-3.1234,-3.1383,-3.157,-3.1869,-3.2184,-3.2362,-3.2345,-3.267,-3.2976,-3.3351,-3.355,-3.3878,-3.4331,-3.4105,-3.3981,-3.412,-3.4108,-3.3971,-3.4032,-3.4032,-3.3976,-3.3436,-3.3453,-3.3315,-3.2862,-3.3449,-3.3915,-3.3992,-3.4825,-3.5324,-3.5456,-3.6405,-3.7087,-3.7118,-3.7735,-3.8426,-3.8406,-3.8406,-3.8406,-4.7165,-4.6941,-4.6323,-4.5908,-4.5512,-4.4355,-4.3741,-4.3543,-4.2864,-4.2305,-4.1903,-4.1548,-4.1074,-4.0525,-3.9848,-3.9681,-3.9733,-3.9909,-3.9975,-4.0017,-4.0446,-4.0479,-4.0234,-3.9968,-4.0228,-4.0804,-4.0356,-4.0576,-4.1229,-4.1164,-4.11,-4.1035,-4.0257,-3.965,-3.9365,-3.984,-4.036,-4.0864,-4.1193,-4.1434,-4.1586,-4.1418,-4.1198,-4.1057,-4.0453,-4.0236,-4.0582,-4.0453,-3.9885,-3.8755,-3.8564,-3.7773,-3.6185,-3.4984,-3.3878,0.0,0.0,0.0,0.0,0.0,0.0,0.0,0.0,0.0,0.0,0.0,-3.0796,-3.0225,-3.0235,-3.0289,-3.0025,-3.0519,-3.0848,-3.0631,-3.0958,-3.1178,-3.1225,-3.134,-3.1538,-3.1928,-3.2146,-3.228,-3.2424,-3.2617,-3.2745,-3.2745,-3.2784,-3.3067,-3.3624,-3.3563,-3.3476,-3.3676,-3.371,-3.3624,-3.3385,-3.3385,-3.3175,-3.2615,-3.2585,-3.257,-3.2252,-3.266,-3.3113,-3.3191,-3.3838,-3.444,-3.4498,-3.5246,-3.5959,-3.5867,-3.6238,-3.7144,-3.8355,-3.8574,-3.8574,-4.6898,-4.6764,-4.616,-4.589,-4.5773,-4.4594,-4.3898,-4.3571,-4.3015,-4.2529,-4.2166,-4.1438,-4.1103,-4.0921,-4.0066,-3.9885,-4.0218,-4.0045,-4.015,-4.0427,-4.0533,-4.0582,-4.0517,-3.9713,-3.9844,-4.0712,-3.9779,-3.9844,-4.0712,-4.0431,-4.0301,-4.0236,-3.9057,-3.8416,-3.8416,-3.8925,-3.9428,-3.9974,-4.0868,-4.1463,-4.1551,-4.0756,-4.0319,-4.0432,-3.921,-3.8838,-3.9364,-3.9188,-3.8675,-3.7763,-3.7381,-3.675,-3.5749,-3.4506,-3.3501,0.0,-3.1626,0.0,0.0,0.0,0.0,0.0,0.0,0.0,0.0,-3.0189,-2.9993,-2.9921,-3.0634,-3.0956,-3.0834,-3.1195,-3.135,-3.0947,-3.1179,-3.1329,-3.1074,-3.1268,-3.1601,-3.1935,-3.2015,-3.2173,-3.2428,-3.2507,-3.2555,-3.2587,-3.2666,-3.2953,-3.3509,-3.3585,-3.3424,-3.3602,-3.3595,-3.3516,-3.3193,-3.3112,-3.2985,-3.2602,-3.2778,-3.2841,-3.2539,-3.2666,-3.2857,-3.2682,-3.3054,-3.3448,-3.3448,-3.4128,-3.4493,-3.4249,-3.4331,-3.5271,-3.7438,-3.8117,-3.8355,-4.663,-4.6092,-4.5957,-4.5754,-4.5391,-4.4351,-4.3802,-4.3667,-4.2793,-4.2189,-4.187,-4.146,-4.0964,-4.0428,-4.036,-4.013,-3.9787,-4.0519,-4.0612,-4.0069,-3.9671,-3.9386,-3.9057,-3.7996,-3.7642,-3.7796,-3.7575,-3.7575,-3.7796,-3.7709,-3.7709,-3.7709,-3.7193,-3.6924,-3.6856,0.0,0.0,0.0,-3.9708,-4.0166,-3.9461,-3.9556,-3.9348,-3.8688,-3.8382,0.0,-3.8042,-3.8196,-3.7947,-3.7102,-3.6712,0.0,0.0,0.0,0.0,0.0,0.0,0.0,0.0,0.0,0.0,0.0,-3.0136,-3.0186,-3.004,-3.0468,-3.0749,-3.0673,-3.1095,-3.1076,-3.0489,-3.1033,-3.1305,-3.0974,-3.1153,-3.1472,-3.1681,-3.1776,-3.1951,-3.2285,-3.2571,-3.2777,-3.2857,-3.3095,-3.327,-3.3238,-3.327,-3.3367,-3.3514,-3.3114,-3.2794,-3.305,-3.3386,-3.3447,-3.3381,-3.3381,-3.3238,-3.3049,-3.2888,-3.2936,-3.2873,-3.265,-3.2666,-3.2777,-3.2475,-3.2158,-3.2158,-3.2563,-3.2923,-3.2752,-3.3271,-3.4429,-3.6238,-3.6627,-3.707,-4.6227,0.0,-4.5686,-4.5551,0.0,-4.4245,-4.3808,-4.3739,-4.2775,-4.2212,-4.1998,-4.1678,-4.132,-4.0972,-4.0342,-3.9892,-3.967,-3.9406,-3.9131,-3.8761,-3.8336,-3.7975,-3.7796,-3.6722,-3.6499,-3.6991,-3.6431,-3.6499,-3.6991,-3.6991,-3.6991,-3.6991,-3.6316,-3.5957,-3.5908,-3.5318,-3.5762,-3.7401,-3.8477,-3.9,-3.8919,-3.8638,-3.8177,-3.7674,-3.7092,0.0,0.0,0.0,0.0,0.0,0.0,0.0,0.0,0.0,0.0,-3.1684,-3.1238,-3.0783,-3.0463,-3.0221,-3.0043,-2.9916,-2.9991,-3.0202,-3.033,-3.0583,-3.072,-3.0868,-3.1077,-3.1097,-3.0871,-3.1172,-3.1315,-3.1157,-3.1284,-3.1538,-3.184,-3.1919,-3.2126,-3.2587,-3.2841,-3.3096,-3.319,-3.3365,-3.3476,-3.3492,-3.3492,-3.3492,-3.346,-3.319,-3.3031,-3.319,-3.3349,-3.3476,-3.3492,-3.3476,-3.3444,-3.3254,-3.3222,-3.3141,-3.2978,-3.2739,-3.2595,-3.2589,-3.2127,-3.1718,-3.1703,-3.1744,-3.1606,-3.1355,-3.1573,-3.2292,-3.3575,-3.4429,-3.5178,-4.589,-4.5822,-4.5483,-4.5438,-4.5346,-4.4245,-4.3716,-4.3487,0.0,0.0,0.0,-4.1934,-4.1738,-4.1583,-4.0162,-3.9541,-3.9476,-3.8068,-3.7472,-3.7441,-3.7004,-3.6754,-3.6706,-3.5664,-3.5664,-3.6346,-3.5538,-3.5568,-3.6384,-3.6451,-3.6431,-3.6384,-3.5568,-3.5089,-3.4971,-3.439,-3.4919,-3.6496,-3.7144,-3.7642,-3.813,-3.7383,-3.6855,-3.6552,-3.5642,-3.5313,-3.5587,-3.5636,-3.5259,-3.4564,-3.3871,-3.3115,-3.2329,-3.1684,-3.1203,-3.0941,-3.092,-3.0772,-3.0436,-3.0313,-3.0232,-3.0017,-3.0025,-3.0271,-3.0856,-3.0575,-3.0553,-3.0934,-3.095,-3.1077,-3.1363,-3.1395,-3.1427,-3.1474,-3.149,-3.1649,-3.203,-3.211,-3.238,-3.292,-3.3144,-3.324,-3.3429,-3.3476,-3.3492,-3.3492,-3.3492,-3.3492,-3.3492,-3.346,-3.3429,-3.3444,-3.3476,-3.3492,-3.3492,-3.3492,-3.3476,-3.3296,-3.3296,-3.323,-3.2819,-3.2654,-3.2587,-3.2309,-3.1848,-3.1614,-3.1553,-3.131,-3.0751,-3.0161,-3.0072,-3.0175,-3.0996,-3.2074,-3.3078,-4.5754,-4.5506,-4.5415,-4.5438,-4.5346,-4.4245,-4.3326,-4.2482,-4.2321,-4.2125,-4.187,-4.1806,-4.1556,-4.1153,-4.0103,-3.9412,-3.8959,-3.7992,-3.738,-3.7079,-3.6416,-3.597,-3.5623,-3.4855,-3.4452,-3.4275,-3.4103,-3.4075,-3.4214,-3.4283,-3.4214,-3.4283,-3.4075,-3.3886,-3.3608,-3.3175,-3.3249,-3.3839,-3.5174,-3.5665,-3.5154,-3.5279,-3.5005,-3.4351,-3.4143,-3.408,-3.4094,-3.4163,-3.4038,-3.3909,-3.3148,-3.2435,-3.1731,-3.1331,-3.0992,-3.0961,-3.0684,-3.0453,-3.0397,-3.0146,-3.0065,-3.0255,-3.0505,-3.0819,-3.0851,-3.0867,-3.0934,-3.1268,-3.13,-3.1331,-3.1395,-3.1395,-3.1506,-3.1792,-3.184,-3.2094,-3.2682,-3.2761,-3.292,-3.3333,-3.3413,-3.3397,-3.346,-3.3492,-3.3492,-3.3492,-3.354,-3.3508,-3.3442,-3.3492,-3.3492,-3.3492,-3.3492,-3.3492,-3.3394,-3.3476,-3.3312,-3.2999,-3.2901,-3.2819,-3.2339,-3.2257,-3.2257,-3.2174,-3.1768,-3.1557,-3.146,-3.0989,-3.0602,-3.0307,-3.0115,-3.0085,-3.0221,-3.0329,-3.0918,-4.5551,-4.5438,-4.5438,-4.5438,-4.5346,-4.4245,-4.3418,-4.2729,-4.2454,-4.2212,-4.2061,-4.2061,-4.1947,-4.1575,-3.9931,-3.8908,-3.8369,-3.6909,-3.5984,-3.559,-3.5238,-3.5018,-3.4805,-3.4305,-3.3947,-3.3858,-3.3836,-3.3778,-3.383,-3.3787,-3.3817,-3.3817,-3.3608,-3.333,-3.2999,-3.2789,-3.272,-3.2667,-3.3732,-3.4252,-3.4216,-3.4342,-3.4162,-3.3571,-3.3516,-3.3407,-3.3209,-3.3191,-3.3083,-3.2867,-3.2343,-3.1804,-3.1269,-3.1081,-3.0892,-3.0717,-3.0693,-3.0626,-3.0418,-3.0252,-3.0281,-3.0569,-3.0759,-3.095,-3.1141,-3.1157,-3.122,-3.1379,-3.1395,-3.1395,-3.1395,-3.1395,-3.1538,-3.1887,-3.1919,-3.2205,-3.2809,-3.2952,-3.3176,-3.3413,-3.3492,-3.3492,-3.3492,-3.3492,-3.3572,-3.3715,-3.3762,-3.3597,-3.3167,-3.3265,-3.3285,-3.3195,-3.3328,-3.323,-3.2917,-3.323,-3.3164,-3.2587,-3.2654,-3.2489,-3.1994,-3.1828,-3.1745,-3.1497,-3.1233,-3.115,-3.115,-3.0881,-3.0554,-3.0431,-3.0343,-3.0167,-2.991,-2.9734,-3.0329,-4.5438,-4.5438,-4.5438,-4.5369,-4.5094,-4.4199,-4.3533,-4.3051,-4.2545,-4.2275,-4.2275,-4.2275,-4.2275,-4.2084,-3.9866,-3.8552,-3.7863,-3.6131,-3.4967,-3.4458,-3.4486,-3.4504,-3.4359,-3.4069,-3.3923,-3.3797,-3.3786,-3.3837,-3.3783,-3.379,-3.3747,-3.3678,-3.326,-3.2841,-3.2561,-3.2491,-3.2281,-3.207,-3.2561,-3.3073,-3.3355,-3.3443,-3.3319,-3.2967,-3.2932,-3.2791,-3.2579,-3.2491,-3.235,-3.212,-3.1756,-3.1409,-3.1166,-3.1116,-3.0922,-3.059,-3.0771,-3.0662,-3.0316,-3.0351,-3.0569,-3.0914,-3.0934,-3.1093,-3.1347,-3.1395,-3.1395,-3.1395,-3.1395,-3.1395,-3.1395,-3.1474,-3.1649,-3.1983,-3.211,-3.2444,-3.2968,-3.3079,-3.3158,-3.3363,-3.3312,-3.3312,-3.3328,-3.3312,-3.3407,-3.3628,-3.3723,-3.3406,-3.2784,-3.2868,-3.2865,-3.2856,-3.3109,-3.3242,-3.2618,-3.3081,-3.3164,-3.2422,-3.2587,-3.2407,-3.1813,-3.1482,-3.1316,-3.0984,-3.0817,-3.0817,-3.0817,-3.0817,-3.0715,-3.0525,-3.0466,-3.0364,-3.0071,-3.0079,-3.0195,-4.5438,-4.5438,-4.5438,-4.5094,-4.4658,-4.4061,-4.3533,-4.3074,-4.2545,-4.2275,-4.2275,-4.2275,-4.2275,-4.2061,-4.0366,-3.9035,-3.8063,-3.6544,-3.5387,-3.4532,-3.4776,-3.4754,-3.446,-3.4313,-3.4165,-3.3856,-3.3803,-3.3821,-3.3767,-3.3809,-3.3678,-3.326,-3.2614,-3.2193,-3.2123,-3.1859,-3.17,-3.163,-3.1735,-3.1769,-3.1821,-3.2076,-3.2076,-3.1769,-3.1752,-3.1876,-3.2123,-3.1841,-3.1824,-3.207,-3.1772,-3.1561,-3.1527,-3.1561,-3.1367,-3.0943,-3.0638,-3.032,-2.9984,-3.0442,-3.0839,-3.0886,-3.1157,-3.1331,-3.1395,-3.1395,-3.1395,-3.1395,-3.1395,-3.1395,-3.1411,-3.1665,-3.1983,-3.2332,-3.2618,-3.3015,-3.3317,-3.3444,-3.3281,-3.2886,-3.2983,-3.2819,-3.2983,-3.3015,-3.2948,-3.2995,-3.3073,-3.2902,-3.2586,-3.2464,-3.235,-3.2305,-3.2784,-3.3213,-3.316,-3.3394,-3.323,-3.2834,-3.2736,-3.2407,-3.1828,-3.1482,-3.1399,-3.1067,-3.0817,-3.0817,-3.0817,-3.0817,-3.0817,-3.0744,-3.07,-3.0671,-3.0393,-3.0305,-3.0388,-4.5438,-4.5438,-4.5438,-4.5232,-4.4956,-4.4153,-4.3693,-4.3441,-4.266,-4.2275,-4.2275,-4.2275,-4.2275,-4.2212,-4.0495,-3.925,-3.8367,-3.6986,-3.5878,-3.5155,-3.5044,-3.4907,-3.4702,-3.4272,-3.3972,-3.3788,-3.3786,-3.3836,-3.3768,-3.3637,-3.3317,-3.2915,-3.2368,-3.219,-3.2357,-3.1853,-3.1662,-3.1885,-3.1679,-3.1559,-3.1576,-3.1713,-3.173,-3.1593,-3.1559,-3.163,-3.1771,-3.163,-3.163,-3.1771,-3.17,-3.1559,-3.1559,-3.1559,-3.1294,-3.0672,-3.0477,-3.0355,-3.0426,-3.0902,-3.1172,-3.1172,-3.13,-3.1395,-3.1395,-3.1395,-3.1395,-3.1395,-3.1395,-3.1474,-3.1681,-3.184,-3.2126,-3.2618,-3.2873,-3.3095,-3.3444,-3.3492,-3.3394,-3.323,-3.323,-3.3246,-3.3262,-3.3419,-3.3187,-3.2763,-3.2726,-3.2828,-3.2029,-3.1954,-3.2197,-3.2254,-3.2462,-3.2442,-3.2499,-3.3066,-3.3081,-3.267,-3.2422,-3.2257,-3.2009,-3.1331,-3.1067,-3.1164,-3.0984,-3.0817,-3.0817,-3.0817,-3.0817,-3.0817,-3.0817,-3.0773,-3.0656,-3.0627,-3.0554,-4.5438,-4.5438,-4.5438,-4.5438,-4.5346,-4.4405,-4.3946,-4.3693,-4.2913,-4.2477,-4.2275,-4.2275,-4.2275,-4.2084,-4.0755,-3.9621,-3.8656,-3.754,-3.6485,-3.5632,-3.5202,-3.5007,-3.4932,-3.4197,-3.3837,-3.3785,-3.3799,-3.3786,-3.3782,-3.3483,-3.318,-3.2857,-3.2505,-3.2429,-3.2625,-3.2022,-3.185,-3.2073,-3.1765,-3.1559,-3.1559,-3.1559,-3.1559,-3.1559,-3.1559,-3.1559,-3.1559,-3.1559,-3.1559,-3.1559,-3.1559,-3.1559,-3.1559,-3.1559,-3.1257,-3.064,-3.0518,-3.0569,-3.093,-3.1188,-3.1395,-3.1395,-3.1395,-3.1395,-3.1395,-3.1395,-3.1395,-3.1395,-3.1474,-3.1665,-3.1872,-3.2094,-3.2444,-3.2888,-3.3015,-3.3222,-3.3444,-3.3492,-3.341,-3.3312,-3.323,-3.3328,-3.336,-3.3518,-3.34,-3.2649,-3.2705,-3.2754,-3.1777,-3.1663,-3.1762,-3.2104,-3.1965,-3.1939,-3.1986,-3.2607,-3.2907,-3.2628,-3.241,-3.2508,-3.2281,-3.1503,-3.1086,-3.1312,-3.1057,-3.0832,-3.0817,-3.0817,-3.0817,-3.0817,-3.0817,-3.0817,-3.0788,-3.0803,-3.0817,-4.5438,-4.5438,-4.5438,-4.5438,-4.5392,-4.4773,-4.4267,-4.3831,-4.3257,-4.2775,-4.2344,-4.2275,-4.2275,-4.2212,-4.1357,-4.0301,-3.8812,-3.8304,-3.7216,-3.5742,-3.5202,-3.5007,-3.4932,-3.4197,-3.3837,-3.382,-3.3794,-3.3765,-3.3762,-3.3474,-3.3256,-3.3256,-3.2822,-3.2711,-3.2689,-3.233,-3.2107,-3.2124,-3.1799,-3.1576,-3.1559,-3.1559,-3.1576,-3.1593,-3.1559,-3.1559,-3.1559,-3.1559,-3.1559,-3.1559,-3.1559,-3.163,-3.1576,-3.1593,-3.1409,-3.1059,-3.0888,-3.0839,-3.0918,-3.1204,-3.1395,-3.1395,-3.1395,-3.1395,-3.1395,-3.1395,-3.1395,-3.1395,-3.1697,-3.1919,-3.1999,-3.2459,-3.2841,-3.2984,-3.327,-3.3429,-3.3476,-3.3492,-3.3312,-3.2983,-3.2983,-3.2983,-3.2917,-3.3246,-3.3293,-3.2752,-3.2453,-3.2145,-3.184,-3.1288,-3.1179,-3.141,-3.1603,-3.1888,-3.2738,-3.2747,-3.2609,-3.2541,-3.2578,-3.2853,-3.2442,-3.1948,-3.1712,-3.1446,-3.1076,-3.0905,-3.0846,-3.0817,-3.0817,-3.0817,-3.0817,-3.0817,-3.0817,-3.0817,-3.0817,-4.5438,-4.5438,-4.5438,-4.5438,-4.5369,-4.4819,-4.4497,-4.4245,-4.3441,-4.3005,-4.2775,-4.2477,-4.2275,-4.2189,-4.0906,-3.9858,-3.9117,-3.8771,-3.7688,-3.6018,-3.5327,-3.5007,-3.4932,-3.4197,-3.3837,-3.382,-3.3833,-3.3667,-3.3509,-3.3357,-3.3284,-3.3202,-3.2865,-3.2912,-3.322,-3.2792,-3.2484,-3.245,-3.2124,-3.1816,-3.1611,-3.1559,-3.1679,-3.1902,-3.1696,-3.1559,-3.1559,-3.1559,-3.1559,-3.1559,-3.1559,-3.1679,-3.1847,-3.1654,-3.1593,-3.1573,-3.1163,-3.1042,-3.1172,-3.1315,-3.1395,-3.1395,-3.1395,-3.1395,-3.1395,-3.1395,-3.1395,-3.1474,-3.1919,-3.2205,-3.2316,-3.2682,-3.3047,-3.327,-3.3397,-3.3492,-3.3492,-3.3476,-3.3394,-3.3312,-3.323,-3.3246,-3.3246,-3.341,-3.323,-3.2587,-3.2257,-3.1919,-3.1411,-3.1135,-3.1227,-3.1476,-3.1543,-3.1612,-3.2434,-3.2432,-3.2373,-3.2396,-3.2442,-3.2457,-3.2175,-3.1846,-3.1539,-3.1559,-3.1204,-3.0993,-3.0934,-3.0876,-3.0861,-3.0832,-3.0832,-3.089,-3.0817,-3.0734,-3.0734,-4.5438,-4.5438,-4.5438,-4.5438,-4.5392,-4.5002,-4.475,-4.4543,-4.3877,-4.3487,-4.3257,-4.2798,-4.2596,-4.2431,-4.1195,-4.0091,-3.9302,-3.8496,-3.7429,-3.6164,-3.5381,-3.5007,-3.4857,-3.4215,-3.3837,-3.3837,-3.3837,-3.3683,-3.346,-3.3426,-3.3443,-3.3426,-3.3169,-3.3306,-3.3648,-3.3186,-3.2878,-3.2809,-3.2501,-3.2176,-3.1953,-3.1919,-3.2039,-3.2227,-3.2056,-3.1867,-3.1748,-3.1628,-3.1559,-3.1576,-3.1679,-3.1919,-3.2223,-3.194,-3.1721,-3.1893,-3.1437,-3.1141,-3.1347,-3.1395,-3.1395,-3.1395,-3.1395,-3.1395,-3.1395,-3.1395,-3.1395,-3.1522,-3.1999,-3.2412,-3.2507,-3.2841,-3.3222,-3.3444,-3.3492,-3.3492,-3.3492,-3.3492,-3.3492,-3.3476,-3.3476,-3.3492,-3.3508,-3.3439,-3.3093,-3.2453,-3.2327,-3.1948,-3.1386,-3.1238,-3.1373,-3.1563,-3.1315,-3.1359,-3.1852,-3.1866,-3.1999,-3.2035,-3.2453,-3.2378,-3.2149,-3.18,-3.1572,-3.1564,-3.1376,-3.1164,-3.1022,-3.0949,-3.0905,-3.0861,-3.0949,-3.1037,-3.0865,-3.0665,-3.0582,-4.5438,-4.5438,-4.5438,-4.5438,-4.5415,-4.5392,-4.5048,-4.4681,-4.4566,-4.4222,-4.3785,-4.3303,-4.3108,-4.3054,-4.232,-4.1236,-3.938,-3.7744,-3.6679,-3.6164,-3.5381,-3.5007,-3.4932,-3.4197,-3.3837,-3.3837,-3.3837,-3.3837,-3.3785,-3.3734,-3.3751,-3.3802,-3.3768,-3.3734,-3.3761,-3.346,-3.3254,-3.3152,-3.2844,-3.2655,-3.2672,-3.2587,-3.2604,-3.2689,-3.2638,-3.2467,-3.2176,-3.1816,-3.1662,-3.1679,-3.1953,-3.2313,-3.2599,-3.2308,-3.2001,-3.2008,-3.1646,-3.144,-3.1379,-3.1395,-3.1395,-3.1395,-3.1395,-3.1395,-3.1395,-3.1395,-3.1395,-3.1474,-3.1983,-3.2412,-3.2507,-3.3031,-3.3444,-3.3492,-3.3492,-3.3492,-3.3492,-3.3492,-3.3492,-3.3492,-3.3492,-3.3492,-3.3473,-3.3368,-3.3084,-3.2742,-3.2487,-3.2124,-3.1732,-3.1454,-3.1344,-3.1329,-3.1285,-3.1373,-3.1359,-3.1329,-3.152,-3.1781,-3.2315,-3.2562,-3.233,-3.2102,-3.191,-3.1819,-3.1572,-3.1344,-3.0978,-3.0934,-3.1051,-3.1051,-3.1139,-3.1099,-3.0814,-3.0545,-3.0291,-4.5438,-4.5438,-4.5438,-4.5438,-4.5438,-4.5438,-4.5323,-4.5094,-4.4773,-4.452,-4.429,-4.3808,-4.3474,-4.3036,-4.2127,-4.0882,-3.9393,-3.7896,-3.6799,-3.6201,-3.568,-3.5231,-3.4932,-3.4423,-3.4081,-3.3837,-3.3837,-3.3837,-3.3837,-3.3837,-3.3837,-3.3837,-3.3837,-3.3837,-3.3837,-3.3717,-3.3563,-3.3289,-3.3152,-3.2963,-3.2707,-3.2689,-3.2809,-3.3032,-3.2826,-3.2724,-3.2878,-3.2535,-3.2347,-3.2313,-3.245,-3.2689,-3.2918,-3.2693,-3.2423,-3.2363,-3.1775,-3.1395,-3.1395,-3.1395,-3.1395,-3.1395,-3.1395,-3.1395,-3.1395,-3.1395,-3.1395,-3.1458,-3.1999,-3.2412,-3.2523,-3.3063,-3.346,-3.3492,-3.3492,-3.3492,-3.3492,-3.3492,-3.3492,-3.3492,-3.3492,-3.3492,-3.341,-3.3223,-3.2825,-3.2468,-3.207,-3.1727,-3.1332,-3.1458,-3.1637,-3.1622,-3.152,-3.1373,-3.1417,-3.1461,-3.1578,-3.1783,-3.219,-3.2599,-3.244,-3.2353,-3.2162,-3.1942,-3.1695,-3.1461,-3.1095,-3.1081,-3.1256,-3.1087,-3.1061,-3.0863,-3.0692,-3.0381,-3.0099,-4.5438,-4.5438,-4.5438,-4.5438,-4.5438,-4.5438,-4.5438,-4.5392,-4.5025,-4.4887,-4.475,-4.4107,-4.3773,-4.3444,-4.2325,-4.0933,-3.9587,-3.8576,-3.7502,-3.6331,-3.5754,-3.5381,-3.4932,-3.4423,-3.4064,-3.3837,-3.3837,-3.3837,-3.3837,-3.3837,-3.3837,-3.3837,-3.3837,-3.3837,-3.3837,-3.3837,-3.37,-3.3511,-3.3477,-3.3357,-3.3169,-3.31,-3.322,-3.3409,-3.3237,-3.3254,-3.346,-3.3237,-3.2981,-3.2775,-3.2809,-3.3083,-3.3368,-3.2927,-3.2588,-3.2435,-3.1916,-3.1395,-3.1395,-3.1395,-3.1395,-3.1395,-3.1395,-3.1395,-3.1395,-3.1395,-3.1395,-3.1474,-3.1999,-3.2412,-3.2507,-3.3063,-3.3444,-3.3492,-3.3492,-3.3492,-3.3492,-3.3492,-3.3492,-3.3492,-3.3492,-3.3492,-3.341,-3.3042,-3.2597,-3.2235,-3.1888,-3.1515,-3.1223,-3.1359,-3.1534,-3.1563,-3.1359,-3.1344,-3.1534,-3.1607,-3.1651,-3.1841,-3.2046,-3.2382,-3.2529,-3.2573,-3.2485,-3.2104,-3.1798,-3.1622,-3.1315,-3.1563,-3.1754,-3.1409,-3.0952,-3.0923,-3.0752,-3.0139,-2.984,-4.5392,-4.5438,-4.5438,-4.5438,-4.5438,-4.5438,-4.5438,-4.5438,-4.5392,-4.5278,-4.5048,-4.4405,-4.4094,-4.3961,-4.3152,-4.1714,-4.0004,-3.9582,-3.8205,-3.6627,-3.5829,-3.5456,-3.4932,-3.4197,-3.3837,-3.3837,-3.3837,-3.3837,-3.3837,-3.3837,-3.3837,-3.3837,-3.3837,-3.3837,-3.3837,-3.3837,-3.3837,-3.3785,-3.3802,-3.3785,-3.3693,-3.3785,-3.3785,-3.3802,-3.3768,-3.3676,-3.36,-3.3566,-3.3368,-3.2912,-3.3135,-3.3443,-3.36,-3.3061,-3.2588,-3.2604,-3.184,-3.1472,-3.1395,-3.1395,-3.1395,-3.1395,-3.1395,-3.1395,-3.1395,-3.1395,-3.1395,-3.1427,-3.2015,-3.2412,-3.2523,-3.3063,-3.3429,-3.3492,-3.3492,-3.3492,-3.3492,-3.3492,-3.3492,-3.3492,-3.3492,-3.3492,-3.3492,-3.297,-3.2539,-3.2176,-3.1846,-3.1469,-3.1271,-3.1256,-3.13,-3.1271,-3.1227,-3.1271,-3.1446,-3.1505,-3.1578,-3.1841,-3.2076,-3.2354,-3.2559,-3.2632,-3.2573,-3.2207,-3.1973,-3.1768,-3.161,-3.1713,-3.1642,-3.121,-3.1037,-3.0977,-3.0688,-3.0056,-2.9672,-4.5025,-4.5415,-4.5438,-4.5438,-4.5438,-4.5438,-4.5438,-4.5438,-4.5438,-4.5231,-4.4864,-4.4933,-4.4572,-4.4075,-4.3915,-4.2483,-4.0565,-3.9858,-3.8462,-3.6497,-3.6126,-3.5605,-3.4932,-3.4197,-3.3837,-3.3837,-3.3837,-3.3837,-3.3837,-3.3837,-3.3837,-3.3837,-3.3837,-3.3837,-3.3837,-3.3837,-3.3837,-3.3837,-3.3837,-3.3837,-3.3837,-3.3837,-3.3837,-3.3837,-3.3837,-3.3609,-3.3365,-3.3365,-3.3466,-3.3505,-3.3614,-3.3734,-3.3744,-3.3061,-3.2588,-3.2435,-3.184,-3.1395,-3.1395,-3.1395,-3.1395,-3.1395,-3.1395,-3.1395,-3.1395,-3.1395,-3.1395,-3.1506,-3.1999,-3.2412,-3.2523,-3.3063,-3.3429,-3.3492,-3.3492,-3.3492,-3.3492,-3.3492,-3.3492,-3.3492,-3.3492,-3.3492,-3.3344,-3.2897,-3.2364,-3.2168,-3.1661,-3.1124,-3.1081,-3.1154,-3.1227,-3.1285,-3.1271,-3.1271,-3.1315,-3.1373,-3.152,-3.1798,-3.209,-3.2398,-3.2588,-3.2705,-3.2559,-3.231,-3.2222,-3.199,-3.1657,-3.1498,-3.1179,-3.1017,-3.0783,-3.059,-3.0313,-2.9879,-2.9582,-4.491,-4.5438,-4.5438,-4.5438,-4.5438,-4.5438,-4.5438,-4.5438,-4.5438,-4.5232,-4.5002,-4.4979,-4.4799,-4.4324,-4.4051,-4.2875,-4.1013,-4.0054,-3.87,-3.7162,-3.6275,-3.5605,-3.4932,-3.4348,-3.3988,-3.3837,-3.3837,-3.3837,-3.3837,-3.3837,-3.3837,-3.3837,-3.3837,-3.3837,-3.3837,-3.3837,-3.3837,-3.3837,-3.3837,-3.3837,-3.3837,-3.3837,-3.3837,-3.3761,-3.3668,-3.3365,-3.3044,-3.312,-3.3365,-3.3668,-3.3837,-3.3837,-3.3761,-3.3061,-3.2588,-3.2588,-3.184,-3.1395,-3.1395,-3.1395,-3.1395,-3.1395,-3.1395,-3.1395,-3.1395,-3.1395,-3.1395,-3.1458,-3.203,-3.2332,-3.2523,-3.3063,-3.3429,-3.3492,-3.3492,-3.3492,-3.3492,-3.3492,-3.3492,-3.3492,-3.3492,-3.3492,-3.3492,-3.2819,-3.2422,-3.2091,-3.1594,-3.1209,-3.0959,-3.1022,-3.1124,-3.1139,-3.1168,-3.1154,-3.1315,-3.1432,-3.1724,-3.1988,-3.2237,-3.2529,-3.2602,-3.2734,-3.2617,-3.25,-3.2383,-3.2192,-3.1756,-3.1319,-3.1081,-3.0887,-3.0533,-3.0254,-3.0076,-2.9947,-2.9574,-4.4819,-4.5346,-4.5415,-4.5438,-4.5438,-4.5438,-4.5438,-4.5438,-4.5438,-4.5369,-4.5163,-4.4841,-4.4798,-4.4778,-4.412,-4.3093,-4.1954,-4.0484,-3.8971,-3.7511,-3.6423,-3.5456,-3.5007,-3.4499,-3.4139,-3.3837,-3.3837,-3.3837,-3.3837,-3.3837,-3.3837,-3.3837,-3.3837,-3.3837,-3.3837,-3.3837,-3.3837,-3.3837,-3.3837,-3.3837,-3.3837,-3.3837,-3.3837,-3.3761,-3.3289,-3.3044,-3.2816,-3.2892,-3.3289,-3.3685,-3.3761,-3.3837,-3.3685,-3.3061,-3.2664,-3.2512,-3.1916,-3.1472,-3.1395,-3.1395,-3.1395,-3.1395,-3.1395,-3.1395,-3.1395,-3.1395,-3.1395,-3.1395,-3.2015,-3.2412,-3.2698,-3.3158,-3.3429,-3.3492,-3.3492,-3.3492,-3.3492,-3.3492,-3.3492,-3.3492,-3.3492,-3.3492,-3.341,-3.3081,-3.267,-3.2174,-3.1662,-3.1233,-3.09,-3.0905,-3.0934,-3.092,-3.0949,-3.0978,-3.1242,-3.152,-3.1915,-3.2251,-3.2485,-3.269,-3.2646,-3.2705,-3.2646,-3.2529,-3.2382,-3.2146,-3.1777,-3.1423,-3.102,-3.065,-3.0226,-3.0101,-2.9976,-2.9985,-2.9713,-4.429,-4.4796,-4.5254,-4.5438,-4.5438,-4.5438,-4.5438,-4.5415,-4.5415,-4.5117,-4.491,-4.5048,-4.5002,-4.4684,-4.4437,-4.3794,-4.2376,-4.0749,-3.8879,-3.6645,-3.6349,-3.5605,-3.5082,-3.4574,-3.4215,-3.3912,-3.3837,-3.3837,-3.3837,-3.3837,-3.3837,-3.3837,-3.3837,-3.3837,-3.3837,-3.3837,-3.3837,-3.3837,-3.3837,-3.3837,-3.3837,-3.3837,-3.3761,-3.3685,-3.3061,-3.274,-3.2664,-3.2664,-3.2909,-3.3289,-3.3592,-3.3761,-3.3685,-3.3289,-3.2892,-3.2528,-3.2146,-3.1686,-3.1456,-3.1395,-3.1395,-3.1395,-3.1395,-3.1395,-3.1395,-3.1395,-3.1395,-3.1506,-3.1999,-3.2602,-3.3111,-3.3365,-3.3476,-3.3492,-3.3492,-3.3492,-3.3492,-3.3492,-3.3492,-3.3492,-3.3492,-3.3492,-3.3492,-3.3148,-3.2654,-3.2242,-3.1828,-3.1316,-3.1067,-3.0817,-3.0817,-3.0817,-3.0846,-3.0934,-3.1329,-3.1666,-3.209,-3.2383,-3.2602,-3.2763,-3.2734,-3.2631,-3.2514,-3.2425,-3.2277,-3.1951,-3.1507,-3.1062,-3.0602,-3.0348,-3.0093,-3.0003,-2.9913,-2.9913,-2.9913,-4.413,-4.4658,-4.5163,-4.5438,-4.5438,-4.5438,-4.5232,-4.5048,-4.5002,-4.4864,-4.4704,-4.491,-4.4979,-4.4979,-4.4801,-4.4228,-4.2958,-4.0963,-3.8971,-3.7236,-3.6571,-3.5829,-3.5306,-3.4875,-3.4423,-3.3912,-3.3837,-3.3837,-3.3837,-3.3837,-3.3837,-3.3837,-3.3837,-3.3837,-3.3837,-3.3837,-3.3837,-3.3837,-3.3837,-3.3837,-3.3837,-3.3837,-3.3534,-3.323,-3.2681,-3.2299,-3.2069,-3.2222,-3.2512,-3.2892,-3.3289,-3.3592,-3.3685,-3.3441,-3.3044,-3.2604,-3.2222,-3.184,-3.1533,-3.1395,-3.1395,-3.1395,-3.1395,-3.1395,-3.1395,-3.1395,-3.1395,-3.1538,-3.2015,-3.2698,-3.3381,-3.3476,-3.3492,-3.3492,-3.3492,-3.3492,-3.3492,-3.3492,-3.3492,-3.3492,-3.3492,-3.3492,-3.3394,-3.3148,-3.2736,-3.2339,-3.2174,-3.1662,-3.0984,-3.0817,-3.0817,-3.0817,-3.0817,-3.0993,-3.1402,-3.1827,-3.228,-3.2485,-3.2588,-3.2719,-3.2749,-3.2586,-3.2409,-3.2232,-3.204,-3.1507,-3.1062,-3.0616,-3.0272,-3.0093,-3.0003,-2.9913,-2.9913,-2.9913,-2.9913,-4.4084,-4.4543,-4.5117,-4.5369,-4.5323,-4.53,-4.4933,-4.452,-4.4566,-4.4658,-4.4635,-4.4658,-4.5048,-4.521,-4.5051,-4.4663,-4.3328,-4.1268,-3.9044,-3.7824,-3.6645,-3.5978,-3.553,-3.5082,-3.4649,-3.3988,-3.3837,-3.3837,-3.3837,-3.3837,-3.3837,-3.3837,-3.3837,-3.3837,-3.3837,-3.3837,-3.3837,-3.3837,-3.3837,-3.3837,-3.3837,-3.3761,-3.3458,-3.2757,-3.2299,-3.1916,-3.1686,-3.184,-3.213,-3.2512,-3.2968,-3.3365,-3.3517,-3.3517,-3.3044,-3.2681,-3.2299,-3.1916,-3.1533,-3.1395,-3.1395,-3.1395,-3.1395,-3.1395,-3.1395,-3.1395,-3.1395,-3.1601,-3.2015,-3.2698,-3.3365,-3.3492,-3.3492,-3.3492,-3.3492,-3.3492,-3.3492,-3.3492,-3.3492,-3.3492,-3.3492,-3.3492,-3.3492,-3.3394,-3.2917,-3.2422,-3.2257,-3.1941,-3.1277,-3.0846,-3.0861,-3.0876,-3.089,-3.0978,-3.1359,-3.1549,-3.2061,-3.2339,-3.2456,-3.2602,-3.269,-3.2483,-3.2218,-3.1966,-3.1685,-3.1151,-3.0705,-3.0361,-3.0093,-2.9913,-2.9913,-2.9913,-2.9913,-2.9913,-2.9913,-4.3854,-4.4015,-4.5024,-4.5117,-4.475,-4.4727,-4.4451,-4.4084,-4.4405,-4.4612,-4.4658,-4.5025,-4.5209,-4.5347,-4.537,-4.4434,-4.2796,-4.0779,-3.9221,-3.7951,-3.6793,-3.5978,-3.568,-3.5157,-3.4724,-3.429,-3.3988,-3.3837,-3.3837,-3.3837,-3.3837,-3.3837,-3.3837,-3.3837,-3.3837,-3.3837,-3.3837,-3.3837,-3.3837,-3.3837,-3.3837,-3.3685,-3.3289,-3.2604,-3.2146,-3.1779,-3.1549,-3.1763,-3.2069,-3.2146,-3.2816,-3.312,-3.3365,-3.3517,-3.3289,-3.274,-3.2512,-3.2146,-3.1533,-3.1395,-3.1395,-3.1395,-3.1427,-3.1395,-3.1395,-3.1411,-3.1458,-3.1617,-3.2046,-3.2714,-3.3397,-3.3476,-3.3492,-3.3492,-3.3492,-3.3492,-3.3492,-3.3476,-3.3492,-3.3394,-3.3492,-3.3492,-3.3492,-3.341,-3.2999,-3.2505,-3.2257,-3.1851,-3.1258,-3.0978,-3.0964,-3.0978,-3.0978,-3.1095,-3.1285,-3.1388,-3.1637,-3.1944,-3.2134,-3.2281,-3.231,-3.222,-3.1923,-3.1596,-3.124,-3.0794,-3.0437,-3.0093,-3.0003,-2.9913,-2.9913,-2.9913,-2.9913,-2.9913,-2.9913,-4.3571,-4.3771,-4.451,-4.4695,-4.4421,-4.4464,-4.4193,-4.3877,-4.4084,-4.4359,-4.4612,-4.4864,-4.514,-4.5369,-4.5438,-4.4274,-4.236,-3.9983,-3.8701,-3.7766,-3.6793,-3.6126,-3.5829,-3.5306,-3.4932,-3.4574,-3.4139,-3.3837,-3.3837,-3.3837,-3.3837,-3.3837,-3.3837,-3.3837,-3.3837,-3.3837,-3.3837,-3.3837,-3.3837,-3.3837,-3.3761,-3.3458,-3.2833,-3.2375,-3.1916,-3.1625,-3.1472,-3.1533,-3.1763,-3.2069,-3.2588,-3.2968,-3.3196,-3.3289,-3.3213,-3.274,-3.2588,-3.2222,-3.1533,-3.1395,-3.1395,-3.1411,-3.1538,-3.1554,-3.1506,-3.1538,-3.1649,-3.1824,-3.2269,-3.2825,-3.3174,-3.3365,-3.3476,-3.3492,-3.3492,-3.341,-3.3246,-3.3394,-3.3328,-3.3246,-3.3328,-3.341,-3.3492,-3.3328,-3.2999,-3.267,-3.2272,-3.1828,-3.1223,-3.1168,-3.1168,-3.1139,-3.1139,-3.1124,-3.1227,-3.1285,-3.1359,-3.1607,-3.1915,-3.2062,-3.2018,-3.1868,-3.154,-3.1151,-3.0794,-3.0526,-3.0258,-3.0003,-2.9913,-2.9913,-2.9913,-2.9913,-2.9913,-2.9913,-2.9913,-4.329,-4.3636,-4.4082,-4.4244,-4.4175,-4.4267,-4.4025,-4.3782,-4.3923,-4.4245,-4.4566,-4.475,-4.5025,-4.5232,-4.4801,-4.3798,-4.1866,-3.9161,-3.8216,-3.7778,-3.6756,-3.6201,-3.5978,-3.553,-3.5082,-3.4857,-3.4348,-3.3912,-3.3837,-3.3837,-3.3837,-3.3837,-3.3837,-3.3837,-3.3837,-3.3837,-3.3837,-3.3837,-3.3837,-3.3761,-3.3534,-3.2985,-3.2435,-3.1993,-3.1625,-3.1395,-3.1395,-3.1472,-3.1609,-3.184,-3.2222,-3.2664,-3.2968,-3.3044,-3.2892,-3.2664,-3.2512,-3.2102,-3.1722,-3.1522,-3.1554,-3.157,-3.184,-3.1792,-3.1697,-3.1824,-3.2015,-3.2142,-3.2539,-3.292,-3.3047,-3.3286,-3.3444,-3.3492,-3.3492,-3.341,-3.3066,-3.2999,-3.3062,-3.3062,-3.3277,-3.3344,-3.336,-3.341,-3.3164,-3.2664,-3.2266,-3.2023,-3.1583,-3.1432,-3.1417,-3.1373,-3.1315,-3.1198,-3.1198,-3.1212,-3.1285,-3.1417,-3.1683,-3.1989,-3.1786,-3.1487,-3.1142,-3.0884,-3.054,-3.0272,-3.0003,-2.9913,-2.9913,-2.9913,-2.9913,-2.9913,-2.9913,-2.9913,-2.9913,-4.329,-4.3636,-4.4124,-4.4035,-4.3775,-4.4124,-4.3905,-4.3349,-4.4084,-4.452,-4.4681,-4.5048,-4.5278,-4.4937,-4.3781,-4.2177,-4.0402,-3.894,-3.791,-3.7528,-3.6718,-3.6201,-3.6126,-3.5754,-3.5306,-3.5007,-3.4499,-3.4139,-3.3912,-3.3837,-3.3837,-3.3837,-3.3837,-3.3837,-3.3837,-3.3837,-3.3837,-3.3837,-3.3837,-3.3609,-3.3289,-3.2833,-3.2435,-3.1993,-3.1609,-3.1395,-3.1395,-3.1395,-3.1472,-3.1533,-3.184,-3.2299,-3.2604,-3.2664,-3.2664,-3.2528,-3.2332,-3.1969,-3.179,-3.1776,-3.1792,-3.184,-3.2142,-3.2126,-3.2046,-3.2094,-3.2301,-3.2364,-3.2745,-3.2936,-3.3015,-3.3286,-3.3429,-3.3394,-3.3312,-3.3081,-3.2768,-3.1866,-3.1994,-3.1903,-3.1736,-3.256,-3.3093,-3.3211,-3.3246,-3.2763,-3.232,-3.2074,-3.1874,-3.1737,-3.171,-3.1666,-3.1607,-3.149,-3.1344,-3.1329,-3.1359,-3.1388,-3.1624,-3.1888,-3.1582,-3.1282,-3.0992,-3.0705,-3.0361,-3.0093,-3.0003,-2.9913,-2.9913,-2.9913,-2.9913,-2.9913,-2.9913,-2.9913,-2.9913,-4.298,-4.3425,-4.3659,-4.3612,-4.3449,-4.3659,-4.3641,-4.3621,-4.3946,-4.4497,-4.4979,-4.53,-4.4937,-4.3894,-4.2384,-4.0763,-3.9122,-3.7814,-3.7143,-3.7032,-3.6496,-3.6182,-3.6126,-3.5754,-3.5381,-3.5007,-3.4574,-3.4215,-3.3912,-3.3837,-3.3837,-3.3837,-3.3837,-3.3837,-3.3837,-3.3837,-3.3837,-3.3837,-3.3761,-3.3458,-3.2985,-3.2664,-3.2299,-3.1686,-3.1472,-3.1395,-3.1395,-3.1395,-3.1395,-3.1472,-3.1763,-3.2069,-3.2222,-3.2299,-3.2222,-3.2222,-3.184,-3.169,-3.1601,-3.1808,-3.1919,-3.2078,-3.2348,-3.2555,-3.2332,-3.2332,-3.2332,-3.2142,-3.2841,-3.3111,-3.3047,-3.3286,-3.3413,-3.3328,-3.2768,-3.2047,-3.1593,-3.0814,-3.0381,-3.0283,-3.0354,-3.1143,-3.1978,-3.2274,-3.2554,-3.2677,-3.2296,-3.207,-3.1981,-3.203,-3.1973,-3.1973,-3.1915,-3.1841,-3.1666,-3.1563,-3.1607,-3.1681,-3.19,-3.1932,-3.1421,-3.1063,-3.089,-3.0526,-3.0093,-2.9913,-2.9913,-2.9913,-2.9913,-2.9913,-2.9913,-2.9913,-2.9913,-2.9913,-2.9913,-4.2633,-4.32,-4.32,-4.32,-4.32,-4.3318,-4.352,-4.3762,-4.3992,-4.452,-4.5231,-4.5324,-4.4324,-4.2586,-4.1219,-3.9783,-3.7748,-3.6579,-3.6266,-3.6139,-3.6219,-3.6165,-3.609,-3.5829,-3.553,-3.5157,-3.4782,-3.4441,-3.4064,-3.3837,-3.3837,-3.3837,-3.3837,-3.3837,-3.3837,-3.3837,-3.3837,-3.3837,-3.3837,-3.3382,-3.2757,-3.2588,-3.2146,-3.1686,-3.1395,-3.1395,-3.1395,-3.1395,-3.1395,-3.1472,-3.1609,-3.184,-3.1993,-3.1916,-3.1916,-3.1916,-3.1686,-3.1551,-3.1665,-3.1872,-3.2046,-3.2301,-3.2539,-3.2841,-3.2793,-3.2666,-3.2555,-3.2332,-3.2936,-3.319,-3.3046,-3.3025,-3.2757,-3.2355,-3.1836,-3.0997,-3.0142,-2.9545,-2.9168,-2.9131,-2.9271,-2.9403,-3.0211,-3.1017,-3.1593,-3.2333,-3.2384,-3.2108,-3.2102,-3.2135,-3.2207,-3.2207,-3.2047,-3.1945,-3.1841,-3.1754,-3.1812,-3.1858,-3.2091,-3.1902,-3.1402,-3.0956,-3.0664,-3.0361,-2.9913,-2.9913,-2.9913,-2.9913,-2.9913,-2.9913,-2.9913,-2.9913,-2.9913,-2.9913,-2.9913,-4.2529,-4.2822,-4.2822,-4.2822,-4.2846,-4.3398,-4.3628,-4.3785,-4.4267,-4.4727,-4.53,-4.5256,-4.3803,-4.1689,-4.0908,-3.9328,-3.6328,-3.6109,-3.6169,-3.6232,-3.6193,-3.6183,-3.6165,-3.6052,-3.5903,-3.553,-3.5157,-3.4724,-3.4365,-3.3988,-3.3912,-3.3837,-3.3837,-3.3837,-3.3837,-3.3837,-3.3837,-3.3837,-3.3837,-3.3365,-3.2833,-3.2512,-3.2222,-3.1625,-3.1395,-3.1395,-3.1395,-3.1395,-3.1395,-3.1395,-3.1472,-3.1609,-3.184,-3.1686,-3.1702,-3.1859,-3.1706,-3.1633,-3.1935,-3.2173,-3.2507,-3.2761,-3.292,-3.3031,-3.3095,-3.3301,-3.319,-3.2857,-3.3222,-3.3204,-3.2799,-3.234,-3.2031,-3.1277,-3.0559,-2.9605,-2.8843,-2.8451,-2.816,-2.8103,-2.7952,-2.7863,-2.8289,-2.9052,-3.0223,-3.0938,-3.1455,-3.1178,-3.1873,-3.2016,-3.2281,-3.231,-3.215,-3.2004,-3.1929,-3.1757,-3.157,-3.1758,-3.2091,-3.1811,-3.1394,-3.0959,-3.0616,-3.0272,-2.9913,-2.9913,-2.9913,-2.9913,-2.9913,-2.9913,-2.9913,-2.9913,-2.9913,-2.9913,-2.9913,-4.2402,-4.2466,-4.2466,-4.2593,-4.2846,-4.3032,-4.3234,-4.3414,-4.3602,-4.4153,-4.4933,-4.5095,-4.4211,-4.2586,-4.1912,-4.0418,-3.7758,-3.751,-3.693,-3.6371,-3.6174,-3.6201,-3.622,-3.6108,-3.5978,-3.568,-3.5381,-3.5007,-3.4441,-3.4215,-3.3988,-3.3912,-3.3837,-3.3837,-3.3837,-3.3837,-3.3837,-3.3837,-3.3761,-3.3365,-3.274,-3.2512,-3.2222,-3.1472,-3.1395,-3.1395,-3.1395,-3.1395,-3.1395,-3.1395,-3.1395,-3.1549,-3.1609,-3.1472,-3.1567,-3.1866,-3.1743,-3.1951,-3.2332,-3.2507,-3.2666,-3.3111,-3.3111,-3.3112,-3.3238,-3.319,-3.3127,-3.3079,-3.327,-3.3186,-3.2134,-3.1737,-3.1331,-3.0306,-2.9226,-2.8201,-2.7557,-2.7172,-2.6674,-2.6408,-2.6026,-2.5776,-2.6312,-2.7026,-2.8344,-2.9535,-2.9968,-3.0438,-3.1081,-3.1507,-3.1572,-3.1413,-3.1165,-3.1797,-3.1757,-3.1523,-3.1243,-3.1666,-3.2104,-3.1558,-3.1123,-3.087,-3.0526,-3.0182,-2.9734,-2.9554,-2.9554,-2.9824,-2.9913,-2.9824,-2.9913,-2.9913,-2.9913,-2.9824,-2.9913,-4.2275,-4.2275,-4.2275,-4.2466,-4.2633,-4.2633,-4.2806,-4.3028,-4.3119,-4.3671,-4.4612,-4.4979,-4.4392,-4.3352,-4.2879,-4.1198,-3.8883,-3.8081,-3.7291,-3.6662,-3.6165,-3.6161,-3.6165,-3.6146,-3.6052,-3.5829,-3.5605,-3.5249,-3.4875,-3.4516,-3.429,-3.4064,-3.3837,-3.3837,-3.3837,-3.3837,-3.3837,-3.3837,-3.3761,-3.3517,-3.2892,-3.2664,-3.2375,-3.1609,-3.1472,-3.1395,-3.1395,-3.1395,-3.1395,-3.1395,-3.1395,-3.1395,-3.1395,-3.1427,-3.1522,-3.1697,-3.1935,-3.2221,-3.2571,-3.2888,-3.2936,-3.3333,-3.3286,-3.3158,-3.3111,-3.3111,-3.319,-3.3174,-3.3365,-3.3066,-3.1911,-3.1571,-3.0643,-2.9564,-2.7901,-2.677,-2.6186,-2.5663,-2.5128,-2.466,-2.4514,-2.4629,-2.4901,-2.5716,-2.7018,-2.8296,-2.9036,-2.9436,-2.9654,-3.0052,-3.0231,-3.0101,-2.9896,-3.0725,-3.1657,-3.1114,-3.0765,-3.1971,-3.2043,-3.117,-3.0691,-3.0437,-2.9438,-2.8256,-2.8088,-2.8732,-2.8539,-2.7998,-2.8822,-2.9734,-2.9644,-2.9554,-2.9285,-2.9195,-2.9734,-4.2275,-4.2275,-4.2275,-4.2339,-4.2339,-4.2339,-4.2614,-4.2982,-4.3096,-4.3602,-4.4405,-4.4612,-4.4074,-4.3173,-4.2924,-4.1198,-3.8889,-3.8241,-3.7528,-3.6437,-3.6091,-3.613,-3.618,-3.6183,-3.6127,-3.6108,-3.5829,-3.5605,-3.5456,-3.4875,-3.4516,-3.4215,-3.3988,-3.3837,-3.3837,-3.3837,-3.3837,-3.3837,-3.3837,-3.3517,-3.312,-3.2816,-3.2452,-3.1916,-3.1609,-3.1549,-3.1395,-3.1395,-3.1395,-3.1395,-3.1395,-3.1395,-3.1395,-3.1395,-3.1443,-3.1522,-3.1792,-3.2094,-3.2444,-3.3063,-3.3365,-3.346,-3.3381,-3.3381,-3.3429,-3.3444,-3.3397,-3.3349,-3.346,-3.341,-3.2597,-3.1485,-3.0311,-2.9001,-2.7397,-2.6116,-2.5597,-2.4766,-2.4387,-2.4188,-2.4107,-2.4188,-2.4188,-2.4544,-2.5889,-2.7045,-2.8063,-2.8436,-2.8436,-2.8616,-2.8796,-2.9156,-2.9053,-2.9873,-3.0588,-3.0307,-3.0472,-3.1671,-3.1774,-3.0499,-2.9604,-2.8976,-2.7895,-2.6435,-2.6628,-2.7443,-2.6719,-2.5707,-2.6719,-2.7727,-2.8822,-2.8912,-2.8642,-2.8642,-2.9092,-4.2275,-4.2275,-4.2275,-4.2275,-4.2275,-4.2275,-4.2454,-4.2637,-4.2936,-4.328,-4.3693,-4.4245,-4.3758,-4.2973,-4.2544,-4.1219,-3.8732,-3.8248,-3.7517,-3.6244,-3.6068,-3.6138,-3.6211,-3.62,-3.6183,-3.6146,-3.5978,-3.5829,-3.553,-3.5174,-3.4799,-3.4441,-3.4064,-3.3837,-3.3837,-3.3837,-3.3837,-3.3837,-3.3761,-3.3609,-3.3196,-3.3044,-3.2681,-3.2069,-3.184,-3.1702,-3.1472,-3.1472,-3.1395,-3.1395,-3.1395,-3.1395,-3.1395,-3.1395,-3.149,-3.1649,-3.1919,-3.2189,-3.2666,-3.3206,-3.346,-3.3492,-3.3492,-3.3492,-3.3492,-3.3492,-3.3476,-3.3492,-3.3492,-3.3227,-3.2297,-3.1603,-3.0552,-2.9462,-2.8026,-2.6876,-2.5936,-2.4867,-2.4199,-2.4107,-2.4118,-2.4118,-2.4118,-2.4118,-2.5103,-2.5377,-2.6186,-2.6719,-2.6809,-2.7081,-2.7353,-2.8166,-2.8526,-2.9233,-2.9591,-2.904,-2.9488,-3.0767,-3.0307,-2.904,-2.8333,-2.7612,-2.6616,-2.5343,-2.5719,-2.6083,-2.5263,-2.4624,-2.4716,-2.5446,-2.6083,-2.7172,-2.7534,-2.7715,-2.8256,-4.2275,-4.2275,-4.2275,-4.2275,-4.2275,-4.2275,-4.2275,-4.2408,-4.2683,-4.2913,-4.3146,-4.3456,-4.3151,-4.2482,-4.1963,-4.1019,-3.8425,-3.8248,-3.7473,-3.6208,-3.6136,-3.6104,-3.6112,-3.616,-3.6183,-3.6183,-3.6201,-3.6052,-3.5829,-3.568,-3.5174,-3.4516,-3.4139,-3.3988,-3.3912,-3.3837,-3.3837,-3.3837,-3.3761,-3.3685,-3.3441,-3.3213,-3.2985,-3.2512,-3.2146,-3.184,-3.1609,-3.1533,-3.1395,-3.1395,-3.1395,-3.1395,-3.1395,-3.1427,-3.1522,-3.1681,-3.2046,-3.2348,-3.2857,-3.327,-3.346,-3.3492,-3.3492,-3.3492,-3.3492,-3.3492,-3.3492,-3.3492,-3.3492,-3.3187,-3.2571,-3.196,-3.0809,-2.9708,-2.866,-2.7494,-2.6324,-2.5252,-2.4829,-2.4749,-2.421,-2.4118,-2.4118,-2.4118,-2.4382,-2.4302,-2.4302,-2.4829,-2.5457,-2.573,-2.5913,-2.6356,-2.6991,-2.7341,-2.7612,-2.7599,-2.8321,-2.9668,-2.886,-2.7509,-2.6695,-2.598,-2.507,-2.4441,-2.4533,-2.4441,-2.3984,-2.3617,-2.3158,-2.2606,-2.2422,-2.3871,-2.5696,-2.6797,-2.7341,-4.2275,-4.2275,-4.2275,-4.2275,-4.2275,-4.2275,-4.2275,-4.2275,-4.2362,-4.2614,-4.2986,-4.2098,-4.1728,-4.1815,-4.1072,-3.9642,-3.8248,-3.8051,-3.7169,-3.6367,-3.6042,-3.6106,-3.6152,-3.6171,-3.6217,-3.6165,-3.6201,-3.6126,-3.6126,-3.5754,-3.5174,-3.4597,-3.4244,-3.4018,-3.3792,-3.3734,-3.3768,-3.3802,-3.3761,-3.3761,-3.3685,-3.3441,-3.3213,-3.2909,-3.2452,-3.2069,-3.184,-3.1625,-3.1472,-3.1395,-3.1395,-3.1395,-3.1395,-3.1395,-3.1395,-3.1554,-3.203,-3.2444,-3.2825,-3.3174,-3.3429,-3.346,-3.3492,-3.3492,-3.3492,-3.3492,-3.3492,-3.3492,-3.341,-3.3415,-3.3218,-3.2074,-3.1081,-3.0069,-2.9126,-2.7975,-2.6852,-2.6186,-2.5913,-2.5457,-2.4566,-2.4302,-2.4118,-2.4118,-2.4118,-2.4118,-2.4118,-2.421,-2.4657,-2.4566,-2.4646,-2.428,-2.4818,-2.5081,-2.5525,-2.6332,-2.6604,-2.787,-2.7045,-2.5878,-2.5058,-2.4339,-2.3617,-2.3076,-2.2984,-2.28,-2.2626,-2.1879,-2.0862,-2.0399,-2.0492,-2.149,-2.3779,-2.5605,-2.6695,-4.2275,-4.2275,-4.2275,-4.2275,-4.2275,-4.2275,-4.2275,-4.2275,-4.2275,-4.239,-4.2504,-4.1788,-4.0979,-4.0079,-3.9306,-3.8078,-3.7217,-3.6581,-3.6474,-3.6133,-3.6054,-3.607,-3.6106,-3.61,-3.6136,-3.6145,-3.6183,-3.6146,-3.6108,-3.5811,-3.5222,-3.4578,-3.4189,-3.3874,-3.3575,-3.3443,-3.3597,-3.3751,-3.3802,-3.3837,-3.3837,-3.3685,-3.3441,-3.3137,-3.2757,-3.2375,-3.1993,-3.1686,-3.1456,-3.1395,-3.1395,-3.1395,-3.1395,-3.1395,-3.1395,-3.1427,-3.1808,-3.2205,-3.2555,-3.2904,-3.3222,-3.3429,-3.3476,-3.3492,-3.3492,-3.3492,-3.3492,-3.3328,-3.3113,-3.3068,-3.2991,-3.2223,-3.1005,-2.9845,-2.927,-2.886,-2.7624,-2.6549,-2.6276,-2.5548,-2.4657,-2.421,-2.4118,-2.4118,-2.4118,-2.4118,-2.4118,-2.4118,-2.4118,-2.4118,-2.3751,-2.3373,-2.373,-2.4361,-2.5081,-2.5878,-2.5696,-2.5696,-2.4967,-2.4156,-2.3168,-2.2442,-2.1991,-2.1898,-2.2083,-2.1898,-2.1538,-2.0696,-2.013,-1.9759,-1.9759,-2.0575,-2.1675,-2.3779,-2.5878,-4.2275,-4.2275,-4.2275,-4.2275,-4.2275,-4.2275,-4.2275,-4.2275,-4.2275,-4.2275,-4.2171,-4.1042,-4.0016,-3.9229,-3.8016,-3.6933,-3.621,-3.6142,-3.6035,-3.6035,-3.6035,-3.6073,-3.6105,-3.6112,-3.6123,-3.6176,-3.6182,-3.6073,-3.5944,-3.5558,-3.4974,-3.4464,-3.408,-3.3713,-3.3418,-3.3214,-3.3254,-3.3528,-3.3734,-3.382,-3.3837,-3.3837,-3.3609,-3.3441,-3.3061,-3.2604,-3.2222,-3.184,-3.1609,-3.1472,-3.1395,-3.1395,-3.1395,-3.1395,-3.1395,-3.1458,-3.1729,-3.2094,-3.2428,-3.2777,-3.3127,-3.3381,-3.3476,-3.3492,-3.341,-3.3328,-3.3246,-3.3081,-3.2814,-3.2539,-3.2447,-3.217,-3.0825,-2.9422,-2.9462,-2.9604,-2.8346,-2.6912,-2.6095,-2.5366,-2.4829,-2.4291,-2.4118,-2.4118,-2.4118,-2.4118,-2.4118,-2.4118,-2.4118,-2.4118,-2.3659,-2.3097,-2.3454,-2.4086,-2.4624,-2.4796,-2.443,-2.3973,-2.3342,-2.2524,-2.1353,-2.1261,-2.1446,-2.1446,-2.1353,-2.1168,-2.1168,-2.051,-1.9944,-1.9581,-1.9116,-1.9378,-2.0659,-2.2678,-2.4682,-4.2275,-4.2275,-4.2275,-4.2275,-4.2275,-4.2275,-4.2275,-4.2275,-4.2275,-4.2275,-4.1956,-4.017,-3.9341,-3.8859,-3.7294,-3.6366,-3.6035,-3.6035,-3.6035,-3.6035,-3.6035,-3.6025,-3.61,-3.6073,-3.6091,-3.6134,-3.6087,-3.5869,-3.5558,-3.5194,-3.4903,-3.4342,-3.4054,-3.3691,-3.3183,-3.3051,-3.3145,-3.3357,-3.3665,-3.3837,-3.3837,-3.3837,-3.3837,-3.3685,-3.3365,-3.2985,-3.2604,-3.2222,-3.184,-3.1549,-3.1395,-3.1395,-3.1395,-3.1395,-3.1395,-3.1443,-3.1649,-3.1935,-3.2269,-3.2618,-3.3,-3.327,-3.3476,-3.3394,-3.3312,-3.3081,-3.2983,-3.2819,-3.2551,-3.1721,-3.1402,-3.1724,-3.0947,-2.9886,-2.9512,-2.9386,-2.8526,-2.7081,-2.6004,-2.5275,-2.4566,-2.4118,-2.4118,-2.4118,-2.4118,-2.4118,-2.4118,-2.4118,-2.4118,-2.4118,-2.3567,-2.2913,-2.3097,-2.3362,-2.3076,-2.3168,-2.2892,-2.2432,-2.1981,-2.1714,-2.1261,-2.1168,-2.1168,-2.1168,-2.1168,-2.1075,-2.089,-2.0325,-1.9759,-1.9395,-1.893,-1.8363,-1.9648,-2.1757,-2.3677,-4.2275,-4.2275,-4.2275,-4.2275,-4.2275,-4.2275,-4.2275,-4.2275,-4.2275,-4.2275,-4.187,-4.0214,-3.9167,-3.8838,-3.6944,-3.6035,-3.6035,-3.6035,-3.6035,-3.6035,-3.6035,-3.6006,-3.6044,-3.607,-3.6093,-3.601,-3.5821,-3.5462,-3.5191,-3.4937,-3.4629,-3.4089,-3.3857,-3.3572,-3.3016,-3.2957,-3.3068,-3.3334,-3.3477,-3.3751,-3.3837,-3.3837,-3.3761,-3.3685,-3.3441,-3.3061,-3.2681,-3.2222,-3.184,-3.1472,-3.1395,-3.1395,-3.1395,-3.1395,-3.1395,-3.1411,-3.1506,-3.1744,-3.2046,-3.238,-3.273,-3.3079,-3.3286,-3.3167,-3.3066,-3.2901,-3.2736,-3.2489,-3.1987,-3.111,-3.0496,-3.0952,-3.1065,-3.0151,-2.974,-2.918,-2.8706,-2.7353,-2.6174,-2.5103,-2.4302,-2.4118,-2.4118,-2.4118,-2.4118,-2.4118,-2.4118,-2.4118,-2.4118,-2.4026,-2.3465,-2.2913,-2.2729,-2.2729,-2.2268,-2.1991,-2.1991,-2.1806,-2.1529,-2.1353,-2.1168,-2.1168,-2.1168,-2.1168,-2.1168,-2.1075,-2.0696,-2.0139,-1.9674,-1.9302,-1.8837,-1.8269,-1.9369,-2.1481,-2.3045,-4.2275,-4.2275,-4.2275,-4.2275,-4.2275,-4.2275,-4.2275,-4.2275,-4.2275,-4.2061,-4.1486,-4.0018,-3.9167,-3.8838,-3.6944,-3.6035,-3.6035,-3.6035,-3.6035,-3.6035,-3.6035,-3.6035,-3.6016,-3.6014,-3.5889,-3.5793,-3.5302,-3.4894,-3.4733,-3.4513,-3.4153,-3.3902,-3.3744,-3.348,-3.2932,-3.2947,-3.3026,-3.3293,-3.3363,-3.3528,-3.3768,-3.3837,-3.3837,-3.3685,-3.3534,-3.3213,-3.2892,-3.2528,-3.2069,-3.1686,-3.1549,-3.1395,-3.1395,-3.1395,-3.1395,-3.1395,-3.1443,-3.1538,-3.184,-3.2126,-3.2444,-3.2841,-3.3079,-3.3043,-3.2901,-3.267,-3.2242,-3.2076,-3.1579,-3.0742,-2.9773,-2.9879,-2.9212,-2.8358,-2.9864,-3.0753,-2.9425,-2.7985,-2.6276,-2.4566,-2.4118,-2.4118,-2.4118,-2.4118,-2.4118,-2.4118,-2.4118,-2.4118,-2.4118,-2.3924,-2.3373,-2.2913,-2.2637,-2.2185,-2.1723,-2.1538,-2.1446,-2.1261,-2.1168,-2.1168,-2.1168,-2.1168,-2.1168,-2.1168,-2.1168,-2.0881,-2.051,-2.0046,-1.9488,-1.9116,-1.865,-1.8176,-1.9648,-2.1296,-2.3045,-4.2275,-4.2275,-4.2275,-4.2275,-4.2275,-4.2275,-4.2275,-4.2275,-4.2275,-4.1633,-4.0557,-3.9497,-3.9082,-3.8308,-3.728,-3.6491,-3.6016,-3.6035,-3.6035,-3.6035,-3.6035,-3.5947,-3.5879,-3.5869,-3.564,-3.5274,-3.4774,-3.4526,-3.433,-3.411,-3.3894,-3.3765,-3.3539,-3.3348,-3.3139,-3.2843,-3.2806,-3.3148,-3.331,-3.3346,-3.3563,-3.3837,-3.3837,-3.3837,-3.3761,-3.3609,-3.3213,-3.2892,-3.2435,-3.1993,-3.1625,-3.1472,-3.1395,-3.1395,-3.1395,-3.1395,-3.1395,-3.1554,-3.176,-3.1903,-3.2316,-3.2682,-3.2857,-3.2852,-3.271,-3.2407,-3.1994,-3.1497,-3.0984,-3.0404,-2.952,-2.9181,-2.8347,-2.7864,-2.9974,-3.1315,-2.9694,-2.7985,-2.6004,-2.4118,-2.4118,-2.4118,-2.4118,-2.4118,-2.4118,-2.4118,-2.4118,-2.4118,-2.4026,-2.3659,-2.3281,-2.2821,-2.2462,-2.1908,-2.1261,-2.1168,-2.1168,-2.1168,-2.1168,-2.1168,-2.1168,-2.1168,-2.1168,-2.1168,-2.1075,-2.0881,-2.0408,-1.9944,-1.9488,-1.893,-1.8557,-1.8456,-2.0019,-2.1573,-2.3402,-4.2275,-4.2275,-4.2275,-4.2275,-4.2275,-4.2275,-4.2275,-4.2275,-4.2252,-4.1411,-3.997,-3.8786,-3.8109,-3.7909,-3.7642,-3.6796,-3.5685,-3.5763,-3.5928,-3.6035,-3.5879,-3.5743,-3.5606,-3.5489,-3.5184,-3.4783,-3.4445,-3.4253,-3.4092,-3.3908,-3.3817,-3.3817,-3.3817,-3.3557,-3.3332,-3.3161,-3.3287,-3.3404,-3.3422,-3.3603,-3.3648,-3.3837,-3.3837,-3.3837,-3.3837,-3.3517,-3.3289,-3.312,-3.2681,-3.2146,-3.1625,-3.1472,-3.1395,-3.1395,-3.1395,-3.1395,-3.1395,-3.1443,-3.1601,-3.1744,-3.2126,-3.2444,-3.2602,-3.2707,-3.255,-3.2324,-3.1828,-3.1164,-3.0651,-3.0136,-2.9607,-3.034,-3.0024,-2.9279,-3.0219,-2.974,-2.8694,-2.6809,-2.4921,-2.421,-2.4118,-2.4118,-2.4118,-2.4118,-2.4118,-2.4118,-2.4118,-2.4118,-2.4026,-2.3659,-2.3199,-2.2739,-2.237,-2.1816,-2.1261,-2.1261,-2.1168,-2.1168,-2.1168,-2.1168,-2.1168,-2.1168,-2.1168,-2.1168,-2.1075,-2.0881,-2.0325,-1.9759,-1.9201,-1.8744,-1.8456,-1.8634,-2.0288,-2.2034,-2.3871]},{"header":{"parameterUnit":"m.s-1","parameterCategory":1,"la1":31.0,"la2":29.5877,"lo1":-88.7671,"lo2":-86.6584,"dy":0.0162,"dx":0.0185,"nx":115,"ny":88,"refTime":"2024-05-31T12:00:00:Z","depth":0,"parameterNumber":3,"parameterNumberName":"V-component_of_WINDS"},"data":[0.0,0.0,0.0,0.0,0.0,0.0,0.0,0.0,0.0,0.0,0.0,0.0,0.0,0.0,0.0,0.0,0.0,0.0,0.0,0.0,0.0,0.0,0.0,0.0,0.0,0.0,0.0,0.0,0.0,0.0,0.0,0.0,0.0,0.0,0.0,0.0,0.0,0.0,0.0,0.0,0.0,0.0,0.0,0.0,0.0,0.0,0.0,0.0,0.0,0.0,0.0,0.0,0.0,0.0,0.0,0.0,0.0,0.0,0.0,0.0,0.0,0.0,0.0,0.0,0.0,0.0,0.0,0.0,0.0,0.0,0.0,0.0,0.0,0.0,0.0,0.0,0.0,0.0,0.0,0.0,0.0,0.0,0.0,0.0,0.0,0.0,0.0,0.0,0.0,0.0,0.0,0.0,0.0,0.0,0.0,0.0,0.0,0.0,0.0,0.0,0.0,0.0,0.0,0.0,0.0,0.0,0.0,0.0,0.0,0.0,0.0,0.0,0.0,0.0,0.0,0.0,0.0,0.0,0.0,0.0,0.0,0.0,0.0,0.0,0.0,0.0,0.0,0.0,0.0,0.0,0.0,0.0,0.0,0.0,0.0,0.0,0.0,0.0,0.0,0.0,0.0,0.0,0.0,0.0,0.0,0.0,0.0,0.0,0.0,0.0,0.0,0.0,0.0,0.0,0.0,0.0,0.0,0.0,0.0,0.0,0.0,0.0,0.0,0.0,0.0,0.0,0.0,0.0,0.0,0.0,0.0,0.0,0.0,0.0,0.0,0.0,0.0,0.0,0.0,0.0,0.0,0.0,0.0,0.0,0.0,0.0,0.0,0.0,0.0,0.0,0.0,0.0,0.0,0.0,0.0,0.0,0.0,0.0,0.0,0.0,0.0,0.0,0.0,0.0,0.0,0.0,0.0,0.0,0.0,0.0,0.0,0.0,0.0,0.0,0.0,0.0,0.0,0.0,0.0,0.0,0.0,0.0,0.0,0.0,0.0,0.0,0.0,0.0,0.0,0.0,0.0,0.0,0.0,0.0,0.0,0.0,0.0,0.0,0.0,0.0,0.0,0.0,0.0,0.0,0.0,0.0,0.0,0.0,0.0,0.0,0.0,0.0,0.0,0.0,0.0,0.0,0.0,0.0,0.0,0.0,0.0,0.0,0.0,0.0,0.0,0.0,0.0,0.0,0.0,0.0,0.0,0.0,0.0,0.0,0.0,0.0,0.0,0.0,0.0,0.0,0.0,0.0,0.0,0.0,0.0,0.0,0.0,0.0,0.0,0.0,0.0,0.0,0.0,0.0,0.0,0.0,0.0,0.0,0.0,0.0,0.0,0.0,0.0,0.0,0.0,0.0,0.0,0.0,0.0,0.0,0.0,0.0,0.0,0.0,0.0,0.0,0.0,0.0,0.0,0.0,0.0,0.0,0.0,0.0,0.0,0.0,0.0,0.0,0.0,0.0,0.0,0.0,0.0,0.0,0.0,0.0,0.0,0.0,0.0,0.0,0.0,0.0,0.0,0.0,0.0,0.0,0.0,0.0,0.0,0.0,0.0,0.0,0.0,0.0,0.0,0.0,0.0,0.0,0.0,0.0,0.0,0.0,0.0,0.0,0.0,0.0,0.0,0.0,0.0,0.0,0.0,0.0,0.0,0.0,0.0,0.0,0.0,0.0,0.0,0.0,0.0,0.0,0.0,0.0,0.0,0.0,0.0,0.0,0.0,0.0,0.0,0.0,0.0,0.0,0.0,0.0,0.0,0.0,0.0,0.0,0.0,0.0,0.0,0.0,0.0,0.0,0.0,0.0,0.0,0.0,0.0,0.0,0.0,0.0,0.0,0.0,0.0,0.0,0.0,0.0,0.0,0.0,0.0,0.0,0.0,0.0,0.0,0.0,0.0,0.0,0.0,0.0,0.0,0.0,0.0,0.0,0.0,0.0,0.0,0.0,0.0,0.0,0.0,0.0,0.0,0.0,0.0,0.0,0.0,0.0,0.0,0.0,0.0,0.0,0.0,0.0,0.0,0.0,0.0,0.0,0.0,0.0,0.0,0.0,0.0,0.0,0.0,0.0,0.0,0.0,0.0,0.0,0.0,0.0,0.0,0.0,0.0,0.0,0.0,0.0,0.0,0.0,0.0,0.0,0.0,0.0,0.0,0.0,0.0,0.0,0.0,0.0,0.0,0.0,0.0,0.0,0.0,0.0,0.0,0.0,0.0,0.0,0.0,0.0,0.0,0.0,0.0,0.0,0.0,0.0,0.0,0.0,0.0,0.0,0.0,0.0,0.0,0.0,0.0,0.0,0.0,0.0,0.0,0.0,0.0,0.0,0.0,0.0,0.0,0.0,0.0,0.0,0.0,0.0,0.0,0.0,0.0,0.0,0.0,0.0,0.0,0.0,0.0,0.0,0.0,0.0,0.0,0.0,0.0,0.0,0.0,0.0,0.0,0.0,0.0,0.0,0.0,0.0,0.0,0.0,0.0,0.0,0.0,0.0,0.0,0.0,0.0,0.0,0.0,0.0,0.0,0.0,0.0,0.0,0.0,0.0,0.0,0.0,0.0,0.0,0.0,0.0,0.0,0.0,0.0,0.0,0.0,0.0,0.0,0.0,0.0,0.0,0.0,0.0,0.0,0.0,0.0,0.0,0.0,0.0,0.0,0.0,0.0,0.0,0.0,0.0,0.0,0.0,0.0,0.0,0.0,0.0,0.0,0.0,0.0,0.0,0.0,0.0,0.0,0.0,0.0,0.0,0.0,0.0,0.0,0.0,0.0,0.0,0.0,0.0,0.0,0.0,0.0,0.0,0.0,0.0,0.0,0.0,0.0,0.0,0.0,0.0,0.0,0.0,0.0,0.0,0.0,0.0,0.0,0.0,0.0,0.0,0.0,0.0,0.0,0.0,0.0,0.0,0.0,0.0,0.0,0.0,0.0,0.0,0.0,0.0,0.0,0.0,0.0,0.0,0.0,0.0,0.0,0.0,0.0,0.0,0.0,0.0,0.0,0.0,0.0,0.0,0.0,0.0,0.0,0.0,0.0,0.0,0.0,0.0,0.0,0.0,0.0,0.0,0.0,0.0,0.0,0.0,0.0,0.0,0.0,0.0,0.0,0.0,0.0,0.0,0.0,0.0,0.0,0.0,0.0,0.0,0.0,0.0,0.0,0.0,0.0,0.0,0.0,0.0,0.0,0.0,0.0,0.0,0.0,0.0,0.0,0.0,0.0,0.0,0.0,0.0,0.0,0.0,0.0,0.0,0.0,0.0,0.0,0.0,0.0,0.0,0.0,0.0,0.0,0.0,0.0,0.0,0.0,0.0,0.0,0.0,0.0,0.0,0.0,0.0,0.0,0.0,0.0,0.0,0.0,0.0,0.0,0.0,0.0,0.0,0.0,0.0,0.0,0.0,0.0,0.0,0.0,0.0,0.0,0.0,0.0,0.0,0.0,0.0,0.0,0.0,0.0,0.0,0.0,0.0,0.0,0.0,0.0,0.0,0.0,0.0,0.0,0.0,0.0,0.0,0.0,0.0,0.0,0.0,0.0,0.0,0.0,0.0,0.0,0.0,0.0,0.0,0.0,0.0,0.0,0.0,0.0,0.0,0.0,0.0,0.0,0.0,0.0,0.0,0.0,0.0,0.0,0.0,0.0,0.0,0.0,0.0,0.0,0.0,0.0,0.0,0.0,0.0,0.0,0.0,0.0,0.0,0.0,0.0,0.0,0.0,0.0,0.0,0.0,0.0,0.0,0.0,0.0,0.0,0.0,0.0,0.0,0.0,0.0,0.0,0.0,0.0,0.0,0.0,0.0,0.0,0.0,0.0,0.0,0.0,0.0,0.0,0.0,0.0,0.0,0.0,0.0,0.0,0.0,0.0,0.0,0.0,0.0,0.0,0.0,0.0,0.0,0.0,0.0,0.0,0.0,0.0,0.0,0.0,0.0,0.0,0.0,0.0,0.0,0.0,0.0,0.0,0.0,0.0,0.0,0.0,0.0,0.0,0.0,0.0,0.0,0.0,0.0,0.0,0.0,0.0,0.0,0.0,0.0,0.0,0.0,0.0,0.0,0.0,0.0,0.0,0.0,0.0,0.0,0.0,0.0,0.0,0.0,0.0,0.0,0.0,0.0,0.0,0.0,0.0,0.0,0.0,0.0,0.0,0.0,0.0,0.0,0.0,0.0,0.0,0.0,0.0,0.0,0.0,0.0,0.0,0.0,0.0,0.0,0.0,0.0,0.0,0.0,0.0,0.0,0.0,0.0,0.0,0.0,0.0,3.1801,0.0,0.0,0.0,0.0,0.0,0.0,0.0,0.0,0.0,0.0,0.0,0.0,0.0,0.0,0.0,0.0,0.0,0.0,0.0,0.0,0.0,0.0,0.0,0.0,0.0,0.0,0.0,0.0,0.0,0.0,0.0,0.0,0.0,0.0,0.0,0.0,0.0,0.0,0.0,0.0,0.0,0.0,0.0,0.0,0.0,0.0,0.0,0.0,0.0,0.0,0.0,0.0,0.0,0.0,0.0,0.0,0.0,0.0,0.0,0.0,0.0,0.0,0.0,0.0,0.0,0.0,0.0,0.0,0.0,0.0,0.0,0.0,0.0,0.0,0.0,0.0,0.0,0.0,0.0,0.0,0.0,0.0,0.0,0.0,0.0,0.0,0.0,0.0,0.0,0.0,0.0,0.0,0.0,0.0,0.0,0.0,0.0,0.0,0.0,0.0,0.0,0.0,0.0,0.0,0.0,0.0,0.0,0.0,0.0,0.0,3.348,3.3525,3.3209,3.2858,3.2442,0.0,0.0,0.0,0.0,0.0,0.0,0.0,0.0,0.0,0.0,0.0,0.0,0.0,0.0,0.0,0.0,0.0,0.0,0.0,0.0,0.0,0.0,0.0,0.0,0.0,0.0,0.0,0.0,0.0,0.0,0.0,0.0,0.0,0.0,0.0,0.0,0.0,0.0,0.0,0.0,0.0,0.0,0.0,0.0,0.0,0.0,0.0,0.0,0.0,0.0,0.0,0.0,0.0,0.0,0.0,0.0,0.0,0.0,0.0,0.0,0.0,0.0,0.0,0.0,0.0,0.0,0.0,0.0,0.0,0.0,0.0,0.0,0.0,0.0,0.0,0.0,0.0,0.0,0.0,0.0,0.0,0.0,0.0,0.0,0.0,0.0,0.0,0.0,0.0,0.0,0.0,0.0,0.0,0.0,0.0,0.0,0.0,0.0,0.0,0.0,0.0,0.0,0.0,0.0,0.0,0.0,0.0,0.0,0.0,0.0,0.0,0.0,3.3935,3.355,3.3215,0.0,0.0,0.0,0.0,0.0,0.0,0.0,0.0,0.0,0.0,0.0,0.0,0.0,0.0,0.0,0.0,0.0,0.0,0.0,0.0,0.0,0.0,0.0,0.0,0.0,0.0,0.0,0.0,0.0,0.0,0.0,0.0,0.0,0.0,0.0,0.0,0.0,0.0,0.0,0.0,0.0,0.0,0.0,0.0,0.0,0.0,0.0,0.0,0.0,0.0,0.0,0.0,0.0,0.0,0.0,0.0,0.0,0.0,0.0,0.0,0.0,0.0,0.0,0.0,0.0,0.0,0.0,0.0,0.0,0.0,0.0,0.0,0.0,0.0,0.0,0.0,0.0,0.0,0.0,0.0,0.0,0.0,0.0,0.0,0.0,0.0,0.0,0.0,0.0,0.0,0.0,0.0,0.0,0.0,0.0,0.0,0.0,0.0,0.0,0.0,0.0,0.0,0.0,0.0,0.0,0.0,0.0,0.0,0.0,0.0,3.4162,3.4366,3.4341,0.0,3.3865,0.0,0.0,0.0,0.0,0.0,0.0,0.0,0.0,0.0,0.0,0.0,0.0,0.0,0.0,0.0,0.0,0.0,0.0,0.0,0.0,0.0,0.0,0.0,0.0,0.0,0.0,0.0,0.0,0.0,0.0,0.0,0.0,0.0,0.0,0.0,0.0,0.0,0.0,0.0,0.0,0.0,0.0,0.0,0.0,0.0,0.0,0.0,0.0,0.0,0.0,0.0,0.0,0.0,0.0,0.0,0.0,0.0,0.0,0.0,0.0,0.0,0.0,0.0,0.0,0.0,0.0,0.0,0.0,0.0,0.0,0.0,0.0,0.0,0.0,0.0,0.0,0.0,0.0,0.0,0.0,0.0,0.0,0.0,0.0,0.0,0.0,0.0,0.0,0.0,0.0,0.0,0.0,0.0,0.0,0.0,0.0,0.0,0.0,0.0,0.0,0.0,0.0,0.0,0.0,0.0,0.0,0.0,0.0,0.0,0.0,3.4808,3.498,3.4603,3.4276,0.0,0.0,0.0,0.0,0.0,0.0,0.0,0.0,0.0,0.0,0.0,0.0,0.0,0.0,0.0,0.0,0.0,0.0,0.0,0.0,0.0,0.0,0.0,0.0,0.0,0.0,0.0,0.0,0.0,0.0,0.0,0.0,0.0,0.0,0.0,0.0,0.0,0.0,0.0,0.0,0.0,0.0,0.0,0.0,0.0,0.0,0.0,0.0,0.0,0.0,0.0,0.0,0.0,0.0,0.0,0.0,0.0,0.0,0.0,0.0,0.0,0.0,0.0,0.0,0.0,0.0,0.0,0.0,0.0,0.0,0.0,0.0,0.0,0.0,0.0,0.0,0.0,0.0,0.0,0.0,0.0,0.0,0.0,0.0,0.0,0.0,0.0,0.0,0.0,0.0,0.0,0.0,0.0,0.0,0.0,0.0,0.0,0.0,0.0,0.0,0.0,0.0,0.0,0.0,0.0,0.0,0.0,0.0,0.0,0.0,3.5603,3.5286,3.5288,3.4888,3.4539,3.4257,0.0,0.0,0.0,0.0,0.0,0.0,0.0,0.0,0.0,0.0,0.0,0.0,0.0,0.0,0.0,0.0,0.0,0.0,0.0,0.0,0.0,0.0,0.0,0.0,0.0,0.0,0.0,0.0,0.0,0.0,0.0,0.0,0.0,0.0,0.0,0.0,0.0,0.0,0.0,0.0,0.0,0.0,0.0,0.0,0.0,0.0,0.0,0.0,0.0,0.0,0.0,0.0,0.0,0.0,0.0,0.0,0.0,0.0,0.0,0.0,0.0,0.0,0.0,0.0,0.0,0.0,0.0,0.0,0.0,0.0,0.0,0.0,0.0,0.0,0.0,0.0,0.0,0.0,0.0,0.0,0.0,0.0,0.0,0.0,0.0,0.0,0.0,0.0,0.0,0.0,0.0,0.0,0.0,0.0,0.0,0.0,0.0,0.0,0.0,0.0,0.0,0.0,0.0,0.0,0.0,0.0,0.0,0.0,0.0,3.5812,3.5525,3.5165,3.5288,3.5215,0.0,0.0,0.0,0.0,0.0,0.0,0.0,0.0,0.0,0.0,0.0,0.0,0.0,0.0,0.0,0.0,0.0,0.0,0.0,0.0,0.0,0.0,0.0,0.0,0.0,0.0,0.0,0.0,0.0,0.0,0.0,0.0,0.0,0.0,0.0,0.0,0.0,0.0,0.0,0.0,0.0,0.0,0.0,0.0,0.0,0.0,0.0,0.0,0.0,0.0,0.0,0.0,0.0,0.0,0.0,0.0,0.0,0.0,0.0,0.0,0.0,0.0,0.0,0.0,0.0,0.0,0.0,0.0,0.0,0.0,0.0,0.0,0.0,0.0,0.0,0.0,0.0,0.0,0.0,0.0,0.0,0.0,0.0,0.0,0.0,0.0,0.0,0.0,0.0,0.0,0.0,0.0,0.0,0.0,0.0,0.0,0.0,0.0,0.0,0.0,0.0,0.0,0.0,0.0,0.0,0.0,0.0,0.0,0.0,3.7201,3.6642,3.6127,3.5676,3.5379,3.5305,0.0,0.0,0.0,0.0,0.0,0.0,0.0,0.0,0.0,0.0,0.0,0.0,0.0,0.0,0.0,0.0,0.0,0.0,0.0,0.0,0.0,0.0,0.0,0.0,0.0,0.0,0.0,0.0,0.0,0.0,0.0,0.0,0.0,0.0,0.0,0.0,0.0,0.0,0.0,0.0,0.0,0.0,0.0,0.0,0.0,0.0,0.0,0.0,0.0,0.0,0.0,0.0,0.0,0.0,0.0,0.0,0.0,0.0,0.0,0.0,0.0,0.0,0.0,0.0,0.0,0.0,0.0,0.0,0.0,0.0,0.0,0.0,0.0,0.0,0.0,0.0,0.0,0.0,0.0,0.0,0.0,0.0,0.0,0.0,0.0,0.0,0.0,0.0,0.0,0.0,0.0,0.0,0.0,0.0,0.0,0.0,0.0,0.0,0.0,0.0,0.0,0.0,0.0,0.0,0.0,0.0,0.0,0.0,0.0,3.8079,0.0,3.6921,0.0,3.592,3.5751,0.0,0.0,0.0,0.0,0.0,0.0,0.0,0.0,0.0,0.0,0.0,0.0,0.0,0.0,0.0,0.0,0.0,0.0,0.0,0.0,0.0,0.0,0.0,0.0,0.0,0.0,0.0,0.0,0.0,0.0,0.0,0.0,0.0,0.0,0.0,0.0,0.0,0.0,0.0,0.0,0.0,0.0,0.0,0.0,0.0,0.0,0.0,0.0,0.0,0.0,0.0,0.0,0.0,0.0,0.0,0.0,0.0,0.0,0.0,0.0,0.0,0.0,0.0,0.0,0.0,0.0,0.0,0.0,0.0,0.0,0.0,0.0,0.0,0.0,0.0,0.0,0.0,0.0,0.0,0.0,0.0,0.0,0.0,0.0,0.0,0.0,0.0,0.0,0.0,0.0,0.0,0.0,0.0,0.0,0.0,0.0,0.0,0.0,0.0,0.0,0.0,0.0,0.0,0.0,0.0,0.0,0.0,0.0,3.8484,3.8449,3.8255,3.7715,3.6968,3.6921,3.6548,0.0,0.0,0.0,0.0,0.0,0.0,0.0,0.0,0.0,0.0,0.0,0.0,0.0,0.0,0.0,0.0,0.0,0.0,0.0,0.0,0.0,0.0,0.0,0.0,0.0,0.0,0.0,0.0,0.0,0.0,0.0,0.0,0.0,0.0,0.0,0.0,0.0,0.0,0.0,0.0,0.0,0.0,0.0,0.0,0.0,0.0,0.0,0.0,0.0,0.0,0.0,0.0,0.0,0.0,0.0,0.0,0.0,0.0,0.0,0.0,0.0,0.0,0.0,0.0,0.0,0.0,0.0,0.0,0.0,0.0,0.0,0.0,0.0,0.0,0.0,0.0,0.0,0.0,0.0,0.0,0.0,0.0,0.0,0.0,0.0,0.0,0.0,0.0,0.0,0.0,0.0,0.0,0.0,0.0,0.0,0.0,0.0,0.0,0.0,0.0,0.0,0.0,0.0,0.0,0.0,0.0,0.0,0.0,0.0,3.8061,3.7772,3.7662,3.7688,3.7074,3.6845,0.0,0.0,0.0,0.0,0.0,0.0,0.0,0.0,0.0,0.0,0.0,0.0,0.0,0.0,0.0,0.0,0.0,0.0,0.0,0.0,0.0,0.0,0.0,0.0,0.0,0.0,0.0,0.0,0.0,0.0,0.0,0.0,0.0,0.0,0.0,0.0,0.0,0.0,0.0,0.0,0.0,0.0,0.0,0.0,0.0,0.0,0.0,0.0,0.0,0.0,0.0,0.0,0.0,0.0,0.0,0.0,0.0,0.0,0.0,0.0,0.0,0.0,0.0,0.0,0.0,0.0,0.0,0.0,0.0,0.0,0.0,0.0,0.0,0.0,0.0,0.0,0.0,0.0,0.0,0.0,0.0,0.0,0.0,0.0,0.0,0.0,0.0,0.0,0.0,0.0,0.0,0.0,0.0,0.0,0.0,0.0,0.0,0.0,0.0,0.0,0.0,0.0,0.0,0.0,0.0,0.0,0.0,0.0,0.0,3.8424,3.8292,3.8362,3.8671,3.7975,3.7709,3.7833,0.0,0.0,0.0,0.0,0.0,0.0,0.0,0.0,0.0,0.0,0.0,0.0,0.0,0.0,0.0,0.0,0.0,0.0,0.0,0.0,0.0,0.0,0.0,0.0,0.0,0.0,0.0,0.0,0.0,0.0,0.0,0.0,0.0,0.0,0.0,0.0,0.0,0.0,0.0,0.0,0.0,0.0,0.0,0.0,0.0,0.0,0.0,0.0,0.0,0.0,0.0,0.0,0.0,0.0,0.0,0.0,0.0,0.0,0.0,0.0,0.0,0.0,0.0,0.0,0.0,0.0,0.0,0.0,0.0,0.0,0.0,0.0,0.0,0.0,0.0,0.0,0.0,0.0,0.0,0.0,0.0,0.0,0.0,0.0,0.0,0.0,0.0,0.0,0.0,0.0,0.0,0.0,0.0,0.0,0.0,0.0,0.0,0.0,0.0,0.0,0.0,0.0,0.0,0.0,0.0,0.0,0.0,0.0,3.9624,3.9605,3.9607,3.9695,3.939,3.8953,0.0,0.0,0.0,0.0,0.0,0.0,0.0,0.0,0.0,0.0,0.0,0.0,0.0,0.0,0.0,0.0,0.0,0.0,0.0,0.0,0.0,0.0,0.0,0.0,0.0,0.0,0.0,0.0,0.0,0.0,0.0,0.0,0.0,0.0,0.0,0.0,0.0,0.0,0.0,0.0,0.0,0.0,0.0,0.0,0.0,0.0,0.0,0.0,0.0,0.0,0.0,0.0,0.0,0.0,0.0,0.0,0.0,0.0,0.0,0.0,0.0,0.0,0.0,0.0,0.0,0.0,0.0,0.0,0.0,0.0,0.0,0.0,0.0,0.0,0.0,0.0,0.0,0.0,0.0,0.0,0.0,0.0,0.0,0.0,0.0,0.0,0.0,0.0,0.0,0.0,0.0,0.0,0.0,0.0,0.0,0.0,0.0,0.0,0.0,0.0,0.0,0.0,0.0,0.0,0.0,0.0,0.0,0.0,0.0,4.0666,3.9916,3.9685,4.0106,3.9354,3.9266,0.0,0.0,0.0,0.0,0.0,0.0,0.0,0.0,0.0,0.0,0.0,0.0,0.0,0.0,0.0,0.0,0.0,0.0,0.0,0.0,0.0,0.0,0.0,0.0,0.0,0.0,0.0,0.0,0.0,0.0,0.0,0.0,0.0,0.0,0.0,0.0,0.0,0.0,0.0,0.0,0.0,0.0,0.0,0.0,0.0,0.0,0.0,0.0,0.0,0.0,0.0,0.0,0.0,0.0,0.0,0.0,0.0,0.0,0.0,0.0,0.0,0.0,0.0,0.0,0.0,0.0,0.0,0.0,0.0,0.0,0.0,0.0,0.0,0.0,0.0,0.0,0.0,0.0,0.0,0.0,0.0,0.0,0.0,0.0,0.0,0.0,0.0,0.0,0.0,0.0,0.0,0.0,0.0,0.0,0.0,0.0,0.0,0.0,0.0,0.0,0.0,0.0,0.0,0.0,0.0,0.0,0.0,0.0,4.0,4.1194,4.0002,3.9929,4.116,4.036,4.0187,0.0,0.0,0.0,0.0,0.0,0.0,0.0,0.0,0.0,0.0,0.0,0.0,0.0,0.0,0.0,0.0,0.0,0.0,0.0,0.0,0.0,0.0,0.0,0.0,0.0,0.0,0.0,0.0,0.0,0.0,0.0,0.0,0.0,0.0,0.0,0.0,0.0,0.0,0.0,0.0,0.0,0.0,0.0,0.0,0.0,0.0,0.0,0.0,0.0,0.0,0.0,0.0,0.0,0.0,0.0,0.0,0.0,0.0,0.0,0.0,0.0,0.0,0.0,0.0,0.0,0.0,0.0,0.0,0.0,0.0,0.0,0.0,0.0,0.0,0.0,0.0,0.0,0.0,0.0,0.0,0.0,0.0,0.0,0.0,0.0,0.0,0.0,0.0,0.0,0.0,0.0,0.0,0.0,0.0,0.0,0.0,0.0,0.0,0.0,0.0,0.0,0.0,0.0,0.0,0.0,0.0,0.0,0.0,4.054,4.1377,4.0082,4.0386,4.245,4.1836,4.1326,0.0,0.0,0.0,0.0,0.0,0.0,0.0,0.0,0.0,0.0,0.0,0.0,0.0,0.0,0.0,0.0,0.0,0.0,0.0,0.0,0.0,0.0,0.0,0.0,0.0,0.0,0.0,0.0,0.0,0.0,0.0,0.0,0.0,0.0,0.0,0.0,0.0,0.0,0.0,0.0,0.0,0.0,0.0,0.0,0.0,0.0,0.0,0.0,0.0,0.0,0.0,0.0,0.0,0.0,0.0,0.0,0.0,0.0,0.0,0.0,0.0,0.0,0.0,0.0,0.0,0.0,0.0,0.0,0.0,0.0,0.0,0.0,0.0,0.0,0.0,0.0,0.0,0.0,0.0,0.0,0.0,0.0,0.0,0.0,0.0,0.0,0.0,0.0,0.0,0.0,0.0,0.0,0.0,0.0,0.0,0.0,0.0,0.0,0.0,0.0,0.0,0.0,0.0,0.0,0.0,0.0,0.0,0.0,4.0703,4.1911,4.0618,4.0929,4.3126,4.1957,4.1671,0.0,0.0,0.0,0.0,0.0,0.0,0.0,0.0,0.0,0.0,0.0,0.0,0.0,0.0,0.0,0.0,0.0,0.0,0.0,0.0,0.0,0.0,0.0,0.0,0.0,0.0,0.0,0.0,0.0,0.0,0.0,0.0,0.0,0.0,0.0,0.0,0.0,0.0,0.0,0.0,0.0,0.0,0.0,0.0,0.0,0.0,0.0,0.0,4.4284,0.0,0.0,0.0,0.0,0.0,0.0,0.0,0.0,0.0,0.0,0.0,0.0,0.0,0.0,0.0,0.0,0.0,0.0,0.0,0.0,0.0,0.0,0.0,0.0,0.0,0.0,0.0,0.0,0.0,0.0,0.0,0.0,0.0,0.0,0.0,0.0,0.0,0.0,0.0,0.0,0.0,0.0,0.0,0.0,0.0,0.0,0.0,0.0,0.0,0.0,0.0,0.0,0.0,0.0,0.0,0.0,0.0,0.0,0.0,4.1224,4.2389,4.1372,4.1686,4.3447,4.2684,4.2422,0.0,0.0,0.0,0.0,0.0,0.0,0.0,0.0,0.0,0.0,0.0,0.0,0.0,0.0,0.0,0.0,0.0,0.0,0.0,0.0,0.0,0.0,0.0,0.0,0.0,0.0,0.0,0.0,0.0,0.0,0.0,0.0,0.0,0.0,0.0,0.0,0.0,0.0,0.0,0.0,0.0,0.0,0.0,0.0,0.0,0.0,0.0,0.0,0.0,0.0,0.0,0.0,0.0,0.0,0.0,0.0,0.0,0.0,0.0,0.0,0.0,0.0,0.0,0.0,0.0,0.0,0.0,0.0,0.0,0.0,0.0,0.0,0.0,0.0,0.0,0.0,0.0,0.0,0.0,0.0,0.0,0.0,0.0,0.0,0.0,0.0,0.0,0.0,0.0,0.0,0.0,0.0,0.0,0.0,0.0,0.0,0.0,0.0,0.0,0.0,0.0,0.0,0.0,0.0,0.0,0.0,0.0,4.1865,4.1971,4.2808,4.2194,4.2567,4.3998,4.3807,4.3478,4.303,0.0,0.0,0.0,0.0,0.0,0.0,0.0,0.0,0.0,0.0,0.0,0.0,0.0,0.0,0.0,0.0,0.0,0.0,0.0,0.0,0.0,0.0,0.0,0.0,0.0,0.0,0.0,0.0,0.0,0.0,0.0,0.0,0.0,0.0,0.0,0.0,0.0,0.0,4.144,4.1781,0.0,0.0,0.0,0.0,0.0,0.0,0.0,0.0,4.556,0.0,0.0,0.0,0.0,0.0,0.0,0.0,0.0,0.0,0.0,0.0,0.0,0.0,0.0,0.0,0.0,0.0,0.0,0.0,0.0,0.0,0.0,0.0,0.0,0.0,0.0,0.0,0.0,0.0,0.0,0.0,0.0,0.0,0.0,0.0,0.0,0.0,0.0,0.0,0.0,0.0,0.0,0.0,0.0,0.0,0.0,0.0,0.0,0.0,0.0,0.0,0.0,0.0,0.0,0.0,0.0,4.2885,4.2265,4.2542,4.3593,4.3004,4.3552,4.5209,4.5042,4.4589,4.387,0.0,0.0,0.0,0.0,0.0,0.0,0.0,0.0,0.0,0.0,0.0,0.0,0.0,0.0,0.0,0.0,0.0,0.0,0.0,0.0,0.0,0.0,0.0,0.0,0.0,0.0,0.0,0.0,0.0,0.0,0.0,0.0,0.0,0.0,0.0,0.0,0.0,0.0,0.0,4.2728,4.3369,0.0,0.0,0.0,0.0,0.0,0.0,0.0,0.0,4.6363,0.0,0.0,0.0,0.0,0.0,0.0,0.0,0.0,0.0,0.0,0.0,0.0,0.0,0.0,0.0,0.0,0.0,0.0,0.0,0.0,0.0,0.0,0.0,0.0,0.0,0.0,0.0,0.0,0.0,0.0,0.0,0.0,0.0,0.0,0.0,0.0,0.0,0.0,0.0,0.0,0.0,0.0,0.0,0.0,0.0,0.0,0.0,0.0,0.0,0.0,0.0,0.0,0.0,0.0,0.0,4.4102,4.349,4.3673,4.4756,4.4476,4.4893,4.5969,4.5722,4.5383,0.0,0.0,0.0,0.0,0.0,0.0,0.0,0.0,0.0,0.0,0.0,0.0,0.0,0.0,0.0,0.0,0.0,0.0,0.0,0.0,0.0,0.0,0.0,0.0,0.0,0.0,0.0,0.0,0.0,0.0,0.0,0.0,0.0,0.0,0.0,0.0,0.0,0.0,0.0,0.0,4.4263,4.4787,4.5216,0.0,0.0,0.0,0.0,0.0,0.0,4.7441,4.7108,0.0,0.0,0.0,0.0,0.0,0.0,0.0,0.0,0.0,0.0,0.0,0.0,0.0,0.0,0.0,0.0,0.0,0.0,0.0,0.0,0.0,0.0,0.0,0.0,0.0,0.0,0.0,0.0,0.0,0.0,0.0,0.0,0.0,0.0,0.0,0.0,0.0,0.0,0.0,0.0,0.0,0.0,0.0,0.0,0.0,0.0,0.0,0.0,0.0,0.0,0.0,0.0,0.0,0.0,0.0,4.5366,4.4579,4.4684,4.5729,4.5803,4.6034,4.6527,4.642,4.6051,0.0,0.0,0.0,0.0,0.0,0.0,0.0,0.0,0.0,0.0,0.0,0.0,0.0,0.0,0.0,0.0,0.0,0.0,0.0,0.0,0.0,0.0,0.0,0.0,0.0,0.0,0.0,0.0,0.0,0.0,0.0,0.0,0.0,0.0,0.0,0.0,0.0,0.0,0.0,0.0,0.0,4.6426,4.6495,4.7376,0.0,0.0,0.0,0.0,4.8817,4.8278,0.0,0.0,0.0,0.0,0.0,0.0,0.0,0.0,0.0,0.0,0.0,0.0,0.0,0.0,0.0,0.0,0.0,0.0,0.0,0.0,0.0,0.0,0.0,0.0,0.0,0.0,0.0,0.0,0.0,0.0,0.0,0.0,0.0,0.0,0.0,0.0,0.0,0.0,0.0,0.0,0.0,0.0,0.0,0.0,0.0,0.0,0.0,0.0,0.0,0.0,0.0,0.0,0.0,0.0,0.0,0.0,4.6051,4.5037,4.4978,4.609,4.6165,4.6451,4.7163,4.741,4.6921,0.0,0.0,0.0,0.0,0.0,0.0,0.0,0.0,0.0,0.0,0.0,0.0,0.0,0.0,0.0,0.0,0.0,0.0,0.0,0.0,0.0,0.0,0.0,0.0,0.0,0.0,0.0,0.0,0.0,0.0,0.0,0.0,0.0,0.0,0.0,0.0,0.0,0.0,0.0,0.0,0.0,4.8174,4.8583,4.9819,5.0854,0.0,0.0,5.0996,5.0807,4.9852,0.0,0.0,0.0,0.0,0.0,0.0,0.0,0.0,0.0,0.0,0.0,0.0,0.0,0.0,0.0,0.0,0.0,0.0,0.0,0.0,0.0,0.0,0.0,0.0,0.0,0.0,0.0,0.0,0.0,0.0,0.0,0.0,0.0,0.0,0.0,0.0,0.0,0.0,0.0,0.0,0.0,0.0,0.0,0.0,0.0,0.0,0.0,0.0,0.0,0.0,0.0,0.0,0.0,0.0,0.0,4.657,4.751,4.6645,4.671,4.7802,4.7854,4.7925,4.8064,4.8014,4.7541,0.0,0.0,0.0,0.0,0.0,0.0,0.0,0.0,0.0,0.0,0.0,0.0,0.0,0.0,0.0,0.0,0.0,0.0,0.0,0.0,0.0,0.0,0.0,0.0,0.0,0.0,0.0,0.0,0.0,0.0,0.0,0.0,0.0,0.0,0.0,0.0,0.0,0.0,0.0,0.0,0.0,0.0,5.1096,5.2147,0.0,0.0,0.0,5.2021,5.1856,0.0,0.0,0.0,0.0,0.0,0.0,0.0,0.0,0.0,0.0,0.0,0.0,0.0,0.0,0.0,0.0,0.0,0.0,0.0,0.0,0.0,0.0,0.0,0.0,0.0,0.0,0.0,0.0,0.0,0.0,0.0,0.0,0.0,0.0,0.0,0.0,0.0,0.0,0.0,0.0,0.0,0.0,0.0,0.0,0.0,0.0,0.0,0.0,0.0,0.0,0.0,0.0,0.0,0.0,0.0,0.0,0.0,4.8652,4.7863,4.7953,4.9072,4.9125,4.901,4.8837,4.8561,0.0,0.0,0.0,0.0,0.0,0.0,0.0,0.0,0.0,0.0,0.0,0.0,0.0,0.0,0.0,0.0,0.0,0.0,0.0,0.0,0.0,0.0,0.0,0.0,0.0,0.0,0.0,4.6093,0.0,0.0,0.0,0.0,0.0,0.0,0.0,0.0,0.0,0.0,0.0,0.0,0.0,0.0,5.3398,5.3814,5.4556,5.4847,0.0,0.0,5.3416,5.3365,5.2526,5.1865,0.0,0.0,0.0,0.0,0.0,0.0,0.0,0.0,0.0,0.0,0.0,0.0,0.0,0.0,0.0,0.0,0.0,0.0,0.0,0.0,0.0,0.0,0.0,0.0,0.0,0.0,0.0,0.0,0.0,0.0,0.0,0.0,0.0,0.0,0.0,0.0,0.0,0.0,0.0,0.0,0.0,0.0,0.0,0.0,0.0,0.0,0.0,0.0,0.0,0.0,0.0,0.0,0.0,0.0,0.0,4.8838,4.7973,4.7953,4.9072,4.9125,4.9125,4.9041,4.905,4.8791,0.0,0.0,0.0,0.0,0.0,0.0,0.0,0.0,0.0,0.0,0.0,0.0,0.0,0.0,0.0,0.0,0.0,0.0,0.0,0.0,0.0,0.0,0.0,0.0,0.0,0.0,0.0,0.0,0.0,0.0,0.0,0.0,0.0,0.0,0.0,0.0,0.0,0.0,0.0,0.0,0.0,5.5596,5.6665,5.7197,5.7549,0.0,0.0,5.6282,5.592,5.5577,5.4927,5.373,0.0,0.0,0.0,0.0,0.0,0.0,0.0,0.0,0.0,0.0,0.0,0.0,0.0,0.0,0.0,0.0,0.0,0.0,0.0,0.0,0.0,0.0,0.0,0.0,0.0,0.0,0.0,0.0,0.0,0.0,0.0,0.0,0.0,0.0,0.0,0.0,0.0,0.0,0.0,0.0,0.0,0.0,0.0,0.0,0.0,0.0,0.0,0.0,0.0,0.0,0.0,0.0,0.0,4.8566,4.9535,4.8818,4.8861,4.9586,4.9613,4.9583,4.9412,4.9552,4.9333,0.0,0.0,0.0,0.0,0.0,0.0,0.0,0.0,0.0,0.0,0.0,0.0,0.0,0.0,0.0,0.0,0.0,0.0,0.0,0.0,0.0,0.0,0.0,0.0,0.0,0.0,0.0,0.0,4.9156,4.9642,5.0775,0.0,0.0,0.0,0.0,0.0,0.0,0.0,0.0,0.0,0.0,5.786,5.8577,5.8829,0.0,0.0,5.834,5.76,5.698,5.6603,5.612,5.5472,5.4986,0.0,0.0,0.0,0.0,0.0,0.0,0.0,0.0,0.0,0.0,0.0,0.0,0.0,0.0,0.0,0.0,0.0,0.0,0.0,0.0,0.0,0.0,0.0,0.0,0.0,0.0,0.0,0.0,0.0,0.0,0.0,0.0,0.0,0.0,0.0,0.0,0.0,0.0,0.0,0.0,0.0,0.0,0.0,0.0,0.0,0.0,0.0,0.0,0.0,0.0,0.0,0.0,4.975,5.0582,5.006,5.0213,5.1017,5.0933,5.0819,5.065,5.0574,5.0265,0.0,0.0,0.0,0.0,0.0,0.0,0.0,0.0,0.0,0.0,0.0,0.0,0.0,0.0,0.0,0.0,0.0,0.0,0.0,0.0,0.0,0.0,0.0,0.0,0.0,0.0,0.0,0.0,5.0358,5.1188,5.2801,0.0,0.0,0.0,0.0,0.0,0.0,0.0,0.0,0.0,0.0,5.9762,6.039,6.0587,6.0715,6.0821,5.9975,5.9126,5.8698,5.8182,5.7665,5.7172,0.0,0.0,0.0,0.0,0.0,0.0,0.0,0.0,0.0,0.0,0.0,0.0,0.0,0.0,0.0,0.0,0.0,0.0,0.0,0.0,0.0,0.0,0.0,0.0,0.0,0.0,0.0,0.0,0.0,0.0,4.749,0.0,0.0,0.0,0.0,0.0,0.0,0.0,0.0,0.0,0.0,0.0,0.0,0.0,0.0,0.0,0.0,0.0,0.0,0.0,0.0,0.0,0.0,5.0603,5.217,5.1657,5.2011,5.3227,5.314,5.2988,5.2933,5.2184,5.1792,5.188,0.0,0.0,0.0,0.0,0.0,0.0,0.0,0.0,0.0,0.0,0.0,0.0,0.0,0.0,0.0,0.0,0.0,0.0,0.0,0.0,0.0,0.0,0.0,0.0,0.0,0.0,5.1214,5.244,5.3748,0.0,0.0,0.0,0.0,0.0,0.0,0.0,0.0,0.0,0.0,5.9978,6.1101,6.2008,6.2509,6.2899,6.3355,6.2077,6.1152,6.1328,6.0783,5.9934,0.0,0.0,0.0,0.0,0.0,0.0,0.0,0.0,0.0,0.0,0.0,0.0,0.0,0.0,0.0,0.0,0.0,0.0,0.0,0.0,0.0,0.0,0.0,0.0,0.0,0.0,0.0,4.7829,4.7439,0.0,0.0,0.0,0.0,0.0,0.0,0.0,0.0,0.0,0.0,0.0,5.2062,5.245,0.0,0.0,0.0,0.0,0.0,0.0,0.0,0.0,0.0,0.0,0.0,0.0,5.1864,5.2497,5.2238,5.2491,5.3384,5.3328,5.3308,5.3308,5.3202,5.2868,5.2309,0.0,0.0,0.0,0.0,0.0,0.0,0.0,0.0,0.0,0.0,0.0,0.0,0.0,0.0,0.0,0.0,0.0,0.0,0.0,0.0,0.0,0.0,0.0,0.0,0.0,5.2668,0.0,0.0,0.0,0.0,0.0,0.0,0.0,0.0,0.0,0.0,0.0,5.9208,6.0613,6.1607,6.2397,6.304,6.3277,6.3407,0.0,0.0,0.0,0.0,0.0,0.0,0.0,0.0,0.0,0.0,0.0,0.0,0.0,0.0,5.7264,5.5382,5.5056,5.5056,5.5056,0.0,0.0,0.0,0.0,0.0,0.0,0.0,0.0,0.0,0.0,0.0,0.0,0.0,0.0,4.8802,0.0,4.8804,0.0,0.0,0.0,0.0,0.0,0.0,0.0,0.0,5.3004,5.3416,5.3227,5.3859,5.3913,0.0,5.3218,5.3092,0.0,0.0,0.0,0.0,0.0,0.0,0.0,0.0,5.3263,5.3675,5.3792,5.4121,5.4777,5.476,5.4724,5.4724,5.4641,5.4032,5.2786,5.2396,5.1706,0.0,0.0,0.0,0.0,0.0,0.0,0.0,0.0,0.0,0.0,0.0,0.0,0.0,0.0,0.0,0.0,0.0,0.0,0.0,0.0,0.0,0.0,0.0,5.4296,0.0,0.0,0.0,0.0,0.0,0.0,0.0,0.0,0.0,6.1234,6.1228,6.1609,6.2434,6.3022,6.354,6.3925,0.0,0.0,0.0,0.0,0.0,0.0,0.0,6.3726,6.3078,6.2837,6.2585,6.2212,6.1772,6.156,6.1612,0.0,0.0,5.7895,5.7361,5.7296,5.7113,5.7087,5.7007,5.6807,5.6327,5.5831,0.0,0.0,0.0,0.0,0.0,0.0,0.0,0.0,4.9142,4.9596,0.0,4.9447,0.0,0.0,0.0,0.0,0.0,5.1978,0.0,0.0,5.4352,5.4798,5.4261,5.5493,5.5462,5.4261,5.4798,5.507,5.4976,5.2901,0.0,0.0,0.0,0.0,0.0,0.0,5.4781,5.5422,5.6077,5.6778,5.7417,5.7266,5.7209,5.7129,5.6568,5.5285,5.3484,5.365,5.329,5.2144,5.2021,0.0,0.0,0.0,0.0,0.0,0.0,0.0,0.0,0.0,0.0,0.0,0.0,0.0,0.0,0.0,0.0,0.0,0.0,0.0,0.0,5.4929,0.0,0.0,0.0,0.0,0.0,0.0,0.0,0.0,0.0,0.0,6.3258,6.3538,6.3939,6.4248,0.0,0.0,0.0,0.0,6.5888,6.6397,6.612,6.5805,6.573,6.4824,6.4053,6.3809,0.0,0.0,6.3425,6.3596,6.3809,6.402,6.402,6.3183,6.039,5.9878,5.9688,5.9231,5.9172,5.9025,5.883,5.8684,5.8362,5.4338,0.0,0.0,0.0,0.0,5.1467,5.1631,5.186,5.2701,5.2611,5.1938,5.1989,0.0,0.0,0.0,0.0,0.0,0.0,5.326,5.3765,5.534,5.5625,5.4893,5.5922,5.6113,5.5588,5.5272,5.5355,5.5841,5.5052,5.4473,5.4218,0.0,0.0,0.0,0.0,5.4961,5.5499,5.6169,5.6825,5.7464,5.7445,5.7411,5.7442,5.6902,5.628,5.5596,5.5019,5.4419,5.3745,5.3501,0.0,0.0,0.0,0.0,0.0,0.0,0.0,0.0,0.0,0.0,0.0,0.0,0.0,0.0,0.0,0.0,0.0,0.0,0.0,5.6146,5.6771,5.7598,0.0,0.0,0.0,0.0,0.0,0.0,0.0,0.0,0.0,6.6729,6.5673,6.5314,0.0,0.0,6.5873,6.6154,6.6475,6.6779,6.6904,6.7516,0.0,6.7039,6.7216,6.7209,6.6452,6.6309,6.6398,6.6643,6.635,6.6136,6.6219,6.5834,6.5048,6.3809,6.3099,6.2699,6.2582,6.2549,6.2549,6.2432,6.2022,6.1531,5.715,5.5384,5.4068,5.3561,5.3607,5.3328,5.3357,5.368,5.4255,5.4228,5.374,5.3615,5.3157,5.2459,5.2208,0.0,0.0,0.0,5.4263,5.4675,5.6244,5.6645,5.6164,5.6842,5.6987,5.6568,5.6157,5.6157,5.6599,5.6239,5.6094,5.6024,0.0,0.0,5.4769,5.5399,5.5889,5.6193,5.6852,5.7417,5.7825,5.7825,5.7825,5.7825,5.7602,5.7347,5.6927,5.6467,5.58,5.4974,5.4649,5.4196,0.0,0.0,0.0,0.0,0.0,0.0,0.0,0.0,0.0,0.0,0.0,5.6393,5.7284,0.0,0.0,0.0,5.7818,5.8194,5.8223,5.8822,0.0,0.0,0.0,0.0,0.0,0.0,0.0,6.5549,6.7235,6.8434,6.8434,6.7716,6.7377,6.7676,6.7398,6.721,6.7325,0.0,6.7523,6.7604,6.8624,6.9174,6.8606,6.8917,6.8877,6.7834,6.8011,6.8171,6.8128,6.8022,6.7959,6.7719,6.7168,6.6609,6.617,6.5556,6.4841,6.4254,6.412,6.412,6.412,6.3793,6.3463,5.9113,5.9695,5.6931,5.5984,5.6216,5.4915,5.4775,5.5333,5.4727,5.5,5.5799,5.4587,5.412,5.4134,5.3534,0.0,5.325,5.4761,5.545,5.5557,5.6956,5.756,5.756,5.8046,5.7955,5.7245,5.7245,5.7277,5.7308,5.6899,5.7064,5.7656,5.6618,5.6149,5.6265,5.6897,5.7277,5.734,5.8004,5.8367,5.8367,5.843,5.843,5.8367,5.8518,5.8369,5.7764,5.7892,5.7309,5.5965,5.5503,5.5002,5.4373,0.0,0.0,0.0,0.0,0.0,0.0,0.0,0.0,0.0,0.0,0.0,0.0,0.0,0.0,0.0,5.9956,0.0,6.0314,6.1087,0.0,0.0,0.0,6.5221,6.5459,6.6803,6.7724,6.769,0.0,0.0,6.8999,6.9637,6.9918,6.937,6.8813,6.8435,6.8201,6.8201,6.828,6.8578,6.9624,7.038,7.0342,7.019,6.9718,6.8678,6.8833,6.9124,6.8798,6.9003,6.925,6.8948,6.8241,6.7736,6.7811,6.7216,6.6373,6.493,6.457,6.4529,6.4596,6.4596,6.4547,6.0445,6.0763,5.9532,5.8838,5.8435,5.7948,5.7809,5.7981,5.7478,5.7144,5.6857,5.6541,5.5828,5.4861,5.4908,5.4559,5.3913,5.4778,5.532,5.5589,5.7101,5.754,5.7093,5.7897,5.8121,5.7752,5.7707,5.8026,5.8536,5.8467,5.8467,5.8627,5.8556,5.7904,5.6826,5.7432,5.7994,5.8568,5.8728,5.8824,5.8824,5.938,5.9412,5.8824,5.8869,5.8818,5.8659,5.8748,5.8165,5.6948,5.6734,5.6085,5.471,5.5073,0.0,0.0,0.0,0.0,0.0,0.0,0.0,0.0,0.0,5.8454,6.0006,0.0,5.9837,0.0,6.1511,6.2123,6.2319,6.3521,0.0,0.0,6.5568,6.6381,6.6982,6.8075,6.8677,6.8539,6.9813,7.0806,7.0771,7.1482,7.1943,7.1727,7.0338,6.9268,6.9045,6.9157,6.9479,7.015,7.111,7.1825,7.1752,7.1752,7.1433,7.0695,7.073,7.0838,7.0877,7.0126,6.9729,7.0082,6.9279,6.8586,6.8474,6.793,6.7426,6.6963,6.6527,6.6221,6.6187,6.6187,6.6187,6.1052,6.1175,6.1057,6.0783,6.0397,5.9263,5.8844,5.8845,5.8326,5.7961,5.7674,5.7449,5.6924,5.6164,5.5736,5.5375,5.5193,5.5693,5.6173,5.6622,5.7897,5.835,5.7997,5.8701,5.8807,5.8409,5.8719,5.89,5.9017,5.9062,5.9107,5.9152,5.9684,5.948,5.8637,5.8788,5.9,5.9318,5.9518,5.9588,5.953,6.0122,6.0084,5.9184,5.9552,5.9652,5.9464,5.9552,5.8993,5.7729,5.7716,5.7069,5.5588,5.6122,5.6523,0.0,0.0,0.0,0.0,0.0,0.0,0.0,0.0,0.0,0.0,0.0,6.1598,6.2314,6.3566,6.4405,6.4572,6.5634,6.6343,6.6443,6.7153,6.7825,6.832,6.9169,6.9808,7.006,7.0948,7.1659,7.1979,7.2407,7.2691,7.2691,7.173,7.0911,7.0692,7.0764,7.0978,7.1402,7.2292,7.2935,7.3045,7.3045,7.2797,7.2193,7.2335,7.2513,7.2228,7.1873,7.1622,7.1586,7.0546,6.9645,6.9573,6.8802,6.8167,6.8172,6.7975,6.7529,6.6938,6.6812,6.6812,6.1257,6.1359,6.1815,6.2016,6.1859,5.9718,5.8921,5.9018,5.8264,5.8136,5.8303,5.796,5.7624,5.737,5.63,5.6046,5.6384,5.6794,5.7341,5.8005,5.8976,5.9464,5.9508,6.0001,5.9914,5.9375,5.9957,5.9914,5.9375,5.952,5.9608,5.9652,6.043,6.0886,6.0886,6.0515,6.0282,6.0109,6.0733,6.0896,6.0599,6.0996,6.0771,5.9802,6.0378,6.0525,6.0184,6.0345,5.984,5.8569,5.8535,5.7965,5.6795,5.7285,5.7879,0.0,5.9013,0.0,0.0,0.0,0.0,0.0,0.0,0.0,0.0,6.2939,6.3594,6.4534,6.5882,6.6766,6.6693,6.7474,6.8004,6.8103,6.8813,6.9345,6.9588,7.0229,7.0978,7.1727,7.1906,7.2263,7.2834,7.3012,7.3119,7.3191,7.3155,7.2941,7.2687,7.2436,7.2296,7.2472,7.3292,7.3972,7.4117,7.4154,7.3868,7.3226,7.3405,7.3761,7.3083,7.3369,7.3583,7.2977,7.1907,7.1121,7.1121,6.9972,6.9182,6.926,6.9045,6.8482,6.7366,6.7029,6.6938,6.1461,6.1866,6.1966,6.2116,6.2189,6.0626,6.0012,5.9965,5.8765,5.8335,5.8564,5.8664,5.7962,5.6809,5.7241,5.6782,5.578,5.6937,5.7732,5.83,5.9513,6.0216,6.043,6.1103,6.1276,6.1227,6.1317,6.1317,6.1227,6.1235,6.1235,6.1235,6.1595,6.1756,6.1797,0.0,0.0,0.0,6.3856,6.4123,6.2997,6.2845,6.2514,6.1914,6.1276,0.0,6.1028,6.0978,6.0581,5.9956,5.9325,0.0,0.0,0.0,0.0,0.0,0.0,0.0,0.0,0.0,0.0,0.0,6.4261,6.4367,6.3874,6.4968,6.613,6.7112,6.8035,6.8388,6.7881,6.9093,6.9698,6.9162,6.9766,7.048,7.1156,7.1371,7.1763,7.2513,7.3155,7.3619,7.3797,7.4332,7.4725,7.4654,7.4725,7.4724,7.4616,7.3511,7.3012,7.3582,7.4331,7.4903,7.4975,7.4975,7.4654,7.4011,7.3869,7.3976,7.3833,7.3333,7.3369,7.3619,7.3155,7.2654,7.2654,7.1659,7.0806,7.0842,6.9951,6.8865,6.7975,6.7811,6.7569,6.1765,0.0,6.2166,6.2266,0.0,6.0897,6.0297,6.0202,5.8875,5.8367,5.8473,5.8701,5.8332,5.7573,5.8017,5.8043,5.7721,5.8421,5.9121,5.983,6.0613,6.1069,6.1227,6.1877,6.1963,6.1716,6.2003,6.1963,6.1716,6.1716,6.1716,6.1716,6.2116,6.2279,6.2352,6.3226,6.3694,6.3653,6.4514,6.4747,6.4294,6.4464,6.4011,6.2855,6.2656,0.0,0.0,0.0,0.0,0.0,0.0,0.0,0.0,0.0,0.0,6.0221,6.098,6.191,6.298,6.3183,6.37,6.4708,6.5619,6.6081,6.598,6.6723,6.7605,6.8524,6.8987,6.9235,6.9337,7.0015,7.0336,6.9979,7.0264,7.0835,7.1513,7.1692,7.2156,7.3191,7.3761,7.4118,7.4547,7.4939,7.5189,7.5225,7.5225,7.5225,7.5153,7.4547,7.419,7.4547,7.4903,7.5189,7.5225,7.5189,7.5118,7.4689,7.4618,7.4654,7.4726,7.4405,7.4297,7.4726,7.433,7.3826,7.379,7.3006,7.2257,7.1898,7.1333,7.0452,6.9416,6.8865,6.8486,6.2016,6.2066,6.2315,6.2396,6.227,6.0897,6.017,5.9854,0.0,0.0,0.0,5.8518,5.8514,5.8433,5.871,5.9177,5.9783,6.0043,6.0554,6.1399,6.1891,6.2085,6.2159,6.2717,6.2717,6.2324,6.2654,6.2547,6.2076,6.2037,6.2003,6.2076,6.2547,6.2817,6.2928,6.4002,6.4649,6.467,6.4661,6.487,6.5218,6.5739,6.5141,6.3469,6.3806,6.3542,6.2581,6.2508,6.2004,6.0782,6.0947,6.0516,5.9388,6.0221,6.091,6.1219,6.2016,6.2917,6.399,6.4091,6.4648,6.5865,6.6848,6.7593,6.8101,6.8271,6.8623,6.9479,6.9515,6.98,7.0443,7.0514,7.0585,7.0693,7.0728,7.1085,7.1942,7.212,7.2727,7.394,7.4225,7.4439,7.5082,7.5189,7.5225,7.5225,7.5225,7.5225,7.5225,7.5153,7.5082,7.5118,7.5189,7.5225,7.5225,7.5225,7.5189,7.5226,7.5226,7.5298,7.5478,7.555,7.5621,7.5655,7.5257,7.4932,7.4788,7.4212,7.3557,7.3041,7.2824,7.2401,7.1287,7.038,6.974,6.2116,6.2347,6.2365,6.2396,6.227,6.0897,5.9633,5.8605,5.8384,5.8381,5.8564,5.861,5.826,5.7828,5.9176,5.9545,5.9141,6.0506,6.1298,6.1709,6.2916,6.3577,6.3772,6.4195,6.4456,6.4462,6.3801,6.3417,6.3343,6.3305,6.3343,6.3305,6.3417,6.3563,6.371,6.4069,6.4558,6.5177,6.6152,6.6376,6.5941,6.583,6.5489,6.4775,6.4045,6.3592,6.3452,6.3414,6.3348,6.3107,6.2672,6.2473,6.2614,6.216,6.233,6.3129,6.3437,6.4025,6.5001,6.5204,6.5972,6.7558,6.8516,6.9017,6.9089,6.9124,6.9479,7.0229,7.03,7.0371,7.0514,7.0514,7.0764,7.1406,7.1513,7.2084,7.3405,7.3583,7.394,7.4868,7.5046,7.501,7.5153,7.5225,7.5225,7.5225,7.5332,7.526,7.5332,7.5225,7.5225,7.5225,7.5225,7.5225,7.5225,7.5189,7.5262,7.5442,7.5442,7.5478,7.5727,7.5763,7.5763,7.5798,7.5757,7.5718,7.5716,7.5277,7.4802,7.4543,7.4073,7.3537,7.3185,7.2548,7.1534,6.2266,6.2396,6.2396,6.2396,6.227,6.0897,5.976,5.8812,5.8432,5.8367,5.8427,5.8427,5.8268,5.8151,5.9621,6.0201,6.0083,6.2038,6.3119,6.3387,6.4564,6.5172,6.5286,6.555,6.5736,6.5739,6.4826,6.4371,6.43,6.388,6.36,6.36,6.371,6.3856,6.4072,6.4179,6.439,6.4811,6.5671,6.615,6.6257,6.6147,6.5801,6.5183,6.4728,6.4345,6.3963,6.3929,6.3721,6.3305,6.3135,6.2927,6.2715,6.2852,6.3163,6.3682,6.417,6.4937,6.5982,6.6574,6.7418,6.8658,6.9087,6.9515,6.9943,6.9979,7.0122,7.0478,7.0514,7.0514,7.0514,7.0514,7.0835,7.162,7.1692,7.2334,7.369,7.4011,7.4296,7.5046,7.5225,7.5225,7.5225,7.5225,7.5403,7.5724,7.5831,7.5905,7.6051,7.6051,7.5871,7.5442,7.5297,7.5298,7.5478,7.5298,7.537,7.5621,7.555,7.5621,7.5832,7.5901,7.5936,7.6039,7.6106,7.614,7.614,7.5954,7.5623,7.5083,7.4866,7.4431,7.403,7.3595,7.2548,6.2396,6.2396,6.2396,6.2302,6.2067,6.0834,5.9918,5.9254,5.8559,5.8321,5.8321,5.8321,5.8321,5.8459,5.9805,6.0661,6.1185,6.3216,6.4401,6.4807,6.5896,6.6459,6.6535,6.6684,6.6758,6.669,6.56,6.5001,6.4897,6.4055,6.3637,6.3673,6.3892,6.4109,6.4251,6.4287,6.4393,6.4498,6.4952,6.5437,6.5995,6.6169,6.5925,6.5228,6.5158,6.488,6.4286,6.4287,6.4008,6.338,6.352,6.3343,6.2853,6.3445,6.393,6.4133,6.4695,6.5568,6.6716,6.7772,6.8658,6.9231,6.9479,6.9836,7.0407,7.0514,7.0514,7.0514,7.0514,7.0514,7.0514,7.0693,7.1085,7.1834,7.212,7.2869,7.4047,7.4297,7.4475,7.5154,7.5262,7.5262,7.5297,7.5262,7.5476,7.5976,7.619,7.6373,7.6769,7.6733,7.6267,7.6016,7.5693,7.5549,7.5693,7.5406,7.537,7.5692,7.5621,7.5656,7.5865,7.6003,7.6072,7.6208,7.6275,7.6275,7.6275,7.6275,7.6022,7.5551,7.5406,7.5152,7.4428,7.4214,7.3576,6.2396,6.2396,6.2396,6.2067,6.1466,6.0645,5.9918,5.9286,5.8559,5.8321,5.8321,5.8321,5.8321,5.8427,5.9564,6.0397,6.1061,6.2978,6.417,6.4945,6.645,6.7298,6.7449,6.7524,6.7599,6.7536,6.5986,6.5142,6.5038,6.409,6.3673,6.3892,6.4181,6.4393,6.4428,6.4603,6.4637,6.4672,6.4707,6.4777,6.4882,6.5584,6.5584,6.4777,6.4742,6.4638,6.4428,6.4568,6.4533,6.4323,6.4428,6.4531,6.4461,6.4531,6.4669,6.4873,6.5147,6.5769,6.6952,6.8373,6.9265,6.9372,6.9979,7.0371,7.0514,7.0514,7.0514,7.0514,7.0514,7.0514,7.055,7.1121,7.1834,7.262,7.3262,7.4154,7.4832,7.5118,7.519,7.5407,7.5406,7.5478,7.5406,7.5478,7.555,7.5657,7.5836,7.6123,7.6768,7.6481,7.6444,7.6803,7.6769,7.6158,7.5585,7.5225,7.5298,7.5514,7.5514,7.5656,7.5901,7.6003,7.6038,7.6174,7.6275,7.6275,7.6275,7.6275,7.6275,7.6094,7.5985,7.5913,7.5225,7.5008,7.451,6.2396,6.2396,6.2396,6.2256,6.1877,6.0771,6.0139,5.9791,5.8717,5.8321,5.8321,5.8321,5.8321,5.8367,5.9476,6.0584,6.17,6.3579,6.506,6.6117,6.7499,6.8142,6.829,6.8551,6.87,6.8704,6.7396,6.6408,6.5741,6.4445,6.4171,6.4773,6.4567,6.4918,6.5794,6.5128,6.4917,6.5373,6.4952,6.4706,6.4741,6.5022,6.5057,6.4776,6.4706,6.4672,6.4602,6.4672,6.4672,6.4602,6.4637,6.4706,6.4706,6.4706,6.4878,6.5218,6.6299,6.7385,6.8337,6.9408,7.0015,7.0015,7.03,7.0514,7.0514,7.0514,7.0514,7.0514,7.0514,7.0693,7.1156,7.1513,7.2156,7.3262,7.3833,7.4332,7.5118,7.5225,7.5225,7.5298,7.5298,7.5334,7.537,7.5727,7.5872,7.5801,7.5944,7.641,7.7087,7.6907,7.7017,7.7628,7.7414,7.666,7.5871,7.537,7.5406,7.5585,7.5692,7.5763,7.5868,7.6108,7.6174,7.6176,7.6208,7.6275,7.6275,7.6275,7.6275,7.6275,7.6275,7.6167,7.5877,7.5804,7.5623,6.2396,6.2396,6.2396,6.2396,6.227,6.1119,6.0487,6.0139,5.9064,5.8464,5.8321,5.8321,5.8321,5.8459,5.9298,6.0576,6.2164,6.3889,6.5483,6.7014,6.8166,6.8705,6.8743,6.9155,6.9376,6.927,6.835,6.7396,6.6479,6.536,6.512,6.5721,6.5373,6.5759,6.6707,6.5654,6.5303,6.5759,6.5127,6.4706,6.4706,6.4706,6.4706,6.4706,6.4706,6.4706,6.4706,6.4706,6.4706,6.4706,6.4706,6.4706,6.4706,6.4706,6.4983,6.5707,6.7354,6.8658,6.9267,7.005,7.0514,7.0514,7.0514,7.0514,7.0514,7.0514,7.0514,7.0514,7.0693,7.1121,7.1585,7.2084,7.2869,7.3869,7.4154,7.4618,7.5118,7.5225,7.5261,7.5262,7.5298,7.5297,7.5369,7.5726,7.5906,7.5765,7.6123,7.6697,7.7192,7.7154,7.7156,7.7986,7.741,7.6871,7.6513,7.6123,7.5908,7.5944,7.6122,7.6122,7.6049,7.629,7.6461,7.6538,7.6389,7.6311,7.6275,7.6275,7.6275,7.6275,7.6275,7.6275,7.6203,7.6239,7.6275,6.2396,6.2396,6.2396,6.2396,6.2333,6.1624,6.0929,6.0329,5.9538,5.8875,5.8415,5.8321,5.8321,5.8367,5.8927,6.0173,6.2113,6.3434,6.5115,6.7044,6.8166,6.8705,6.8743,6.9155,6.9376,6.934,6.8527,6.7538,6.6621,6.6591,6.67,6.67,6.6741,6.6882,6.7023,6.6286,6.5829,6.5865,6.5198,6.4741,6.4706,6.4706,6.4741,6.4776,6.4706,6.4706,6.4706,6.4706,6.4706,6.4706,6.4706,6.4672,6.4741,6.4776,6.53,6.6417,6.8172,6.9265,6.9444,7.0086,7.0514,7.0514,7.0514,7.0514,7.0514,7.0514,7.0514,7.0514,7.1192,7.1692,7.187,7.2905,7.3761,7.4083,7.4725,7.5082,7.5189,7.5225,7.5262,7.5406,7.5406,7.5406,7.5478,7.5334,7.5441,7.555,7.5764,7.6192,7.6869,7.6716,7.6929,7.7257,7.7009,7.6511,7.7595,7.6913,7.6589,7.6661,7.6517,7.6697,7.666,7.6656,7.6796,7.6863,7.6676,7.6492,7.6348,7.6275,7.6275,7.6275,7.6275,7.6275,7.6275,7.6275,7.6275,6.2396,6.2396,6.2396,6.2396,6.2302,6.1687,6.1245,6.0897,5.9791,5.9191,5.8875,5.8464,5.8321,5.8335,5.9241,6.0794,6.2752,6.3424,6.5114,6.7561,6.8409,6.8705,6.8743,6.9155,6.9376,6.934,6.8986,6.8458,6.7578,6.7086,6.7123,6.7512,6.7198,6.748,6.8112,6.7234,6.6602,6.6532,6.5865,6.5233,6.4811,6.4706,6.4952,6.5408,6.4987,6.4706,6.4706,6.4706,6.4706,6.4706,6.4706,6.4952,6.5478,6.6178,6.6986,6.7901,6.8777,6.9517,7.0015,7.0336,7.0514,7.0514,7.0514,7.0514,7.0514,7.0514,7.0514,7.0693,7.1692,7.2334,7.2584,7.3405,7.4225,7.4725,7.501,7.5225,7.5225,7.5189,7.5225,7.5262,7.5298,7.5334,7.5334,7.5261,7.5298,7.5621,7.5763,7.6117,7.654,7.6821,7.7289,7.7905,7.7583,7.7512,7.9033,7.7342,7.6265,7.6552,7.666,7.6696,7.673,7.7121,7.7331,7.6901,7.6751,7.671,7.6565,7.642,7.6384,7.6311,7.6311,7.6456,7.6275,7.6309,7.6309,6.2396,6.2396,6.2396,6.2396,6.2333,6.194,6.1593,6.1308,6.0392,5.9854,5.9538,5.8906,5.8763,5.9076,5.9659,6.1295,6.3511,6.3911,6.5488,6.8014,6.8513,6.8705,6.8781,6.919,6.9376,6.9376,6.9376,6.906,6.8603,6.7967,6.8003,6.8533,6.8006,6.8287,6.8989,6.8041,6.7409,6.7269,6.6637,6.597,6.5514,6.5443,6.5689,6.6075,6.5724,6.5338,6.5092,6.4846,6.4706,6.4741,6.4952,6.5443,6.6251,6.734,6.822,6.8786,6.9382,6.9943,7.0407,7.0514,7.0514,7.0514,7.0514,7.0514,7.0514,7.0514,7.0514,7.08,7.187,7.2798,7.3012,7.3761,7.4618,7.5118,7.5225,7.5225,7.5225,7.5225,7.5225,7.5189,7.5189,7.5225,7.526,7.5548,7.5657,7.5764,7.6157,7.6656,7.6718,7.7074,7.7651,7.8122,7.7507,7.7615,7.8343,7.7408,7.7015,7.7339,7.763,7.745,7.7376,7.7731,7.7655,7.7152,7.6933,7.6893,7.6782,7.6601,7.6492,7.6384,7.6601,7.6818,7.6635,7.6378,7.6412,6.2396,6.2396,6.2396,6.2396,6.2365,6.2333,6.2003,6.1498,6.134,6.0866,6.0265,5.9602,5.9743,6.0359,6.016,6.1568,6.4105,6.472,6.6,6.8014,6.8513,6.8705,6.8743,6.9155,6.9376,6.9376,6.9376,6.9376,6.927,6.9165,6.92,6.9305,6.9235,6.9165,6.9412,6.8603,6.8182,6.7971,6.7339,6.6953,6.6988,6.6813,6.6848,6.7023,6.6918,6.6567,6.597,6.5233,6.4917,6.4952,6.5514,6.6251,6.7024,6.8117,6.8822,6.9034,6.9845,7.0409,7.0478,7.0514,7.0514,7.0514,7.0514,7.0514,7.0514,7.0514,7.0514,7.0693,7.1834,7.2798,7.3012,7.419,7.5118,7.5225,7.5225,7.5225,7.5225,7.5225,7.5225,7.5225,7.5225,7.5225,7.5404,7.5835,7.6087,7.598,7.6768,7.7555,7.7083,7.7366,7.7579,7.7543,7.7434,7.7651,7.7615,7.7543,7.8014,7.8414,7.8744,7.8854,7.878,7.8958,7.8487,7.8019,7.7655,7.7579,7.6674,7.6565,7.6855,7.6855,7.7072,7.7215,7.6992,7.6805,7.6654,6.2396,6.2396,6.2396,6.2396,6.2396,6.2396,6.2238,6.2067,6.1624,6.1277,6.0961,6.0297,6.025,6.0754,6.1152,6.2505,6.46,6.5309,6.6559,6.7906,6.8358,6.859,6.8743,6.9043,6.9299,6.9376,6.9376,6.9376,6.9376,6.9376,6.9376,6.9376,6.9376,6.9376,6.9376,6.913,6.8814,6.8252,6.7971,6.7585,6.7058,6.7023,6.7269,6.7725,6.7304,6.7093,6.7409,6.6707,6.6321,6.6251,6.6532,6.7023,6.7868,6.8929,6.9531,6.9601,7.0129,7.0514,7.0514,7.0514,7.0514,7.0514,7.0514,7.0514,7.0514,7.0514,7.0514,7.0657,7.187,7.2798,7.3048,7.4261,7.5153,7.5225,7.5225,7.5225,7.5225,7.5225,7.5225,7.5225,7.5225,7.5225,7.5261,7.5728,7.5944,7.58,7.6478,7.6832,7.6825,7.7617,7.8303,7.8267,7.8014,7.7651,7.776,7.7869,7.8159,7.8666,7.9175,7.9683,7.979,7.9826,7.9355,7.8812,7.8448,7.7869,7.6963,7.6927,7.7362,7.743,7.7609,7.7604,7.7419,7.7374,7.74,6.2396,6.2396,6.2396,6.2396,6.2396,6.2396,6.2396,6.2333,6.1972,6.1782,6.1593,6.0708,6.0805,6.1471,6.1727,6.3031,6.5077,6.5817,6.6794,6.797,6.8319,6.8513,6.8743,6.9043,6.9264,6.9376,6.9376,6.9376,6.9376,6.9376,6.9376,6.9376,6.9376,6.9376,6.9376,6.9376,6.9095,6.8708,6.8638,6.8392,6.8006,6.7866,6.8112,6.8498,6.8147,6.8182,6.8603,6.8147,6.762,6.7199,6.7269,6.7831,6.8604,6.9423,6.9885,6.9956,7.0237,7.0514,7.0514,7.0514,7.0514,7.0514,7.0514,7.0514,7.0514,7.0514,7.0514,7.0693,7.187,7.2798,7.3012,7.4261,7.5118,7.5225,7.5225,7.5225,7.5225,7.5225,7.5225,7.5225,7.5225,7.5225,7.5261,7.5765,7.5872,7.5941,7.6511,7.6793,7.7038,7.7615,7.805,7.8122,7.7615,7.7579,7.805,7.8231,7.834,7.881,7.9318,7.9898,8.026,8.0369,8.0151,7.921,7.8702,7.8267,7.7507,7.8122,7.8593,7.8479,7.8325,7.8504,7.8571,7.8515,7.8504,6.2333,6.2396,6.2396,6.2396,6.2396,6.2396,6.2396,6.2396,6.2333,6.2319,6.2003,6.1119,6.1392,6.2492,6.1915,6.3173,6.5601,6.6038,6.6844,6.7811,6.828,6.8474,6.8743,6.9155,6.9376,6.9376,6.9376,6.9376,6.9376,6.9376,6.9376,6.9376,6.9376,6.9376,6.9376,6.9376,6.9376,6.927,6.9305,6.927,6.9272,6.927,6.927,6.9305,6.9235,6.9237,6.9273,6.9203,6.8604,6.748,6.7936,6.8568,6.9273,6.9705,6.9885,6.992,7.0272,7.048,7.0514,7.0514,7.0514,7.0514,7.0514,7.0514,7.0514,7.0514,7.0514,7.0585,7.1906,7.2798,7.3048,7.4261,7.5082,7.5225,7.5225,7.5225,7.5225,7.5225,7.5225,7.5225,7.5225,7.5225,7.5225,7.6052,7.6194,7.6264,7.7121,7.7402,7.7398,7.7362,7.747,7.7398,7.7289,7.7398,7.7833,7.7977,7.8159,7.881,7.939,8.0078,8.0585,8.0766,8.0621,7.9716,7.9136,7.8629,7.8483,7.8988,7.9311,7.9231,7.9299,7.9657,7.9685,7.9592,7.9361,6.1972,6.2365,6.2396,6.2396,6.2396,6.2396,6.2396,6.2396,6.2396,6.2112,6.1751,6.1845,6.1914,6.2221,6.2572,6.3882,6.5393,6.6009,6.6787,6.7925,6.8123,6.8397,6.8743,6.9155,6.9376,6.9376,6.9376,6.9376,6.9376,6.9376,6.9376,6.9376,6.9376,6.9376,6.9376,6.9376,6.9376,6.9376,6.9376,6.9376,6.9376,6.9376,6.9376,6.9376,6.9376,6.9486,6.956,6.956,6.9382,6.8885,6.8919,6.9165,6.9377,6.9705,6.9885,6.9956,7.0272,7.0514,7.0514,7.0514,7.0514,7.0514,7.0514,7.0514,7.0514,7.0514,7.0514,7.0764,7.187,7.2798,7.3048,7.4261,7.5082,7.5225,7.5225,7.5225,7.5225,7.5225,7.5225,7.5225,7.5225,7.5225,7.5333,7.5657,7.6014,7.6013,7.6436,7.7036,7.6927,7.7108,7.7289,7.7434,7.7398,7.7398,7.7507,7.7651,7.8014,7.8702,7.9426,8.0187,8.0658,8.0947,8.0585,7.9969,8.0005,7.9677,7.9348,7.9453,7.9662,8.0019,8.0193,8.0476,8.0539,8.0451,8.0186,6.1814,6.2396,6.2396,6.2396,6.2396,6.2396,6.2396,6.2396,6.2396,6.2256,6.194,6.1909,6.2087,6.2284,6.262,6.3714,6.5159,6.5845,6.6694,6.7563,6.8044,6.8397,6.8743,6.908,6.9302,6.9376,6.9376,6.9376,6.9376,6.9376,6.9376,6.9376,6.9376,6.9376,6.9376,6.9376,6.9376,6.9376,6.9376,6.9376,6.9376,6.9376,6.9376,6.9412,6.9414,6.956,6.967,6.9634,6.956,6.9414,6.9376,6.9376,6.9412,6.9705,6.9885,6.9885,7.0272,7.0514,7.0514,7.0514,7.0514,7.0514,7.0514,7.0514,7.0514,7.0514,7.0514,7.0657,7.1942,7.262,7.3048,7.4261,7.5082,7.5225,7.5225,7.5225,7.5225,7.5225,7.5225,7.5225,7.5225,7.5225,7.5225,7.5478,7.5692,7.5833,7.6041,7.6285,7.6386,7.6782,7.7036,7.7072,7.7144,7.7108,7.7507,7.7796,7.8521,7.9173,7.9788,8.0513,8.0694,8.102,8.073,8.044,8.0656,8.069,8.0359,8.0279,8.0706,8.099,8.1124,8.1187,8.1253,8.1175,8.0979,6.1687,6.227,6.2365,6.2396,6.2396,6.2396,6.2396,6.2396,6.2396,6.2302,6.2161,6.1719,6.1943,6.2632,6.2428,6.3142,6.4604,6.5581,6.6491,6.7325,6.7965,6.8474,6.8705,6.9005,6.9227,6.9376,6.9376,6.9376,6.9376,6.9376,6.9376,6.9376,6.9376,6.9376,6.9376,6.9376,6.9376,6.9376,6.9376,6.9376,6.9376,6.9376,6.9376,6.9412,6.9597,6.967,6.9778,6.9742,6.9597,6.9449,6.9412,6.9376,6.9449,6.9705,6.9849,6.992,7.0237,7.048,7.0514,7.0514,7.0514,7.0514,7.0514,7.0514,7.0514,7.0514,7.0514,7.0514,7.1906,7.2798,7.344,7.4475,7.5082,7.5225,7.5225,7.5225,7.5225,7.5225,7.5225,7.5225,7.5225,7.5225,7.5261,7.5406,7.5585,7.5798,7.5971,7.6106,7.6242,7.6492,7.6565,7.6529,7.6601,7.6674,7.7326,7.8014,7.8992,7.9825,8.0404,8.0911,8.0802,8.0947,8.0802,8.0766,8.0909,8.1087,8.119,8.1328,8.1608,8.1706,8.1656,8.1868,8.208,8.1827,8.1636,6.0961,6.1656,6.2144,6.2396,6.2396,6.2396,6.2396,6.2365,6.2365,6.2098,6.1814,6.2003,6.194,6.1785,6.2443,6.3276,6.4328,6.5371,6.65,6.7845,6.8004,6.8397,6.8667,6.8967,6.919,6.9339,6.9376,6.9376,6.9376,6.9376,6.9376,6.9376,6.9376,6.9376,6.9376,6.9376,6.9376,6.9376,6.9376,6.9376,6.9376,6.9376,6.9412,6.9449,6.9705,6.9813,6.9849,6.9849,6.9777,6.9597,6.9451,6.9412,6.9449,6.9597,6.9742,6.9956,7.0132,7.0341,7.0444,7.0514,7.0514,7.0514,7.0514,7.0514,7.0514,7.0514,7.0514,7.0764,7.187,7.3226,7.4368,7.4939,7.5189,7.5225,7.5225,7.5225,7.5225,7.5225,7.5225,7.5225,7.5225,7.5225,7.5225,7.5334,7.555,7.5727,7.5901,7.6072,7.6174,7.6275,7.6275,7.6275,7.6348,7.6565,7.7543,7.8376,7.9426,8.0151,8.0694,8.1092,8.102,8.1019,8.0982,8.1018,8.1161,8.1374,8.1547,8.1717,8.1849,8.1985,8.2121,8.2154,8.2186,8.2186,8.2186,6.0739,6.1466,6.2161,6.2396,6.2396,6.2396,6.2256,6.2003,6.194,6.1751,6.1529,6.1814,6.1909,6.1909,6.2519,6.3164,6.3988,6.5237,6.6491,6.7523,6.7885,6.828,6.8551,6.8816,6.9043,6.9339,6.9376,6.9376,6.9376,6.9376,6.9376,6.9376,6.9376,6.9376,6.9376,6.9376,6.9376,6.9376,6.9376,6.9376,6.9376,6.9376,6.9522,6.9668,6.9884,7.0062,7.0167,7.0097,6.992,6.9742,6.9597,6.9451,6.9449,6.9524,6.967,6.992,7.0097,7.0272,7.041,7.0514,7.0514,7.0514,7.0514,7.0514,7.0514,7.0514,7.0514,7.0835,7.1906,7.344,7.4975,7.5189,7.5225,7.5225,7.5225,7.5225,7.5225,7.5225,7.5225,7.5225,7.5225,7.5225,7.5225,7.5334,7.5514,7.5727,7.5798,7.5971,7.6208,7.6275,7.6275,7.6275,7.6275,7.671,7.7724,7.8774,7.9897,8.0404,8.0658,8.0984,8.1056,8.1163,8.1234,8.1305,8.1339,8.1547,8.1717,8.1885,8.2055,8.2121,8.2154,8.2186,8.2186,8.2186,8.2186,6.0676,6.1308,6.2098,6.2302,6.2238,6.2207,6.1845,6.1277,6.134,6.1466,6.1435,6.1466,6.2003,6.2369,6.258,6.2905,6.3785,6.509,6.6449,6.7195,6.7845,6.8201,6.8435,6.8667,6.893,6.9302,6.9376,6.9376,6.9376,6.9376,6.9376,6.9376,6.9376,6.9376,6.9376,6.9376,6.9376,6.9376,6.9376,6.9376,6.9376,6.9412,6.9559,6.9849,7.0062,7.0237,7.0341,7.0272,7.0096,6.992,6.9706,6.956,6.9487,6.9487,6.967,6.9884,7.0062,7.0237,7.041,7.0514,7.0514,7.0514,7.0514,7.0514,7.0514,7.0514,7.0514,7.0978,7.1906,7.344,7.4939,7.5225,7.5225,7.5225,7.5225,7.5225,7.5225,7.5225,7.5225,7.5225,7.5225,7.5225,7.5225,7.5225,7.5478,7.5692,7.5763,7.5939,7.6214,7.6348,7.6384,7.642,7.6456,7.6674,7.7615,7.8086,7.9354,8.0042,8.0332,8.0694,8.0911,8.1163,8.1269,8.141,8.1478,8.1683,8.1852,8.2022,8.2121,8.2186,8.2186,8.2186,8.2186,8.2186,8.2186,6.036,6.0581,6.1828,6.2098,6.1593,6.1561,6.1182,6.0676,6.1119,6.1403,6.1466,6.1972,6.2225,6.2414,6.2446,6.3019,6.4049,6.526,6.6253,6.7078,6.7765,6.8201,6.8358,6.8628,6.8892,6.9153,6.9302,6.9376,6.9376,6.9376,6.9376,6.9376,6.9376,6.9376,6.9376,6.9376,6.9376,6.9376,6.9376,6.9376,6.9376,6.9449,6.9597,6.992,7.0132,7.0342,7.0445,7.0306,7.0167,7.0132,6.9778,6.9634,6.956,6.9487,6.9597,6.9813,6.992,7.0132,7.041,7.0514,7.0514,7.0514,7.0585,7.0514,7.0514,7.055,7.0657,7.1014,7.1977,7.3476,7.501,7.5189,7.5225,7.5225,7.5225,7.5225,7.5225,7.5189,7.5225,7.5225,7.5225,7.5225,7.5225,7.5261,7.5442,7.5657,7.5763,7.6188,7.6644,7.6674,7.6637,7.6674,7.6674,7.6963,7.7434,7.7688,7.8303,7.9064,7.9535,8.015,8.0475,8.1016,8.1301,8.1512,8.1649,8.1818,8.1952,8.2121,8.2154,8.2186,8.2186,8.2186,8.2186,8.2186,8.2186,5.9696,5.9696,6.0704,6.0956,6.0721,6.0641,6.0548,6.0392,6.0676,6.1055,6.1403,6.1751,6.213,6.2302,6.2396,6.3084,6.4151,6.5247,6.6196,6.7093,6.7765,6.8123,6.828,6.8551,6.8743,6.8967,6.9227,6.9376,6.9376,6.9376,6.9376,6.9376,6.9376,6.9376,6.9376,6.9376,6.9376,6.9376,6.9376,6.9376,6.9412,6.9559,6.9813,7.0026,7.0237,7.0411,7.048,7.041,7.0306,7.0167,6.9885,6.9706,6.9598,6.9597,6.9633,6.9813,6.9885,7.0097,7.041,7.0514,7.0514,7.055,7.0835,7.0871,7.0764,7.0835,7.1085,7.1478,7.2477,7.3726,7.4511,7.4939,7.5189,7.5225,7.5225,7.5261,7.5334,7.5225,7.5297,7.5334,7.5297,7.5261,7.5225,7.5297,7.5442,7.5585,7.5798,7.6367,7.7038,7.7144,7.7144,7.7072,7.7072,7.7036,7.7289,7.7434,7.7615,7.8231,7.8992,7.9606,8.0255,8.0903,8.1367,8.1683,8.1818,8.1919,8.2018,8.2154,8.2186,8.2186,8.2186,8.2186,8.2186,8.2186,8.2186,5.9176,5.897,5.9709,5.9929,5.9835,5.9961,6.0042,6.0123,6.0455,6.0897,6.134,6.1593,6.1972,6.2256,6.2519,6.2988,6.4008,6.5015,6.6026,6.6772,6.7696,6.8083,6.8201,6.8435,6.8667,6.8781,6.908,6.9339,6.9376,6.9376,6.9376,6.9376,6.9376,6.9376,6.9376,6.9376,6.9376,6.9376,6.9376,6.9412,6.9522,6.9741,6.9956,7.0202,7.0411,7.0514,7.0514,7.048,7.0375,7.0272,7.0097,6.9849,6.9706,6.967,6.9742,6.9849,6.992,7.0238,7.0625,7.08,7.0871,7.0907,7.1513,7.1406,7.1192,7.1478,7.1906,7.2191,7.3083,7.394,7.4225,7.4761,7.5118,7.5225,7.5225,7.5261,7.537,7.5442,7.5585,7.5585,7.5405,7.5333,7.5369,7.5261,7.537,7.58,7.6013,7.6836,7.744,7.7796,7.776,7.7651,7.7507,7.7217,7.7217,7.7253,7.7434,7.776,7.8664,7.9425,8.0179,8.0968,8.1394,8.1785,8.1955,8.2055,8.2154,8.2186,8.2186,8.2186,8.2186,8.2186,8.2186,8.2186,8.2186,5.9176,5.897,5.963,5.9646,5.9159,5.963,5.9742,5.9665,6.0676,6.1277,6.1498,6.2003,6.2319,6.2421,6.238,6.2677,6.3419,6.4647,6.5662,6.633,6.745,6.8083,6.8123,6.8319,6.8551,6.8705,6.9005,6.9227,6.9339,6.9376,6.9376,6.9376,6.9376,6.9376,6.9376,6.9376,6.9376,6.9376,6.9376,6.9486,6.9597,6.9813,6.9956,7.0202,7.0375,7.0514,7.0514,7.0514,7.048,7.041,7.0272,7.0062,6.992,6.9849,6.9849,6.9956,7.0133,7.0556,7.1193,7.1371,7.1406,7.1513,7.2191,7.2156,7.1977,7.2084,7.2548,7.2691,7.3547,7.3976,7.4154,7.4761,7.5082,7.5225,7.5262,7.5406,7.5586,7.6224,7.6298,7.6547,7.6617,7.6015,7.5657,7.5477,7.5334,7.5801,7.6372,7.7195,7.7912,7.8305,7.8484,7.8376,7.8231,7.7941,7.7579,7.7543,7.7615,7.7688,7.8519,7.9423,8.0176,8.0964,8.1535,8.1852,8.2022,8.2121,8.2154,8.2186,8.2186,8.2186,8.2186,8.2186,8.2186,8.2186,8.2186,5.8483,5.8153,5.8466,5.8404,5.8185,5.8466,5.9112,5.9902,6.0487,6.1245,6.1909,6.2207,6.2421,6.2397,6.2396,6.2769,6.353,6.4679,6.5651,6.6295,6.7393,6.8049,6.8123,6.8319,6.8513,6.8705,6.8967,6.919,6.9339,6.9376,6.9376,6.9376,6.9376,6.9376,6.9376,6.9376,6.9376,6.9376,6.9412,6.9559,6.9741,6.9849,7.0062,7.0341,7.048,7.0514,7.0514,7.0514,7.0514,7.048,7.0306,7.0167,7.0097,7.0062,7.0097,7.0097,7.0272,7.0554,7.0978,7.1442,7.1692,7.2049,7.2655,7.3119,7.262,7.262,7.262,7.2191,7.3761,7.4368,7.4225,7.4761,7.5046,7.5297,7.5586,7.6191,7.6507,7.6992,7.7374,7.7622,7.7804,7.7323,7.6728,7.6264,7.623,7.6518,7.7018,7.7662,7.8416,7.9029,7.9136,7.9136,7.8992,7.881,7.8376,7.8122,7.8231,7.8412,7.8955,7.9785,8.0281,8.0922,8.1532,8.1919,8.2121,8.2186,8.2186,8.2186,8.2186,8.2186,8.2186,8.2186,8.2186,8.2186,8.2186,5.8011,5.759,5.759,5.759,5.759,5.7746,5.8813,6.0234,6.055,6.1277,6.2112,6.2383,6.2427,6.24,6.2423,6.2748,6.3448,6.4489,6.5426,6.6387,6.7232,6.7837,6.8054,6.828,6.8435,6.8628,6.8819,6.9078,6.9264,6.9376,6.9376,6.9376,6.9376,6.9376,6.9376,6.9376,6.9376,6.9376,6.9376,6.9595,6.9849,6.9885,7.0132,7.0341,7.0514,7.0514,7.0514,7.0514,7.0514,7.048,7.0375,7.0272,7.0202,7.0237,7.0237,7.0237,7.0341,7.0658,7.1121,7.1585,7.1977,7.2548,7.3083,7.3761,7.3654,7.3369,7.3119,7.262,7.3976,7.4547,7.444,7.4833,7.5335,7.5763,7.6152,7.6961,7.7761,7.824,7.8798,7.9228,7.9343,7.9169,7.8446,7.75,7.7225,7.7342,7.7701,7.8238,7.8958,7.9787,7.9716,7.9716,7.957,7.9316,7.881,7.8593,7.8738,7.9099,7.9679,8.0217,8.075,8.1172,8.1742,8.2022,8.2186,8.2186,8.2186,8.2186,8.2186,8.2186,8.2186,8.2186,8.2186,8.2186,8.2186,5.8136,5.7871,5.7871,5.7871,5.7903,5.8515,5.9365,6.0265,6.0929,6.1561,6.2207,6.2432,6.2412,6.2393,6.2395,6.2481,6.2606,6.3498,6.4585,6.5533,6.6313,6.734,6.7837,6.8162,6.8241,6.8435,6.8628,6.8892,6.9115,6.9302,6.9339,6.9376,6.9376,6.9376,6.9376,6.9376,6.9376,6.9376,6.9376,6.956,6.9813,6.992,7.0097,7.0411,7.0514,7.0514,7.0514,7.0514,7.0514,7.0514,7.048,7.0375,7.0272,7.0341,7.0376,7.052,7.0589,7.1049,7.1727,7.2263,7.3012,7.3583,7.394,7.419,7.4332,7.4796,7.4547,7.3797,7.4618,7.4797,7.4762,7.5047,7.5689,7.6214,7.6841,7.7883,7.871,7.9516,8.0076,8.0758,8.0892,8.0634,8.0444,7.9548,7.8734,7.8792,7.9344,7.9915,8.0144,8.076,8.0402,8.0222,8.0076,7.9713,7.9028,7.9097,7.9634,7.9854,8.0184,8.0757,8.1255,8.1715,8.1885,8.2055,8.2186,8.2186,8.2186,8.2186,8.2186,8.2186,8.2186,8.2186,8.2186,8.2186,8.2186,5.8228,5.8182,5.8182,5.8089,5.7903,5.8154,5.8829,5.9618,6.0012,6.0771,6.1845,6.2211,6.2412,6.24,6.2431,6.2387,6.2531,6.3362,6.4288,6.5278,6.6279,6.7197,6.7763,6.8088,6.8201,6.8358,6.8513,6.8705,6.9078,6.919,6.9302,6.9339,6.9376,6.9376,6.9376,6.9376,6.9376,6.9376,6.9412,6.956,6.9813,6.992,7.0097,7.048,7.0514,7.0514,7.0514,7.0514,7.0514,7.0514,7.0514,7.0445,7.0375,7.048,7.0694,7.0946,7.1086,7.1763,7.262,7.3012,7.3369,7.4368,7.4368,7.4154,7.4654,7.4547,7.4404,7.4297,7.4725,7.4976,7.5475,7.5685,7.6108,7.669,7.7651,7.8817,7.9748,8.0622,8.1487,8.219,8.223,8.2063,8.1892,8.1659,8.088,8.0328,8.0959,8.141,8.1501,8.1547,8.1186,8.1039,8.0925,8.0721,8.0107,8.0283,8.0602,8.0646,8.0725,8.115,8.161,8.1748,8.1919,8.2088,8.2251,8.2316,8.2316,8.2219,8.2186,8.2219,8.2186,8.2186,8.2186,8.2219,8.2186,5.8321,5.8321,5.8321,5.8182,5.8011,5.8011,5.8514,5.9222,5.9349,6.0107,6.1403,6.1909,6.2235,6.2346,6.2389,6.2391,6.2529,6.3066,6.3944,6.4801,6.5749,6.6775,6.7483,6.798,6.8162,6.828,6.8397,6.8625,6.8816,6.904,6.9153,6.9264,6.9376,6.9376,6.9376,6.9376,6.9376,6.9376,6.9412,6.9487,6.9742,6.9849,7.0026,7.0375,7.048,7.0514,7.0514,7.0514,7.0514,7.0514,7.0514,7.0514,7.0514,7.0585,7.08,7.1192,7.1727,7.237,7.3155,7.3869,7.3976,7.4868,7.4761,7.4475,7.4368,7.4368,7.4547,7.4511,7.4939,7.537,7.5867,7.622,7.6808,7.7523,7.9338,8.0592,8.1194,8.2016,8.2835,8.3586,8.3426,8.3147,8.3066,8.2818,8.2238,8.16,8.1713,8.1985,8.2031,8.2011,8.1945,8.1868,8.186,8.1636,8.1405,8.1321,8.1203,8.0904,8.1086,8.1467,8.1815,8.1952,8.2275,8.2647,8.2745,8.2565,8.2591,8.2776,8.2534,8.2251,8.2284,8.2316,8.2412,8.2444,8.2251,5.8321,5.8321,5.8321,5.8274,5.8274,5.8274,5.8654,5.9159,5.9317,6.0012,6.1119,6.1403,6.179,6.2233,6.231,6.2391,6.2387,6.2557,6.3079,6.4075,6.4942,6.5857,6.6809,6.7517,6.7945,6.8088,6.828,6.8397,6.8474,6.8816,6.904,6.919,6.9302,6.9376,6.9376,6.9376,6.9376,6.9376,6.9376,6.9487,6.9634,6.9778,6.9991,7.0237,7.0375,7.0445,7.0514,7.0514,7.0514,7.0514,7.0514,7.0514,7.0514,7.0514,7.0621,7.08,7.1406,7.2084,7.2869,7.4261,7.4939,7.5153,7.4975,7.4975,7.5082,7.5118,7.501,7.4903,7.5153,7.5261,7.5872,7.672,7.7443,7.861,8.0422,8.1586,8.2119,8.2944,8.3667,8.4009,8.4073,8.4009,8.4009,8.3865,8.3378,8.2928,8.2671,8.2585,8.2585,8.2523,8.246,8.2334,8.2329,8.2076,8.1812,8.1875,8.1772,8.1441,8.1443,8.1846,8.2173,8.2397,8.2769,8.3206,8.3186,8.292,8.3157,8.3434,8.3157,8.2867,8.2534,8.2502,8.2597,8.2597,8.2439,5.8321,5.8321,5.8321,5.8321,5.8321,5.8321,5.8432,5.8685,5.9096,5.957,6.0139,6.0897,6.1488,6.1801,6.2192,6.2423,6.2439,6.2416,6.2904,6.3736,6.4239,6.5362,6.6347,6.702,6.7517,6.798,6.8201,6.828,6.8435,6.8663,6.8854,6.9078,6.9264,6.9376,6.9376,6.9376,6.9376,6.9376,6.9412,6.9486,6.9598,6.967,6.9884,7.0167,7.0272,7.0376,7.048,7.048,7.0514,7.0514,7.0514,7.0514,7.0514,7.0514,7.0728,7.1085,7.1692,7.2298,7.3369,7.4582,7.5153,7.5225,7.5225,7.5225,7.5225,7.5225,7.5189,7.5225,7.5225,7.5513,7.6551,7.7009,7.781,7.9064,8.0536,8.1503,8.2258,8.3281,8.4046,8.4073,8.411,8.411,8.411,8.411,8.374,8.3657,8.3367,8.3157,8.3127,8.3039,8.295,8.2678,8.2554,8.2265,8.2137,8.2292,8.2132,8.1745,8.1875,8.2292,8.2579,8.2823,8.3148,8.3545,8.3471,8.3358,8.361,8.3801,8.3774,8.3555,8.3358,8.301,8.289,8.283,8.2647,5.8321,5.8321,5.8321,5.8321,5.8321,5.8321,5.8321,5.8369,5.8748,5.9064,5.9522,6.0503,6.1199,6.1524,6.2067,6.2415,6.2399,6.2416,6.252,6.3351,6.3707,6.48,6.5823,6.6598,6.734,6.7871,6.8083,6.8162,6.828,6.8358,6.8663,6.904,6.9227,6.9302,6.9339,6.9376,6.9376,6.9376,6.9412,6.9449,6.9524,6.9633,6.9741,6.992,7.0132,7.0272,7.0375,7.041,7.0514,7.0514,7.0514,7.0514,7.0514,7.0585,7.08,7.1156,7.1977,7.2655,7.3797,7.4725,7.5153,7.5225,7.5225,7.5225,7.5225,7.5225,7.5225,7.5225,7.5225,7.5872,7.6733,7.7158,7.8465,7.9723,8.0934,8.1874,8.2545,8.3573,8.3822,8.3886,8.4084,8.411,8.411,8.411,8.3993,8.4057,8.4057,8.3822,8.3592,8.3508,8.3452,8.3272,8.3069,8.2913,8.2823,8.2786,8.2542,8.2068,8.2355,8.2816,8.3082,8.3349,8.3628,8.3854,8.3827,8.3854,8.3986,8.409,8.4218,8.4367,8.4417,8.3937,8.3396,8.309,8.2913,5.8321,5.8321,5.8321,5.8321,5.8321,5.8321,5.8321,5.8321,5.8306,5.8654,5.9301,5.9982,6.0715,6.1413,6.2053,6.2375,6.2416,6.2399,6.2475,6.2674,6.3221,6.4307,6.5221,6.6102,6.6878,6.766,6.8083,6.8123,6.8123,6.8319,6.8663,6.8825,6.887,6.8982,6.9093,6.9165,6.9235,6.9305,6.9412,6.9412,6.9449,6.9524,6.9633,6.9777,6.9991,7.0167,7.0272,7.0411,7.048,7.0514,7.0514,7.0514,7.0514,7.0514,7.0514,7.0871,7.1942,7.2869,7.3726,7.4511,7.5082,7.5153,7.5225,7.5225,7.5225,7.5225,7.5225,7.5225,7.5261,7.5942,7.6625,7.7914,7.9156,8.0422,8.1681,8.2412,8.2949,8.3367,8.3452,8.3592,8.394,8.4057,8.411,8.411,8.411,8.411,8.411,8.4084,8.3913,8.394,8.3876,8.3982,8.3784,8.3665,8.349,8.3198,8.3111,8.2695,8.2928,8.334,8.359,8.3843,8.409,8.4281,8.4306,8.4356,8.4443,8.4599,8.4856,8.4968,8.4946,8.4618,8.3963,8.3424,8.3082,5.8321,5.8321,5.8321,5.8321,5.8321,5.8321,5.8321,5.8321,5.8321,5.8479,5.8637,5.9818,6.0469,6.0696,6.1848,6.2291,6.2401,6.2413,6.2386,6.2584,6.2764,6.343,6.4307,6.5294,6.621,6.7094,6.7694,6.798,6.8088,6.8245,6.8023,6.8046,6.8199,6.8313,6.846,6.8568,6.8884,6.92,6.9305,6.9376,6.9376,6.9449,6.9524,6.9669,6.9849,7.0026,7.0202,7.0341,7.0444,7.0514,7.0514,7.0514,7.0514,7.0514,7.0514,7.0585,7.1442,7.2334,7.3119,7.3904,7.4618,7.5082,7.5189,7.5225,7.5225,7.5225,7.5225,7.5297,7.5478,7.6051,7.7021,7.8275,7.973,8.1171,8.2086,8.2355,8.286,8.3252,8.3338,8.3564,8.3913,8.4084,8.411,8.411,8.411,8.411,8.411,8.411,8.411,8.411,8.4215,8.428,8.4139,8.3918,8.3665,8.334,8.3396,8.3396,8.3618,8.3896,8.4255,8.4492,8.4651,8.4675,8.4627,8.4675,8.4808,8.4977,8.5073,8.516,8.516,8.4886,8.4571,8.3963,8.334,5.8321,5.8321,5.8321,5.8321,5.8321,5.8321,5.8321,5.8321,5.8321,5.8321,5.8444,5.9717,6.0315,6.0551,6.1733,6.2388,6.2403,6.2443,6.2415,6.2415,6.2415,6.3114,6.3815,6.4483,6.5504,6.6455,6.7163,6.7487,6.7601,6.7407,6.7184,6.7096,6.7248,6.7433,6.7579,6.7723,6.8182,6.8744,6.9165,6.934,6.9376,6.9376,6.9486,6.9524,6.9705,6.992,7.0097,7.0272,7.0375,7.048,7.0514,7.0514,7.0514,7.0514,7.0514,7.0657,7.1264,7.2084,7.2834,7.3619,7.4404,7.4975,7.5189,7.5225,7.5261,7.5297,7.5334,7.5406,7.5693,7.6194,7.7378,7.8635,8.0302,8.1948,8.2059,8.2173,8.2616,8.3135,8.3395,8.362,8.3822,8.402,8.411,8.411,8.411,8.411,8.411,8.411,8.411,8.411,8.424,8.4356,8.4217,8.3998,8.3801,8.3709,8.3817,8.3949,8.4167,8.443,8.4854,8.4878,8.4831,8.4831,8.4854,8.4901,8.4901,8.5022,8.5116,8.5241,8.5346,8.5207,8.4825,8.4267,8.3661,5.8321,5.8321,5.8321,5.8321,5.8321,5.8321,5.8321,5.8321,5.8321,5.8321,5.855,5.9696,6.0292,6.0558,6.1762,6.2358,6.2415,6.2415,6.2415,6.2415,6.2415,6.2871,6.3323,6.3922,6.4942,6.6034,6.6637,6.6755,6.67,6.6539,6.6339,6.6147,6.6297,6.6481,6.6737,6.702,6.7583,6.8392,6.9024,6.9376,6.9376,6.9376,6.9376,6.9449,6.956,6.9741,6.992,7.0097,7.0272,7.0445,7.0514,7.0514,7.0514,7.0514,7.0514,7.0621,7.1085,7.1727,7.2477,7.3262,7.4118,7.4725,7.5189,7.5225,7.5262,7.5406,7.5406,7.5478,7.5764,7.6581,7.7724,7.8521,7.9837,8.1281,8.1916,8.2127,8.2554,8.3039,8.3424,8.3648,8.394,8.411,8.411,8.411,8.411,8.411,8.411,8.411,8.411,8.411,8.4266,8.4406,8.4356,8.4242,8.4281,8.4255,8.4331,8.4454,8.4613,8.4722,8.4878,8.4901,8.4901,8.4901,8.4901,8.4924,8.4969,8.5066,8.516,8.5283,8.5388,8.5471,8.5105,8.451,8.3951,5.8321,5.8321,5.8321,5.8321,5.8321,5.8321,5.8321,5.8321,5.8321,5.8321,5.8564,5.9619,6.0312,6.0525,6.179,6.2415,6.2415,6.2415,6.2415,6.2415,6.2415,6.2522,6.2905,6.343,6.4449,6.5299,6.5803,6.5998,6.601,6.588,6.5645,6.531,6.5387,6.5534,6.5859,6.6282,6.7055,6.7969,6.8638,6.92,6.9376,6.9376,6.9412,6.9449,6.9524,6.9705,6.9884,7.0097,7.0272,7.048,7.0514,7.0514,7.0514,7.0514,7.0514,7.055,7.0764,7.1299,7.1977,7.2727,7.3512,7.4297,7.4761,7.5155,7.537,7.5442,7.5514,7.5621,7.6047,7.7,7.7916,7.8576,7.9371,8.0641,8.1709,8.2118,8.2491,8.295,8.333,8.374,8.4057,8.411,8.411,8.411,8.411,8.411,8.411,8.411,8.411,8.4136,8.4254,8.4406,8.4456,8.4456,8.4579,8.4651,8.4651,8.4699,8.477,8.4854,8.4901,8.4901,8.4901,8.4901,8.4901,8.4924,8.4977,8.5111,8.5219,8.5304,8.5408,8.5491,8.5169,8.458,8.4167,5.8321,5.8321,5.8321,5.8321,5.8321,5.8321,5.8321,5.8321,5.8321,5.8427,5.8837,5.9751,6.0312,6.0525,6.179,6.2415,6.2415,6.2415,6.2415,6.2415,6.2415,6.2415,6.2696,6.3012,6.3757,6.4571,6.5019,6.5283,6.5324,6.491,6.4571,6.4438,6.4477,6.4659,6.4983,6.5544,6.6422,6.7511,6.8216,6.8744,6.9235,6.9376,6.9376,6.9449,6.9522,6.9633,6.9742,6.9956,7.0167,7.0341,7.0445,7.0514,7.0514,7.0514,7.0514,7.0514,7.0621,7.0835,7.1513,7.2156,7.2869,7.3761,7.4297,7.4655,7.5442,7.5585,7.5727,7.5797,7.6005,7.6811,7.807,7.8865,7.9989,8.1206,8.1497,8.1709,8.2238,8.2739,8.3338,8.394,8.411,8.411,8.411,8.411,8.411,8.411,8.411,8.411,8.411,8.4125,8.428,8.4406,8.4481,8.4641,8.476,8.4808,8.4831,8.4878,8.4901,8.4901,8.4901,8.4901,8.4901,8.4901,8.4901,8.4932,8.5022,8.5132,8.5262,8.5346,8.5449,8.5511,8.5105,8.4627,8.4167,5.8321,5.8321,5.8321,5.8321,5.8321,5.8321,5.8321,5.8321,5.8321,5.8637,5.9149,5.9816,6.0181,6.0861,6.1588,6.2104,6.2381,6.2415,6.2415,6.2415,6.2415,6.242,6.2459,6.26,6.3315,6.3965,6.4549,6.4594,6.4565,6.4152,6.3913,6.3671,6.3747,6.3891,6.3999,6.4459,6.544,6.6667,6.7546,6.8181,6.8814,6.9376,6.9376,6.9376,6.9412,6.9486,6.9633,6.9742,6.9956,7.0202,7.0411,7.048,7.0514,7.0514,7.0514,7.0514,7.0514,7.0871,7.1335,7.1656,7.2584,7.3405,7.3797,7.444,7.5227,7.5656,7.5832,7.6039,7.6208,7.6693,7.7916,7.8835,8.0051,8.1212,8.1249,8.1579,8.2141,8.2739,8.3424,8.411,8.411,8.411,8.411,8.411,8.411,8.411,8.411,8.411,8.4136,8.424,8.4305,8.4431,8.4568,8.4713,8.4878,8.4901,8.4901,8.4901,8.4901,8.4901,8.4901,8.4901,8.4901,8.4901,8.4924,8.4932,8.5006,8.5116,8.5262,8.5388,8.5469,8.5451,8.5018,8.4557,8.4028,5.8321,5.8321,5.8321,5.8321,5.8321,5.8321,5.8321,5.8321,5.8289,5.8459,5.8841,5.9441,6.0109,6.1111,6.1276,6.1696,6.212,6.2256,6.2386,6.2415,6.2459,6.2537,6.2615,6.2727,6.2987,6.3566,6.4105,6.4252,6.4117,6.3772,6.36,6.36,6.36,6.3781,6.4031,6.4559,6.5329,6.6452,6.7403,6.8141,6.8989,6.9376,6.9376,6.9376,6.9376,6.9487,6.9597,6.9634,6.9884,7.0132,7.0411,7.048,7.0514,7.0514,7.0514,7.0514,7.0514,7.0621,7.0978,7.1299,7.2156,7.2869,7.344,7.4333,7.5084,7.5691,7.5901,7.6176,7.6342,7.6505,7.7381,7.7768,7.8727,8.0172,8.0824,8.1709,8.2455,8.3127,8.3794,8.4084,8.411,8.411,8.411,8.411,8.411,8.411,8.411,8.411,8.4136,8.424,8.4368,8.4494,8.4592,8.4737,8.4878,8.4878,8.4901,8.4901,8.4901,8.4901,8.4901,8.4901,8.4901,8.4901,8.4924,8.4932,8.5066,8.516,8.5287,8.5429,8.5451,8.5373,8.4914,8.4438,8.3937]}]]